[[{"header":{"parameterUnit":"m.s-1","parameterCategory":1,"la1":31.0,"la2":29.5877,"lo1":-88.7671,"lo2":-86.6584,"dy":0.0162,"dx":0.0185,"nx":115,"ny":88,"refTime":"2023-04-27T12:00:00:Z","depth":0,"parameterNumber":2,"parameterNumberName":"U-component_of_WINDS"},"data":[0.0,0.0,0.0,0.0,0.0,0.0,0.0,0.0,0.0,0.0,0.0,0.0,0.0,0.0,0.0,0.0,0.0,0.0,0.0,0.0,0.0,0.0,0.0,0.0,0.0,0.0,0.0,0.0,0.0,0.0,0.0,0.0,0.0,0.0,0.0,0.0,0.0,0.0,0.0,0.0,0.0,0.0,0.0,0.0,0.0,0.0,0.0,0.0,0.0,0.0,0.0,0.0,0.0,0.0,0.0,0.0,0.0,0.0,0.0,0.0,0.0,0.0,0.0,0.0,0.0,0.0,0.0,0.0,0.0,0.0,0.0,0.0,0.0,0.0,0.0,0.0,0.0,0.0,0.0,0.0,0.0,0.0,0.0,0.0,0.0,0.0,0.0,0.0,0.0,0.0,0.0,0.0,0.0,0.0,0.0,0.0,0.0,0.0,0.0,0.0,0.0,0.0,0.0,0.0,0.0,0.0,0.0,0.0,0.0,0.0,0.0,0.0,0.0,0.0,0.0,0.0,0.0,0.0,0.0,0.0,0.0,0.0,0.0,0.0,0.0,0.0,0.0,0.0,0.0,0.0,0.0,0.0,0.0,0.0,0.0,0.0,0.0,0.0,0.0,0.0,0.0,0.0,0.0,0.0,0.0,0.0,0.0,0.0,0.0,0.0,0.0,0.0,0.0,0.0,0.0,0.0,0.0,0.0,0.0,0.0,0.0,0.0,0.0,0.0,0.0,0.0,0.0,0.0,0.0,0.0,0.0,0.0,0.0,0.0,0.0,0.0,0.0,0.0,0.0,0.0,0.0,0.0,0.0,0.0,0.0,0.0,0.0,0.0,0.0,0.0,0.0,0.0,0.0,0.0,0.0,0.0,0.0,0.0,0.0,0.0,0.0,0.0,0.0,0.0,0.0,0.0,0.0,0.0,0.0,0.0,0.0,0.0,0.0,0.0,0.0,0.0,0.0,0.0,0.0,0.0,0.0,0.0,0.0,0.0,0.0,0.0,0.0,0.0,0.0,0.0,0.0,0.0,0.0,0.0,0.0,0.0,0.0,0.0,0.0,0.0,0.0,0.0,0.0,0.0,0.0,0.0,0.0,0.0,0.0,0.0,0.0,0.0,0.0,0.0,0.0,0.0,0.0,0.0,0.0,0.0,0.0,0.0,0.0,0.0,0.0,0.0,0.0,0.0,0.0,0.0,0.0,0.0,0.0,0.0,0.0,0.0,0.0,0.0,0.0,0.0,0.0,0.0,0.0,0.0,0.0,0.0,0.0,0.0,0.0,0.0,0.0,0.0,0.0,0.0,0.0,0.0,0.0,0.0,0.0,0.0,0.0,0.0,0.0,0.0,0.0,0.0,0.0,0.0,0.0,0.0,0.0,0.0,0.0,0.0,0.0,0.0,0.0,0.0,0.0,0.0,0.0,0.0,0.0,0.0,0.0,0.0,0.0,0.0,0.0,0.0,0.0,0.0,0.0,0.0,0.0,0.0,0.0,0.0,0.0,0.0,0.0,0.0,0.0,0.0,0.0,0.0,0.0,0.0,0.0,0.0,0.0,0.0,0.0,0.0,0.0,0.0,0.0,0.0,0.0,0.0,0.0,0.0,0.0,0.0,0.0,0.0,0.0,0.0,0.0,0.0,0.0,0.0,0.0,0.0,0.0,0.0,0.0,0.0,0.0,0.0,0.0,0.0,0.0,0.0,0.0,0.0,0.0,0.0,0.0,0.0,0.0,0.0,0.0,0.0,0.0,0.0,0.0,0.0,0.0,0.0,0.0,0.0,0.0,0.0,0.0,0.0,0.0,0.0,0.0,0.0,0.0,0.0,0.0,0.0,0.0,0.0,0.0,0.0,0.0,0.0,0.0,0.0,0.0,0.0,0.0,0.0,0.0,0.0,0.0,0.0,0.0,0.0,0.0,0.0,0.0,0.0,0.0,0.0,0.0,0.0,0.0,0.0,0.0,0.0,0.0,0.0,0.0,0.0,0.0,0.0,0.0,0.0,0.0,0.0,0.0,0.0,0.0,0.0,0.0,0.0,0.0,0.0,0.0,0.0,0.0,0.0,0.0,0.0,0.0,0.0,0.0,0.0,0.0,0.0,0.0,0.0,0.0,0.0,0.0,0.0,0.0,0.0,0.0,0.0,0.0,0.0,0.0,0.0,0.0,0.0,0.0,0.0,0.0,0.0,0.0,0.0,0.0,0.0,0.0,0.0,0.0,0.0,0.0,0.0,0.0,0.0,0.0,0.0,0.0,0.0,0.0,0.0,0.0,0.0,0.0,0.0,0.0,0.0,0.0,0.0,0.0,0.0,0.0,0.0,0.0,0.0,0.0,0.0,0.0,0.0,0.0,0.0,0.0,0.0,0.0,0.0,0.0,0.0,0.0,0.0,0.0,0.0,0.0,0.0,0.0,0.0,0.0,0.0,0.0,0.0,0.0,0.0,0.0,0.0,0.0,0.0,0.0,0.0,0.0,0.0,0.0,0.0,0.0,0.0,0.0,0.0,0.0,0.0,0.0,0.0,0.0,0.0,0.0,0.0,0.0,0.0,0.0,0.0,0.0,0.0,0.0,0.0,0.0,0.0,0.0,0.0,0.0,0.0,0.0,0.0,0.0,0.0,0.0,0.0,0.0,0.0,0.0,0.0,0.0,0.0,0.0,0.0,0.0,0.0,0.0,0.0,0.0,0.0,0.0,0.0,0.0,0.0,0.0,0.0,0.0,0.0,0.0,0.0,0.0,0.0,0.0,0.0,0.0,0.0,0.0,0.0,0.0,0.0,0.0,0.0,0.0,0.0,0.0,0.0,0.0,0.0,0.0,0.0,0.0,0.0,0.0,0.0,0.0,0.0,0.0,0.0,0.0,0.0,0.0,0.0,0.0,0.0,0.0,0.0,0.0,0.0,0.0,0.0,0.0,0.0,0.0,0.0,0.0,0.0,0.0,0.0,0.0,0.0,0.0,0.0,0.0,0.0,0.0,0.0,0.0,0.0,0.0,0.0,0.0,0.0,0.0,0.0,0.0,0.0,0.0,0.0,0.0,0.0,0.0,0.0,0.0,0.0,0.0,0.0,0.0,0.0,0.0,0.0,0.0,0.0,0.0,0.0,0.0,0.0,0.0,0.0,0.0,0.0,0.0,0.0,0.0,0.0,0.0,0.0,0.0,0.0,0.0,0.0,0.0,0.0,0.0,0.0,0.0,0.0,0.0,0.0,0.0,0.0,0.0,0.0,0.0,0.0,0.0,0.0,0.0,0.0,0.0,0.0,0.0,0.0,0.0,0.0,0.0,0.0,0.0,0.0,0.0,0.0,0.0,0.0,0.0,0.0,0.0,0.0,0.0,0.0,0.0,0.0,0.0,0.0,0.0,0.0,0.0,0.0,0.0,0.0,0.0,0.0,0.0,0.0,0.0,0.0,0.0,0.0,0.0,0.0,0.0,0.0,0.0,0.0,0.0,0.0,0.0,0.0,0.0,0.0,0.0,0.0,0.0,0.0,0.0,0.0,0.0,0.0,0.0,0.0,0.0,0.0,0.0,0.0,0.0,0.0,0.0,0.0,0.0,0.0,0.0,0.0,0.0,0.0,0.0,0.0,0.0,0.0,0.0,0.0,0.0,0.0,0.0,0.0,0.0,0.0,0.0,0.0,0.0,0.0,0.0,0.0,0.0,0.0,0.0,0.0,0.0,0.0,0.0,0.0,0.0,0.0,0.0,0.0,0.0,0.0,0.0,0.0,0.0,0.0,0.0,0.0,0.0,0.0,0.0,0.0,0.0,0.0,0.0,0.0,0.0,0.0,0.0,0.0,0.0,0.0,0.0,0.0,0.0,0.0,0.0,0.0,0.0,0.0,0.0,0.0,0.0,0.0,0.0,0.0,0.0,0.0,0.0,0.0,0.0,0.0,0.0,0.0,0.0,0.0,0.0,0.0,0.0,0.0,0.0,0.0,0.0,0.0,0.0,0.0,0.0,0.0,0.0,0.0,0.0,0.0,0.0,0.0,0.0,0.0,0.0,0.0,0.0,0.0,0.0,0.0,0.0,0.0,0.0,0.0,0.0,0.0,0.0,0.0,0.0,0.0,0.0,0.0,0.0,0.0,0.0,0.0,0.0,0.0,0.0,0.0,0.0,0.0,0.0,0.0,0.0,0.0,0.0,0.0,0.0,0.0,0.0,0.0,0.0,0.0,0.0,0.0,0.0,0.0,0.0,0.0,0.0,0.0,0.0,0.0,0.0,0.0,0.0,0.0,0.0,0.0,0.0,0.0,0.0,0.0,-0.8476,0.0,0.0,0.0,0.0,0.0,0.0,0.0,0.0,0.0,0.0,0.0,0.0,0.0,0.0,0.0,0.0,0.0,0.0,0.0,0.0,0.0,0.0,0.0,0.0,0.0,0.0,0.0,0.0,0.0,0.0,0.0,0.0,0.0,0.0,0.0,0.0,0.0,0.0,0.0,0.0,0.0,0.0,0.0,0.0,0.0,0.0,0.0,0.0,0.0,0.0,0.0,0.0,0.0,0.0,0.0,0.0,0.0,0.0,0.0,0.0,0.0,0.0,0.0,0.0,0.0,0.0,0.0,0.0,0.0,0.0,0.0,0.0,0.0,0.0,0.0,0.0,0.0,0.0,0.0,0.0,0.0,0.0,0.0,0.0,0.0,0.0,0.0,0.0,0.0,0.0,0.0,0.0,0.0,0.0,0.0,0.0,0.0,0.0,0.0,0.0,0.0,0.0,0.0,0.0,0.0,0.0,0.0,0.0,0.0,0.0,-0.8542,-0.8602,-0.845,-0.8434,-0.8606,0.0,0.0,0.0,0.0,0.0,0.0,0.0,0.0,0.0,0.0,0.0,0.0,0.0,0.0,0.0,0.0,0.0,0.0,0.0,0.0,0.0,0.0,0.0,0.0,0.0,0.0,0.0,0.0,0.0,0.0,0.0,0.0,0.0,0.0,0.0,0.0,0.0,0.0,0.0,0.0,0.0,0.0,0.0,0.0,0.0,0.0,0.0,0.0,0.0,0.0,0.0,0.0,0.0,0.0,0.0,0.0,0.0,0.0,0.0,0.0,0.0,0.0,0.0,0.0,0.0,0.0,0.0,0.0,0.0,0.0,0.0,0.0,0.0,0.0,0.0,0.0,0.0,0.0,0.0,0.0,0.0,0.0,0.0,0.0,0.0,0.0,0.0,0.0,0.0,0.0,0.0,0.0,0.0,0.0,0.0,0.0,0.0,0.0,0.0,0.0,0.0,0.0,0.0,0.0,0.0,0.0,0.0,0.0,0.0,0.0,0.0,0.0,-0.8567,-0.8606,-0.8812,0.0,0.0,0.0,0.0,0.0,0.0,0.0,0.0,0.0,0.0,0.0,0.0,0.0,0.0,0.0,0.0,0.0,0.0,0.0,0.0,0.0,0.0,0.0,0.0,0.0,0.0,0.0,0.0,0.0,0.0,0.0,0.0,0.0,0.0,0.0,0.0,0.0,0.0,0.0,0.0,0.0,0.0,0.0,0.0,0.0,0.0,0.0,0.0,0.0,0.0,0.0,0.0,0.0,0.0,0.0,0.0,0.0,0.0,0.0,0.0,0.0,0.0,0.0,0.0,0.0,0.0,0.0,0.0,0.0,0.0,0.0,0.0,0.0,0.0,0.0,0.0,0.0,0.0,0.0,0.0,0.0,0.0,0.0,0.0,0.0,0.0,0.0,0.0,0.0,0.0,0.0,0.0,0.0,0.0,0.0,0.0,0.0,0.0,0.0,0.0,0.0,0.0,0.0,0.0,0.0,0.0,0.0,0.0,0.0,0.0,-0.8736,-0.8863,-0.8852,0.0,-0.8875,0.0,0.0,0.0,0.0,0.0,0.0,0.0,0.0,0.0,0.0,0.0,0.0,0.0,0.0,0.0,0.0,0.0,0.0,0.0,0.0,0.0,0.0,0.0,0.0,0.0,0.0,0.0,0.0,0.0,0.0,0.0,0.0,0.0,0.0,0.0,0.0,0.0,0.0,0.0,0.0,0.0,0.0,0.0,0.0,0.0,0.0,0.0,0.0,0.0,0.0,0.0,0.0,0.0,0.0,0.0,0.0,0.0,0.0,0.0,0.0,0.0,0.0,0.0,0.0,0.0,0.0,0.0,0.0,0.0,0.0,0.0,0.0,0.0,0.0,0.0,0.0,0.0,0.0,0.0,0.0,0.0,0.0,0.0,0.0,0.0,0.0,0.0,0.0,0.0,0.0,0.0,0.0,0.0,0.0,0.0,0.0,0.0,0.0,0.0,0.0,0.0,0.0,0.0,0.0,0.0,0.0,0.0,0.0,0.0,0.0,-0.8434,-0.8532,-0.8508,-0.8461,0.0,0.0,0.0,0.0,0.0,0.0,0.0,0.0,0.0,0.0,0.0,0.0,0.0,0.0,0.0,0.0,0.0,0.0,0.0,0.0,0.0,0.0,0.0,0.0,0.0,0.0,0.0,0.0,0.0,0.0,0.0,0.0,0.0,0.0,0.0,0.0,0.0,0.0,0.0,0.0,0.0,0.0,0.0,0.0,0.0,0.0,0.0,0.0,0.0,0.0,0.0,0.0,0.0,0.0,0.0,0.0,0.0,0.0,0.0,0.0,0.0,0.0,0.0,0.0,0.0,0.0,0.0,0.0,0.0,0.0,0.0,0.0,0.0,0.0,0.0,0.0,0.0,0.0,0.0,0.0,0.0,0.0,0.0,0.0,0.0,0.0,0.0,0.0,0.0,0.0,0.0,0.0,0.0,0.0,0.0,0.0,0.0,0.0,0.0,0.0,0.0,0.0,0.0,0.0,0.0,0.0,0.0,0.0,0.0,0.0,-0.8133,-0.814,-0.8215,-0.8232,-0.82,-0.8078,0.0,0.0,0.0,0.0,0.0,0.0,0.0,0.0,0.0,0.0,0.0,0.0,0.0,0.0,0.0,0.0,0.0,0.0,0.0,0.0,0.0,0.0,0.0,0.0,0.0,0.0,0.0,0.0,0.0,0.0,0.0,0.0,0.0,0.0,0.0,0.0,0.0,0.0,0.0,0.0,0.0,0.0,0.0,0.0,0.0,0.0,0.0,0.0,0.0,0.0,0.0,0.0,0.0,0.0,0.0,0.0,0.0,0.0,0.0,0.0,0.0,0.0,0.0,0.0,0.0,0.0,0.0,0.0,0.0,0.0,0.0,0.0,0.0,0.0,0.0,0.0,0.0,0.0,0.0,0.0,0.0,0.0,0.0,0.0,0.0,0.0,0.0,0.0,0.0,0.0,0.0,0.0,0.0,0.0,0.0,0.0,0.0,0.0,0.0,0.0,0.0,0.0,0.0,0.0,0.0,0.0,0.0,0.0,-0.802,-0.7945,-0.7945,-0.8005,-0.826,-0.8267,0.0,0.0,0.0,0.0,0.0,0.0,0.0,0.0,0.0,0.0,0.0,0.0,0.0,0.0,0.0,0.0,0.0,0.0,0.0,0.0,0.0,0.0,0.0,0.0,0.0,0.0,0.0,0.0,0.0,0.0,0.0,0.0,0.0,0.0,0.0,0.0,0.0,0.0,0.0,0.0,0.0,0.0,0.0,0.0,0.0,0.0,0.0,0.0,0.0,0.0,0.0,0.0,0.0,0.0,0.0,0.0,0.0,0.0,0.0,0.0,0.0,0.0,0.0,0.0,0.0,0.0,0.0,0.0,0.0,0.0,0.0,0.0,0.0,0.0,0.0,0.0,0.0,0.0,0.0,0.0,0.0,0.0,0.0,0.0,0.0,0.0,0.0,0.0,0.0,0.0,0.0,0.0,0.0,0.0,0.0,0.0,0.0,0.0,0.0,0.0,0.0,0.0,0.0,0.0,0.0,0.0,0.0,0.0,0.0,-0.7746,-0.7539,-0.7553,-0.7717,-0.7628,-0.7584,0.0,0.0,0.0,0.0,0.0,0.0,0.0,0.0,0.0,0.0,0.0,0.0,0.0,0.0,0.0,0.0,0.0,0.0,0.0,0.0,0.0,0.0,0.0,0.0,0.0,0.0,0.0,0.0,0.0,0.0,0.0,0.0,0.0,0.0,0.0,0.0,0.0,0.0,0.0,0.0,0.0,0.0,0.0,0.0,0.0,0.0,0.0,0.0,0.0,0.0,0.0,0.0,0.0,0.0,0.0,0.0,0.0,0.0,0.0,0.0,0.0,0.0,0.0,0.0,0.0,0.0,0.0,0.0,0.0,0.0,0.0,0.0,0.0,0.0,0.0,0.0,0.0,0.0,0.0,0.0,0.0,0.0,0.0,0.0,0.0,0.0,0.0,0.0,0.0,0.0,0.0,0.0,0.0,0.0,0.0,0.0,0.0,0.0,0.0,0.0,0.0,0.0,0.0,0.0,0.0,0.0,0.0,0.0,0.0,-0.739,0.0,-0.7249,-0.736,-0.7298,-0.7266,0.0,0.0,0.0,0.0,0.0,0.0,0.0,0.0,0.0,0.0,0.0,0.0,0.0,0.0,0.0,0.0,0.0,0.0,0.0,0.0,0.0,0.0,0.0,0.0,0.0,0.0,0.0,0.0,0.0,0.0,0.0,0.0,0.0,0.0,0.0,0.0,0.0,0.0,0.0,0.0,0.0,0.0,0.0,0.0,0.0,0.0,0.0,0.0,0.0,0.0,0.0,0.0,0.0,0.0,0.0,0.0,0.0,0.0,0.0,0.0,0.0,0.0,0.0,0.0,0.0,0.0,0.0,0.0,0.0,0.0,0.0,0.0,0.0,0.0,0.0,0.0,0.0,0.0,0.0,0.0,0.0,0.0,0.0,0.0,0.0,0.0,0.0,0.0,0.0,0.0,0.0,0.0,0.0,0.0,0.0,0.0,0.0,0.0,0.0,0.0,0.0,0.0,0.0,0.0,0.0,0.0,0.0,0.0,-0.7877,-0.7007,-0.7066,-0.7119,-0.6946,-0.7391,-0.7456,0.0,0.0,0.0,0.0,0.0,0.0,0.0,0.0,0.0,0.0,0.0,0.0,0.0,0.0,0.0,0.0,0.0,0.0,0.0,0.0,0.0,0.0,0.0,0.0,0.0,0.0,0.0,0.0,0.0,0.0,0.0,0.0,0.0,0.0,0.0,0.0,0.0,0.0,0.0,0.0,0.0,0.0,0.0,0.0,0.0,0.0,0.0,0.0,0.0,0.0,0.0,0.0,0.0,0.0,0.0,0.0,0.0,0.0,0.0,0.0,0.0,0.0,0.0,0.0,0.0,0.0,0.0,0.0,0.0,0.0,0.0,0.0,0.0,0.0,0.0,0.0,0.0,0.0,0.0,0.0,0.0,0.0,0.0,0.0,0.0,0.0,0.0,0.0,0.0,0.0,0.0,0.0,0.0,0.0,0.0,0.0,0.0,0.0,0.0,0.0,0.0,0.0,0.0,0.0,0.0,0.0,0.0,0.0,0.0,-0.8157,-0.8044,-0.8044,-0.8125,-0.8144,-0.8192,0.0,0.0,0.0,0.0,0.0,0.0,0.0,0.0,0.0,0.0,0.0,0.0,0.0,0.0,0.0,0.0,0.0,0.0,0.0,0.0,0.0,0.0,0.0,0.0,0.0,0.0,0.0,0.0,0.0,0.0,0.0,0.0,0.0,0.0,0.0,0.0,0.0,0.0,0.0,0.0,0.0,0.0,0.0,0.0,0.0,0.0,0.0,0.0,0.0,0.0,0.0,0.0,0.0,0.0,0.0,0.0,0.0,0.0,0.0,0.0,0.0,0.0,0.0,0.0,0.0,0.0,0.0,0.0,0.0,0.0,0.0,0.0,0.0,0.0,0.0,0.0,0.0,0.0,0.0,0.0,0.0,0.0,0.0,0.0,0.0,0.0,0.0,0.0,0.0,0.0,0.0,0.0,0.0,0.0,0.0,0.0,0.0,0.0,0.0,0.0,0.0,0.0,0.0,0.0,0.0,0.0,0.0,0.0,0.0,-0.93,-0.8486,-0.8134,-0.83,-0.8202,-0.8384,-0.8877,0.0,0.0,0.0,0.0,0.0,0.0,0.0,0.0,0.0,0.0,0.0,0.0,0.0,0.0,0.0,0.0,0.0,0.0,0.0,0.0,0.0,0.0,0.0,0.0,0.0,0.0,0.0,0.0,0.0,0.0,0.0,0.0,0.0,0.0,0.0,0.0,0.0,0.0,0.0,0.0,0.0,0.0,0.0,0.0,0.0,0.0,0.0,0.0,0.0,0.0,0.0,0.0,0.0,0.0,0.0,0.0,0.0,0.0,0.0,0.0,0.0,0.0,0.0,0.0,0.0,0.0,0.0,0.0,0.0,0.0,0.0,0.0,0.0,0.0,0.0,0.0,0.0,0.0,0.0,0.0,0.0,0.0,0.0,0.0,0.0,0.0,0.0,0.0,0.0,0.0,0.0,0.0,0.0,0.0,0.0,0.0,0.0,0.0,0.0,0.0,0.0,0.0,0.0,0.0,0.0,0.0,0.0,0.0,-1.0322,-0.8465,-0.7592,-0.7785,-0.7814,-0.8168,0.0,0.0,0.0,0.0,0.0,0.0,0.0,0.0,0.0,0.0,0.0,0.0,0.0,0.0,0.0,0.0,0.0,0.0,0.0,0.0,0.0,0.0,0.0,0.0,0.0,0.0,0.0,0.0,0.0,0.0,0.0,0.0,0.0,0.0,0.0,0.0,0.0,0.0,0.0,0.0,0.0,0.0,0.0,0.0,0.0,0.0,0.0,0.0,0.0,0.0,0.0,0.0,0.0,0.0,0.0,0.0,0.0,0.0,0.0,0.0,0.0,0.0,0.0,0.0,0.0,0.0,0.0,0.0,0.0,0.0,0.0,0.0,0.0,0.0,0.0,0.0,0.0,0.0,0.0,0.0,0.0,0.0,0.0,0.0,0.0,0.0,0.0,0.0,0.0,0.0,0.0,0.0,0.0,0.0,0.0,0.0,0.0,0.0,0.0,0.0,0.0,0.0,0.0,0.0,0.0,0.0,0.0,0.0,0.0,-0.9396,-0.803,-0.8008,-0.9497,-0.908,-0.9255,0.0,0.0,0.0,0.0,0.0,0.0,0.0,0.0,0.0,0.0,0.0,0.0,0.0,0.0,0.0,0.0,0.0,0.0,0.0,0.0,0.0,0.0,0.0,0.0,0.0,0.0,0.0,0.0,0.0,0.0,0.0,0.0,0.0,0.0,0.0,0.0,0.0,0.0,0.0,0.0,0.0,0.0,0.0,0.0,0.0,0.0,0.0,0.0,0.0,0.0,0.0,0.0,0.0,0.0,0.0,0.0,0.0,0.0,0.0,0.0,0.0,0.0,0.0,0.0,0.0,0.0,0.0,0.0,0.0,0.0,0.0,0.0,0.0,0.0,0.0,0.0,0.0,0.0,0.0,0.0,0.0,0.0,0.0,0.0,0.0,0.0,0.0,0.0,0.0,0.0,0.0,0.0,0.0,0.0,0.0,0.0,0.0,0.0,0.0,0.0,0.0,0.0,0.0,0.0,0.0,0.0,0.0,0.0,-0.9287,-0.9415,-0.8271,-0.8537,-1.0335,-0.9398,-0.9323,0.0,0.0,0.0,0.0,0.0,0.0,0.0,0.0,0.0,0.0,0.0,0.0,0.0,0.0,0.0,0.0,0.0,0.0,0.0,0.0,0.0,0.0,0.0,0.0,0.0,0.0,0.0,0.0,0.0,0.0,0.0,0.0,0.0,0.0,0.0,0.0,0.0,0.0,0.0,0.0,0.0,0.0,0.0,0.0,0.0,0.0,0.0,0.0,0.0,0.0,0.0,0.0,0.0,0.0,0.0,0.0,0.0,0.0,0.0,0.0,0.0,0.0,0.0,0.0,0.0,0.0,0.0,0.0,0.0,0.0,0.0,0.0,0.0,0.0,0.0,0.0,0.0,0.0,0.0,0.0,0.0,0.0,0.0,0.0,0.0,0.0,0.0,0.0,0.0,0.0,0.0,0.0,0.0,0.0,0.0,0.0,0.0,0.0,0.0,0.0,0.0,0.0,0.0,0.0,0.0,0.0,0.0,0.0,-0.9425,-0.988,-0.886,-0.8953,-1.0288,-0.9169,-0.8939,0.0,0.0,0.0,0.0,0.0,0.0,0.0,0.0,0.0,0.0,0.0,0.0,0.0,0.0,0.0,0.0,0.0,0.0,0.0,0.0,0.0,0.0,0.0,0.0,0.0,0.0,0.0,0.0,0.0,0.0,0.0,0.0,0.0,0.0,0.0,0.0,0.0,0.0,0.0,0.0,0.0,0.0,0.0,0.0,0.0,0.0,0.0,0.0,0.0,0.0,0.0,0.0,0.0,0.0,0.0,0.0,0.0,0.0,0.0,0.0,0.0,0.0,0.0,0.0,0.0,0.0,0.0,0.0,0.0,0.0,0.0,0.0,0.0,0.0,0.0,0.0,0.0,0.0,0.0,0.0,0.0,0.0,0.0,0.0,0.0,0.0,0.0,0.0,0.0,0.0,0.0,0.0,0.0,0.0,0.0,0.0,0.0,0.0,0.0,0.0,0.0,0.0,0.0,0.0,0.0,0.0,0.0,0.0,-0.9426,-0.9855,-0.886,-0.8763,-0.9685,-0.9429,-0.9663,0.0,0.0,0.0,0.0,0.0,0.0,0.0,0.0,0.0,0.0,0.0,0.0,0.0,0.0,0.0,0.0,0.0,0.0,0.0,0.0,0.0,0.0,0.0,0.0,0.0,0.0,0.0,0.0,0.0,0.0,0.0,0.0,0.0,0.0,0.0,0.0,0.0,0.0,0.0,0.0,0.0,0.0,0.0,0.0,0.0,0.0,0.0,0.0,-1.4603,0.0,0.0,0.0,0.0,0.0,0.0,0.0,0.0,0.0,0.0,0.0,0.0,0.0,0.0,0.0,0.0,0.0,0.0,0.0,0.0,0.0,0.0,0.0,0.0,0.0,0.0,0.0,0.0,0.0,0.0,0.0,0.0,0.0,0.0,0.0,0.0,0.0,0.0,0.0,0.0,0.0,0.0,0.0,0.0,0.0,0.0,0.0,0.0,0.0,0.0,0.0,0.0,0.0,0.0,0.0,0.0,0.0,0.0,0.0,-0.9741,-0.997,-0.9545,-0.9671,-1.0453,-1.0554,-1.0506,0.0,0.0,0.0,0.0,0.0,0.0,0.0,0.0,0.0,0.0,0.0,0.0,0.0,0.0,0.0,0.0,0.0,0.0,0.0,0.0,0.0,0.0,0.0,0.0,0.0,0.0,0.0,0.0,0.0,0.0,0.0,0.0,0.0,0.0,0.0,0.0,0.0,0.0,0.0,0.0,0.0,0.0,0.0,0.0,0.0,0.0,0.0,0.0,0.0,0.0,0.0,0.0,0.0,0.0,0.0,0.0,0.0,0.0,0.0,0.0,0.0,0.0,0.0,0.0,0.0,0.0,0.0,0.0,0.0,0.0,0.0,0.0,0.0,0.0,0.0,0.0,0.0,0.0,0.0,0.0,0.0,0.0,0.0,0.0,0.0,0.0,0.0,0.0,0.0,0.0,0.0,0.0,0.0,0.0,0.0,0.0,0.0,0.0,0.0,0.0,0.0,0.0,0.0,0.0,0.0,0.0,0.0,-1.0405,-1.0405,-1.0418,-1.0586,-1.1042,-1.1709,-1.1882,-1.1495,-1.048,0.0,0.0,0.0,0.0,0.0,0.0,0.0,0.0,0.0,0.0,0.0,0.0,0.0,0.0,0.0,0.0,0.0,0.0,0.0,0.0,0.0,0.0,0.0,0.0,0.0,0.0,0.0,0.0,0.0,0.0,0.0,0.0,0.0,0.0,0.0,0.0,0.0,0.0,-1.4046,-1.3755,0.0,0.0,0.0,0.0,0.0,0.0,0.0,0.0,-1.5933,0.0,0.0,0.0,0.0,0.0,0.0,0.0,0.0,0.0,0.0,0.0,0.0,0.0,0.0,0.0,0.0,0.0,0.0,0.0,0.0,0.0,0.0,0.0,0.0,0.0,0.0,0.0,0.0,0.0,0.0,0.0,0.0,0.0,0.0,0.0,0.0,0.0,0.0,0.0,0.0,0.0,0.0,0.0,0.0,0.0,0.0,0.0,0.0,0.0,0.0,0.0,0.0,0.0,0.0,0.0,0.0,-1.1692,-1.1804,-1.1832,-1.1777,-1.1919,-1.2099,-1.2361,-1.2581,-1.2858,-1.3137,0.0,0.0,0.0,0.0,0.0,0.0,0.0,0.0,0.0,0.0,0.0,0.0,0.0,0.0,0.0,0.0,0.0,0.0,0.0,0.0,0.0,0.0,0.0,0.0,0.0,0.0,0.0,0.0,0.0,0.0,0.0,0.0,0.0,0.0,0.0,0.0,0.0,0.0,0.0,-1.3283,-1.3161,0.0,0.0,0.0,0.0,0.0,0.0,0.0,0.0,-1.7528,0.0,0.0,0.0,0.0,0.0,0.0,0.0,0.0,0.0,0.0,0.0,0.0,0.0,0.0,0.0,0.0,0.0,0.0,0.0,0.0,0.0,0.0,0.0,0.0,0.0,0.0,0.0,0.0,0.0,0.0,0.0,0.0,0.0,0.0,0.0,0.0,0.0,0.0,0.0,0.0,0.0,0.0,0.0,0.0,0.0,0.0,0.0,0.0,0.0,0.0,0.0,0.0,0.0,0.0,0.0,-1.2779,-1.2457,-1.2296,-1.2255,-1.2355,-1.2631,-1.3103,-1.3375,-1.4125,0.0,0.0,0.0,0.0,0.0,0.0,0.0,0.0,0.0,0.0,0.0,0.0,0.0,0.0,0.0,0.0,0.0,0.0,0.0,0.0,0.0,0.0,0.0,0.0,0.0,0.0,0.0,0.0,0.0,0.0,0.0,0.0,0.0,0.0,0.0,0.0,0.0,0.0,0.0,0.0,-1.3494,-1.3349,-1.3893,0.0,0.0,0.0,0.0,0.0,0.0,-1.6975,-1.7062,0.0,0.0,0.0,0.0,0.0,0.0,0.0,0.0,0.0,0.0,0.0,0.0,0.0,0.0,0.0,0.0,0.0,0.0,0.0,0.0,0.0,0.0,0.0,0.0,0.0,0.0,0.0,0.0,0.0,0.0,0.0,0.0,0.0,0.0,0.0,0.0,0.0,0.0,0.0,0.0,0.0,0.0,0.0,0.0,0.0,0.0,0.0,0.0,0.0,0.0,0.0,0.0,0.0,0.0,0.0,-1.3823,-1.316,-1.2805,-1.279,-1.2878,-1.3255,-1.3901,-1.4197,-1.519,0.0,0.0,0.0,0.0,0.0,0.0,0.0,0.0,0.0,0.0,0.0,0.0,0.0,0.0,0.0,0.0,0.0,0.0,0.0,0.0,0.0,0.0,0.0,0.0,0.0,0.0,0.0,0.0,0.0,0.0,0.0,0.0,0.0,0.0,0.0,0.0,0.0,0.0,0.0,0.0,0.0,-1.3753,-1.4293,-1.5278,0.0,0.0,0.0,0.0,-1.6864,-1.6797,0.0,0.0,0.0,0.0,0.0,0.0,0.0,0.0,0.0,0.0,0.0,0.0,0.0,0.0,0.0,0.0,0.0,0.0,0.0,0.0,0.0,0.0,0.0,0.0,0.0,0.0,0.0,0.0,0.0,0.0,0.0,0.0,0.0,0.0,0.0,0.0,0.0,0.0,0.0,0.0,0.0,0.0,0.0,0.0,0.0,0.0,0.0,0.0,0.0,0.0,0.0,0.0,0.0,0.0,0.0,0.0,-1.4995,-1.4449,-1.4131,-1.4083,-1.432,-1.4503,-1.468,-1.5001,-1.5852,0.0,0.0,0.0,0.0,0.0,0.0,0.0,0.0,0.0,0.0,0.0,0.0,0.0,0.0,0.0,0.0,0.0,0.0,0.0,0.0,0.0,0.0,0.0,0.0,0.0,0.0,0.0,0.0,0.0,0.0,0.0,0.0,0.0,0.0,0.0,0.0,0.0,0.0,0.0,0.0,0.0,-1.4053,-1.5094,-1.5872,-1.6551,0.0,0.0,-1.75,-1.7331,-1.7457,0.0,0.0,0.0,0.0,0.0,0.0,0.0,0.0,0.0,0.0,0.0,0.0,0.0,0.0,0.0,0.0,0.0,0.0,0.0,0.0,0.0,0.0,0.0,0.0,0.0,0.0,0.0,0.0,0.0,0.0,0.0,0.0,0.0,0.0,0.0,0.0,0.0,0.0,0.0,0.0,0.0,0.0,0.0,0.0,0.0,0.0,0.0,0.0,0.0,0.0,0.0,0.0,0.0,0.0,0.0,-1.5943,-1.6069,-1.5173,-1.4653,-1.4574,-1.4779,-1.4934,-1.5039,-1.5313,-1.6171,0.0,0.0,0.0,0.0,0.0,0.0,0.0,0.0,0.0,0.0,0.0,0.0,0.0,0.0,0.0,0.0,0.0,0.0,0.0,0.0,0.0,0.0,0.0,0.0,0.0,0.0,0.0,0.0,0.0,0.0,0.0,0.0,0.0,0.0,0.0,0.0,0.0,0.0,0.0,0.0,0.0,0.0,-1.6134,-1.6945,0.0,0.0,0.0,-1.7933,-1.7413,0.0,0.0,0.0,0.0,0.0,0.0,0.0,0.0,0.0,0.0,0.0,0.0,0.0,0.0,0.0,0.0,0.0,0.0,0.0,0.0,0.0,0.0,0.0,0.0,0.0,0.0,0.0,0.0,0.0,0.0,0.0,0.0,0.0,0.0,0.0,0.0,0.0,0.0,0.0,0.0,0.0,0.0,0.0,0.0,0.0,0.0,0.0,0.0,0.0,0.0,0.0,0.0,0.0,0.0,0.0,0.0,0.0,-1.6884,-1.5795,-1.5222,-1.5191,-1.5475,-1.5599,-1.5561,-1.5817,0.0,0.0,0.0,0.0,0.0,0.0,0.0,0.0,0.0,0.0,0.0,0.0,0.0,0.0,0.0,0.0,0.0,0.0,0.0,0.0,0.0,0.0,0.0,0.0,0.0,0.0,0.0,-1.5595,0.0,0.0,0.0,0.0,0.0,0.0,0.0,0.0,0.0,0.0,0.0,0.0,0.0,0.0,-1.6365,-1.7017,-1.7823,-1.8347,0.0,0.0,-1.8606,-1.8035,-1.7906,-1.7912,0.0,0.0,0.0,0.0,0.0,0.0,0.0,0.0,0.0,0.0,0.0,0.0,0.0,0.0,0.0,0.0,0.0,0.0,0.0,0.0,0.0,0.0,0.0,0.0,0.0,0.0,0.0,0.0,0.0,0.0,0.0,0.0,0.0,0.0,0.0,0.0,0.0,0.0,0.0,0.0,0.0,0.0,0.0,0.0,0.0,0.0,0.0,0.0,0.0,0.0,0.0,0.0,0.0,0.0,0.0,-1.7175,-1.6548,-1.6185,-1.6202,-1.6931,-1.7059,-1.653,-1.6744,-1.7258,0.0,0.0,0.0,0.0,0.0,0.0,0.0,0.0,0.0,0.0,0.0,0.0,0.0,0.0,0.0,0.0,0.0,0.0,0.0,0.0,0.0,0.0,0.0,0.0,0.0,0.0,0.0,0.0,0.0,0.0,0.0,0.0,0.0,0.0,0.0,0.0,0.0,0.0,0.0,0.0,0.0,-1.6566,-1.7601,-1.8119,-1.8523,0.0,0.0,-1.9418,-1.9672,-1.9409,-1.9355,-1.9918,0.0,0.0,0.0,0.0,0.0,0.0,0.0,0.0,0.0,0.0,0.0,0.0,0.0,0.0,0.0,0.0,0.0,0.0,0.0,0.0,0.0,0.0,0.0,0.0,0.0,0.0,0.0,0.0,0.0,0.0,0.0,0.0,0.0,0.0,0.0,0.0,0.0,0.0,0.0,0.0,0.0,0.0,0.0,0.0,0.0,0.0,0.0,0.0,0.0,0.0,0.0,0.0,0.0,-1.7684,-1.744,-1.6946,-1.6427,-1.5965,-1.6803,-1.697,-1.6363,-1.6491,-1.7157,0.0,0.0,0.0,0.0,0.0,0.0,0.0,0.0,0.0,0.0,0.0,0.0,0.0,0.0,0.0,0.0,0.0,0.0,0.0,0.0,0.0,0.0,0.0,0.0,0.0,0.0,0.0,0.0,-1.594,-1.604,-1.6597,0.0,0.0,0.0,0.0,0.0,0.0,0.0,0.0,0.0,0.0,-1.8572,-1.8971,-1.9158,0.0,0.0,-1.9278,-1.9427,-1.9509,-1.9773,-2.0143,-2.0662,-2.129,0.0,0.0,0.0,0.0,0.0,0.0,0.0,0.0,0.0,0.0,0.0,0.0,0.0,0.0,0.0,0.0,0.0,0.0,0.0,0.0,0.0,0.0,0.0,0.0,0.0,0.0,0.0,0.0,0.0,0.0,0.0,0.0,0.0,0.0,0.0,0.0,0.0,0.0,0.0,0.0,0.0,0.0,0.0,0.0,0.0,0.0,0.0,0.0,0.0,0.0,0.0,0.0,-1.8018,-1.7779,-1.7258,-1.6742,-1.6213,-1.7028,-1.7177,-1.6573,-1.6668,-1.7325,0.0,0.0,0.0,0.0,0.0,0.0,0.0,0.0,0.0,0.0,0.0,0.0,0.0,0.0,0.0,0.0,0.0,0.0,0.0,0.0,0.0,0.0,0.0,0.0,0.0,0.0,0.0,0.0,-1.6505,-1.6819,-1.7368,0.0,0.0,0.0,0.0,0.0,0.0,0.0,0.0,0.0,0.0,-1.9611,-1.9572,-1.9585,-1.9548,-1.9353,-1.9565,-1.9819,-1.9917,-2.0398,-2.0893,-2.131,0.0,0.0,0.0,0.0,0.0,0.0,0.0,0.0,0.0,0.0,0.0,0.0,0.0,0.0,0.0,0.0,0.0,0.0,0.0,0.0,0.0,0.0,0.0,0.0,0.0,0.0,0.0,0.0,0.0,0.0,-1.4013,0.0,0.0,0.0,0.0,0.0,0.0,0.0,0.0,0.0,0.0,0.0,0.0,0.0,0.0,0.0,0.0,0.0,0.0,0.0,0.0,0.0,0.0,-1.8346,-1.8191,-1.7592,-1.7267,-1.7381,-1.7959,-1.8005,-1.7426,-1.7569,-1.8015,-1.8708,0.0,0.0,0.0,0.0,0.0,0.0,0.0,0.0,0.0,0.0,0.0,0.0,0.0,0.0,0.0,0.0,0.0,0.0,0.0,0.0,0.0,0.0,0.0,0.0,0.0,0.0,-1.6441,-1.7227,-1.7799,0.0,0.0,0.0,0.0,0.0,0.0,0.0,0.0,0.0,0.0,-1.8778,-1.9193,-1.907,-1.9157,-1.9366,-1.9583,-2.017,-2.0744,-2.1245,-2.1441,-2.166,0.0,0.0,0.0,0.0,0.0,0.0,0.0,0.0,0.0,0.0,0.0,0.0,0.0,0.0,0.0,0.0,0.0,0.0,0.0,0.0,0.0,0.0,0.0,0.0,0.0,0.0,0.0,-1.5994,-1.6112,0.0,0.0,0.0,0.0,0.0,0.0,0.0,0.0,0.0,0.0,0.0,-1.4644,-1.4951,0.0,0.0,0.0,0.0,0.0,0.0,0.0,0.0,0.0,0.0,0.0,0.0,-1.9327,-1.9186,-1.906,-1.8804,-1.8436,-1.907,-1.9177,-1.8637,-1.8562,-1.8943,-1.9735,0.0,0.0,0.0,0.0,0.0,0.0,0.0,0.0,0.0,0.0,0.0,0.0,0.0,0.0,0.0,0.0,0.0,0.0,0.0,0.0,0.0,0.0,0.0,0.0,0.0,-1.7036,0.0,0.0,0.0,0.0,0.0,0.0,0.0,0.0,0.0,0.0,0.0,-1.8574,-1.8009,-1.9118,-1.9976,-1.9913,-2.0038,-2.0212,0.0,0.0,0.0,0.0,0.0,0.0,0.0,0.0,0.0,0.0,0.0,0.0,0.0,0.0,-2.4773,-2.4842,-2.4979,-2.5107,-2.5234,0.0,0.0,0.0,0.0,0.0,0.0,0.0,0.0,0.0,0.0,0.0,0.0,0.0,0.0,-1.6904,0.0,-1.5609,0.0,0.0,0.0,0.0,0.0,0.0,0.0,0.0,-1.4359,-1.4198,-1.4344,-1.464,-1.4983,0.0,-1.566,-1.6455,0.0,0.0,0.0,0.0,0.0,0.0,0.0,0.0,-1.9983,-1.9876,-1.9698,-1.9436,-1.9076,-1.9494,-1.9554,-1.9202,-1.9386,-1.9756,-2.036,-2.1088,-2.151,0.0,0.0,0.0,0.0,0.0,0.0,0.0,0.0,0.0,0.0,0.0,0.0,0.0,0.0,0.0,0.0,0.0,0.0,0.0,0.0,0.0,0.0,0.0,-1.8052,0.0,0.0,0.0,0.0,0.0,0.0,0.0,0.0,0.0,-1.7493,-1.8459,-1.9061,-1.8503,-1.9716,-2.0648,-2.0535,0.0,0.0,0.0,0.0,0.0,0.0,0.0,-2.22,-2.2787,-2.316,-2.3621,-2.4405,-2.4693,-2.4952,-2.5433,0.0,0.0,-2.5333,-2.5473,-2.5627,-2.5723,-2.5671,-2.5575,-2.5424,-2.467,-2.3937,0.0,0.0,0.0,0.0,0.0,0.0,0.0,0.0,-1.8867,-1.8734,0.0,-1.6974,0.0,0.0,0.0,0.0,0.0,-1.4179,0.0,0.0,-1.3886,-1.3763,-1.4368,-1.428,-1.4884,-1.6158,-1.6142,-1.6832,-1.8093,-1.6998,0.0,0.0,0.0,0.0,0.0,0.0,-2.0302,-2.0258,-1.9599,-1.9269,-1.9407,-1.9353,-1.9311,-1.9341,-2.0047,-2.0479,-2.0572,-2.1317,-2.1708,-2.1708,-2.1724,0.0,0.0,0.0,0.0,0.0,0.0,0.0,0.0,0.0,0.0,0.0,0.0,0.0,0.0,0.0,0.0,0.0,0.0,0.0,0.0,-1.946,0.0,0.0,0.0,0.0,0.0,0.0,0.0,0.0,0.0,0.0,-1.8729,-1.9433,-1.9938,-1.9624,0.0,0.0,0.0,0.0,-2.0945,-2.122,-2.1269,-2.1402,-2.1787,-2.2318,-2.2729,-2.2905,0.0,0.0,-2.5067,-2.5218,-2.5493,-2.6301,-2.6453,-2.6289,-2.5655,-2.5663,-2.5857,-2.6307,-2.6188,-2.5998,-2.5843,-2.5253,-2.4513,-2.6674,0.0,0.0,0.0,0.0,-2.1703,-2.1023,-1.9728,-1.8777,-1.8558,-1.8758,-1.7321,0.0,0.0,0.0,0.0,0.0,0.0,-1.4449,-1.412,-1.485,-1.4996,-1.4611,-1.6121,-1.6707,-1.6462,-1.7356,-1.7972,-1.8332,-1.8378,-1.8629,-1.9093,0.0,0.0,0.0,0.0,-2.1365,-2.1333,-2.1152,-2.1081,-2.1135,-2.1094,-2.1066,-2.105,-2.1379,-2.1551,-2.1582,-2.1797,-2.1911,-2.1928,-2.1928,0.0,0.0,0.0,0.0,0.0,0.0,0.0,0.0,0.0,0.0,0.0,0.0,0.0,0.0,0.0,0.0,0.0,0.0,0.0,-1.8759,-1.9113,-1.9565,0.0,0.0,0.0,0.0,0.0,0.0,0.0,0.0,0.0,-2.0118,-2.0464,-2.0526,0.0,0.0,-2.1264,-2.1118,-2.124,-2.1572,-2.2119,-2.2235,0.0,-2.254,-2.2608,-2.2834,-2.3439,-2.4448,-2.5322,-2.576,-2.5734,-2.5859,-2.6297,-2.6431,-2.646,-2.6469,-2.6596,-2.6731,-2.681,-2.6762,-2.6685,-2.663,-2.5941,-2.5268,-2.8161,-2.71,-2.5892,-2.4609,-2.3326,-2.2942,-2.2303,-2.144,-2.0096,-1.9606,-1.9653,-1.7939,-1.7164,-1.7114,-1.7079,0.0,0.0,0.0,-1.5095,-1.4269,-1.548,-1.5721,-1.5251,-1.678,-1.7387,-1.7101,-1.7799,-1.8284,-1.8561,-1.9112,-1.9469,-1.9618,0.0,0.0,-2.1421,-2.1742,-2.1899,-2.1945,-2.2243,-2.2423,-2.2452,-2.2737,-2.2887,-2.2856,-2.296,-2.2988,-2.3005,-2.2733,-2.2582,-2.257,-2.2255,-2.2178,0.0,0.0,0.0,0.0,0.0,0.0,0.0,0.0,0.0,0.0,0.0,-2.2232,-2.1915,0.0,0.0,0.0,-2.0763,-2.0392,-2.0146,-2.0555,0.0,0.0,0.0,0.0,0.0,0.0,0.0,-2.2562,-2.2343,-2.2004,-2.1486,-2.1678,-2.1433,-2.0239,-2.107,-2.1688,-2.1399,0.0,-2.1715,-2.2073,-2.2355,-2.2605,-2.2743,-2.3071,-2.3554,-2.4476,-2.5307,-2.5879,-2.6056,-2.6002,-2.6002,-2.6233,-2.6379,-2.6498,-2.6738,-2.6989,-2.7067,-2.6937,-2.6925,-2.6925,-2.6925,-2.6257,-2.5651,-2.9669,-2.9444,-2.7719,-2.6496,-2.5634,-2.4701,-2.3853,-2.3053,-2.2163,-2.1348,-2.0465,-1.8772,-1.7938,-1.779,-1.7634,0.0,-1.63,-1.6225,-1.5705,-1.4938,-1.5786,-1.6089,-1.5945,-1.6743,-1.7375,-1.7904,-1.7771,-1.8083,-1.8815,-1.9479,-2.0121,-2.0719,-2.1156,-2.1708,-2.2354,-2.2186,-2.2132,-2.2367,-2.3006,-2.3363,-2.3435,-2.4152,-2.4537,-2.452,-2.4538,-2.4537,-2.452,-2.3952,-2.3595,-2.3502,-2.2818,-2.2753,-2.3456,0.0,0.0,0.0,0.0,0.0,0.0,0.0,0.0,0.0,0.0,0.0,0.0,0.0,0.0,0.0,-2.1963,0.0,-2.2742,-2.292,0.0,0.0,0.0,-2.3412,-2.3389,-2.3165,-2.2925,-2.2795,0.0,0.0,-2.2679,-2.2912,-2.252,-2.0841,-2.1656,-2.2208,-2.1674,-2.1616,-2.1619,-2.1713,-2.2135,-2.2526,-2.2933,-2.3705,-2.4611,-2.5502,-2.5974,-2.6084,-2.6084,-2.6002,-2.6029,-2.626,-2.6313,-2.642,-2.6727,-2.6899,-2.6925,-2.6806,-2.6806,-2.6806,-2.675,-2.6289,-2.5821,-3.1085,-3.0344,-2.8616,-2.7037,-2.5618,-2.4741,-2.3884,-2.3026,-2.2167,-2.1327,-2.0451,-1.9367,-1.8162,-1.6871,-1.614,-1.5347,-1.4541,-1.5114,-1.4877,-1.416,-1.6035,-1.6565,-1.6008,-1.7881,-1.8522,-1.8026,-1.8493,-1.8783,-1.8941,-2.0201,-2.0868,-2.099,-2.213,-2.269,-2.2615,-2.2561,-2.2853,-2.3491,-2.3663,-2.4027,-2.4577,-2.4753,-2.4839,-2.4883,-2.4822,-2.4852,-2.4954,-2.4726,-2.4608,-2.4678,-2.4408,-2.4335,-2.4445,-2.4343,0.0,0.0,0.0,0.0,0.0,0.0,0.0,0.0,0.0,-2.3009,-2.2917,0.0,-2.2455,0.0,-2.2398,-2.2538,-2.2035,-2.2558,0.0,0.0,-2.3583,-2.3658,-2.3959,-2.4409,-2.4608,-2.4316,-2.4106,-2.3728,-2.299,-2.3206,-2.2973,-2.1823,-2.2069,-2.224,-2.1831,-2.1855,-2.2249,-2.3081,-2.3451,-2.3844,-2.4303,-2.4703,-2.5077,-2.535,-2.5772,-2.6084,-2.6098,-2.6084,-2.6111,-2.6286,-2.6379,-2.6539,-2.6753,-2.6832,-2.6765,-2.6618,-2.6686,-2.6753,-2.6604,-2.6357,-2.6189,-3.1599,-3.0695,-2.9352,-2.8003,-2.6731,-2.5489,-2.4711,-2.4181,-2.3334,-2.247,-2.1589,-2.0345,-1.8825,-1.7196,-1.7009,-1.6248,-1.514,-1.5501,-1.5169,-1.4399,-1.6361,-1.7007,-1.6569,-1.8549,-1.9199,-1.8706,-1.9376,-1.9512,-1.921,-2.0969,-2.1656,-2.1225,-2.2652,-2.3283,-2.3102,-2.3258,-2.3713,-2.4417,-2.478,-2.5374,-2.6156,-2.6105,-2.6108,-2.615,-2.6091,-2.6078,-2.6123,-2.5749,-2.5576,-2.5524,-2.5172,-2.5111,-2.5441,-2.5335,-2.5398,0.0,0.0,0.0,0.0,0.0,0.0,0.0,0.0,0.0,0.0,0.0,-2.2949,-2.2898,-2.2903,-2.299,-2.3191,-2.3603,-2.4067,-2.4568,-2.4563,-2.4603,-2.4788,-2.5058,-2.5123,-2.4922,-2.4609,-2.4189,-2.3575,-2.3619,-2.3434,-2.2593,-2.2634,-2.254,-2.2189,-2.2314,-2.2738,-2.3345,-2.4007,-2.4659,-2.5289,-2.5521,-2.5615,-2.5629,-2.5857,-2.6098,-2.6098,-2.6098,-2.6152,-2.6286,-2.6418,-2.6578,-2.6738,-2.6794,-2.6753,-2.6671,-2.6645,-2.6592,-2.6445,-2.6392,-2.6418,-3.1695,-3.0724,-2.9863,-2.9062,-2.8246,-2.6677,-2.5881,-2.5627,-2.4771,-2.3842,-2.282,-2.1191,-1.9585,-1.8126,-1.8797,-1.8216,-1.6698,-1.6692,-1.628,-1.5604,-1.7146,-1.7821,-1.7778,-1.9225,-1.9892,-1.9866,-2.0418,-2.0317,-1.9701,-2.1835,-2.2495,-2.1802,-2.3196,-2.3975,-2.4066,-2.4403,-2.4769,-2.5164,-2.595,-2.6752,-2.7587,-2.7547,-2.7587,-2.7662,-2.7554,-2.7513,-2.7452,-2.6902,-2.6472,-2.6301,-2.5695,-2.5689,-2.6427,-2.6353,-2.6569,0.0,-2.7213,0.0,0.0,0.0,0.0,0.0,0.0,0.0,0.0,-2.3427,-2.3541,-2.418,-2.3569,-2.367,-2.4977,-2.5176,-2.5439,-2.5835,-2.5791,-2.5661,-2.5562,-2.5298,-2.5068,-2.5001,-2.4766,-2.4487,-2.4168,-2.403,-2.3769,-2.3216,-2.3054,-2.2962,-2.2735,-2.2913,-2.3122,-2.3084,-2.4149,-2.5249,-2.5792,-2.6055,-2.6109,-2.615,-2.6136,-2.6123,-2.6152,-2.6138,-2.6192,-2.6313,-2.6545,-2.6736,-2.691,-2.7009,-2.7055,-2.7086,-2.6878,-2.6628,-2.6408,-2.6406,-2.6445,-3.2229,-3.0724,-2.9879,-2.9405,-2.9169,-2.8154,-2.6967,-2.5646,-2.4719,-2.3435,-2.191,-2.0861,-1.9878,-1.8989,-1.9,-1.85,-1.7606,-1.8179,-1.8327,-1.8228,-1.9768,-2.046,-2.0493,-2.1309,-2.1676,-2.1626,-2.1685,-2.1583,-2.1367,-2.3079,-2.3724,-2.3397,-2.4921,-2.5949,-2.6432,0.0,0.0,0.0,-2.6292,-2.6764,-2.7044,-2.7501,-2.7836,-2.8,-2.7792,0.0,-2.7801,-2.7581,-2.7446,-2.7399,-2.7259,0.0,0.0,0.0,0.0,0.0,0.0,0.0,0.0,0.0,0.0,0.0,-2.6342,-2.5605,-2.528,-2.4581,-2.4389,-2.493,-2.4929,-2.4946,-2.5094,-2.5693,-2.604,-2.5975,-2.5811,-2.5642,-2.547,-2.5243,-2.5029,-2.4846,-2.4706,-2.4508,-2.4302,-2.403,-2.3754,-2.3487,-2.326,-2.3287,-2.3699,-2.3554,-2.3639,-2.4156,-2.5147,-2.5926,-2.6336,-2.6326,-2.6286,-2.6392,-2.6445,-2.6394,-2.6343,-2.6395,-2.6433,-2.6529,-2.7037,-2.748,-2.7521,-2.7955,-2.8231,-2.8192,-2.7717,-2.7131,-2.6587,-2.6406,-2.6353,-3.3028,0.0,-3.0962,-3.0295,0.0,-2.8985,-2.8087,-2.6887,-2.5965,-2.4593,-2.2909,-2.2507,-2.161,-2.0379,-2.0304,-1.9582,-1.8421,-1.9188,-1.9316,-1.899,-2.0524,-2.1206,-2.1166,-2.1875,-2.2161,-2.2118,-2.2449,-2.2574,-2.2575,-2.4091,-2.475,-2.4667,-2.5758,-2.6449,-2.6736,-2.6694,-2.6566,-2.6389,-2.6269,-2.6273,-2.6435,-2.7004,-2.7384,-2.7539,-2.7741,0.0,0.0,0.0,0.0,0.0,0.0,0.0,0.0,0.0,0.0,-2.7557,-2.7465,-2.7467,-2.7496,-2.7376,-2.733,-2.7376,-2.6841,-2.624,-2.5707,-2.4853,-2.4775,-2.5748,-2.5463,-2.5345,-2.5677,-2.606,-2.617,-2.601,-2.5883,-2.5735,-2.5551,-2.5339,-2.5162,-2.506,-2.4906,-2.4726,-2.4487,-2.4281,-2.4009,-2.3719,-2.377,-2.3917,-2.4141,-2.419,-2.448,-2.543,-2.5802,-2.6204,-2.6431,-2.6312,-2.6388,-2.6764,-2.6877,-2.6993,-2.7211,-2.7282,-2.7378,-2.7489,-2.7804,-2.8048,-2.8203,-2.8505,-2.8681,-2.8566,-2.8047,-2.7514,-2.7124,-2.6689,-2.634,-3.3665,-3.2129,-3.2085,-3.1181,-2.971,-2.966,-2.9171,-2.8343,0.0,0.0,0.0,-2.4703,-2.3742,-2.2084,-2.2049,-2.1163,-1.9769,-2.0517,-2.0478,-1.9882,-2.1289,-2.1916,-2.1834,-2.2405,-2.2642,-2.2608,-2.3188,-2.3531,-2.3695,-2.5051,-2.5798,-2.5958,-2.6548,-2.6899,-2.7004,-2.6721,-2.6904,-2.7518,-2.6509,-2.6038,-2.6145,-2.6747,-2.7121,-2.7254,-2.7757,-2.7982,-2.7876,-2.7982,-2.7954,-2.776,-2.7871,-2.7871,-2.7748,-2.7748,-2.7686,-2.7632,-2.7557,-2.7494,-2.7511,-2.7392,-2.7313,-2.7378,-2.7186,-2.6634,-2.5675,-2.5073,-2.5211,-2.6419,-2.5744,-2.5557,-2.6211,-2.6206,-2.6115,-2.6008,-2.5915,-2.5789,-2.5626,-2.5432,-2.5256,-2.5236,-2.5045,-2.4902,-2.4666,-2.4539,-2.4394,-2.4188,-2.4342,-2.4754,-2.4771,-2.4945,-2.545,-2.6483,-2.6428,-2.6285,-2.6472,-2.6353,-2.6502,-2.7221,-2.7378,-2.7637,-2.8125,-2.8326,-2.8412,-2.8555,-2.8613,-2.8699,-2.89,-2.9001,-2.8914,-2.8826,-2.8291,-2.7744,-2.7626,-2.6919,-2.634,-3.3635,-3.211,-3.2029,-3.1436,-3.0528,-3.0529,-3.0037,-2.9165,-2.8317,-2.7355,-2.6454,-2.6443,-2.5479,-2.3839,-2.3775,-2.3234,-2.2427,-2.3131,-2.3399,-2.3332,-2.4179,-2.4562,-2.4537,-2.454,-2.4483,-2.4418,-2.4463,-2.4781,-2.5399,-2.6256,-2.6955,-2.7526,-2.8242,-2.8917,-2.9387,-2.8779,-2.8779,-2.9437,-2.7835,-2.7034,-2.7114,-2.7753,-2.8147,-2.8265,-2.8224,-2.8186,-2.814,-2.8172,-2.8112,-2.7954,-2.8028,-2.8018,-2.7888,-2.7909,-2.7827,-2.7686,-2.7569,-2.7526,-2.7589,-2.7407,-2.7315,-2.7315,-2.7266,-2.6796,-2.5725,-2.6083,-2.6438,-2.6589,-2.6351,-2.6282,-2.6313,-2.6152,-2.6026,-2.5917,-2.5766,-2.5578,-2.5429,-2.5262,-2.5146,-2.5084,-2.4922,-2.4842,-2.4766,-2.4554,-2.4579,-2.4848,-2.4948,-2.5191,-2.606,-2.6183,-2.6346,-2.6872,-2.6736,-2.6618,-2.6811,-2.6568,-2.6764,-2.7485,-2.7881,-2.8228,-2.8726,-2.8942,-2.9116,-2.9261,-2.939,-2.9505,-2.9817,-2.9915,-2.9704,-2.9362,-2.8627,-2.8039,-2.7647,-2.681,-2.6274,-3.3894,-3.2781,-3.2274,-3.1551,-3.0742,-3.0727,-3.0477,-3.0082,-2.9632,-2.8698,-2.7547,-2.7486,-2.6765,-2.5642,-2.5947,-2.5144,-2.3546,-2.48,-2.4854,-2.4044,-2.4773,-2.5126,-2.5031,-2.4934,-2.4844,-2.4761,-2.4723,-2.5292,-2.6385,-2.7214,-2.8184,-2.9248,-2.9991,-3.0497,-3.0723,-3.0387,-3.0344,-3.0617,-2.8954,-2.8081,-2.8124,-2.8745,-2.9097,-2.9207,-2.9449,-2.96,-2.9617,-2.9561,-2.9508,-2.9407,-2.9331,-2.9243,-2.9155,-2.9112,-2.8873,-2.8386,-2.8244,-2.8039,-2.7677,-2.7542,-2.7388,-2.7247,-2.7247,-2.6998,-2.6416,-2.6622,-2.6759,-2.6657,-2.6572,-2.6468,-2.6399,-2.6242,-2.6154,-2.6118,-2.6007,-2.5842,-2.5696,-2.553,-2.5416,-2.5317,-2.5103,-2.4966,-2.495,-2.5014,-2.5091,-2.5386,-2.5635,-2.6341,-2.7206,-2.7175,-2.7091,-2.7251,-2.6881,-2.6804,-2.7227,-2.7072,-2.742,-2.8495,-2.9115,-2.9595,-3.0103,-3.0452,-3.0784,-3.0997,-3.0931,-3.0826,-3.0898,-3.0812,-3.0425,-2.9608,-2.8901,-2.821,-2.7606,-2.681,-2.6329,-3.4408,-3.3607,-3.2945,-3.2044,-3.1056,-3.0791,-3.0711,-3.0694,-3.0618,-2.9881,-2.8729,-2.8419,-2.7808,-2.7065,-2.7589,-2.675,-2.5244,-2.6197,-2.6073,-2.4944,-2.544,-2.5596,-2.5329,-2.5245,-2.5055,-2.4787,-2.4757,-2.5437,-2.672,-2.7569,-2.8739,-3.0149,-3.0759,-3.1065,-3.1201,-3.1182,-3.1238,-3.128,-3.0265,-2.957,-2.9356,-2.9805,-3.0025,-3.0124,-3.0549,-3.0822,-3.0822,-3.0754,-3.0671,-3.0612,-3.0442,-3.0302,-3.0243,-3.0198,-2.9871,-2.9259,-2.9127,-2.8833,-2.8253,-2.8139,-2.8016,-2.781,-2.7778,-2.7747,-2.7635,-2.7553,-2.7232,-2.6843,-2.6606,-2.652,-2.6486,-2.6382,-2.6295,-2.626,-2.6205,-2.616,-2.6167,-2.6054,-2.6005,-2.6002,-2.5801,-2.564,-2.566,-2.579,-2.5938,-2.609,-2.6727,-2.7455,-2.7858,-2.7905,-2.7755,-2.7463,-2.6985,-2.697,-2.7605,-2.733,-2.7821,-2.932,-2.9842,-3.0381,-3.1093,-3.1872,-3.2298,-3.2359,-3.2241,-3.1926,-3.1769,-3.1435,-3.0843,-2.991,-2.9159,-2.8483,-2.7781,-2.6985,-2.6416,-3.526,-3.4542,-3.4319,-3.3407,-3.1874,-3.1064,-3.0766,-3.0727,-3.0713,-3.0607,-3.0218,-2.9543,-2.8659,-2.787,-2.7904,-2.7749,-2.743,-2.7624,-2.7545,-2.7347,-2.7377,-2.7007,-2.6314,-2.6204,-2.5744,-2.5108,-2.4936,-2.5366,-2.6145,-2.6913,-2.8045,-2.9326,-2.95,-2.9965,-3.0528,-3.0575,-3.0854,-3.1561,-3.2072,-3.1904,-3.1042,-3.0969,-3.0965,-3.0984,-3.0925,-3.0878,-3.1,-3.0758,-3.0718,-3.0682,-3.0612,-3.0469,-3.0427,-3.0394,-3.03,-3.0092,-2.9996,-2.9847,-2.9614,-2.9598,-2.953,-2.9549,-2.948,-2.9446,-2.943,-2.9315,-2.8545,-2.7351,-2.6776,-2.6724,-2.6572,-2.6484,-2.6462,-2.6475,-2.63,-2.6184,-2.6662,-2.6713,-2.6883,-2.7462,-2.713,-2.7171,-2.6971,-2.6782,-2.6794,-2.7134,-2.7673,-2.8115,-2.8195,-2.8079,-2.7905,-2.769,-2.7284,-2.7308,-2.7817,-2.7212,-2.7828,-2.9405,-2.9475,-3.009,-3.1243,-3.1857,-3.2103,-3.288,-3.2677,-3.2407,-3.2315,-3.186,-3.0991,-3.0192,-2.9473,-2.8812,-2.8096,-2.7272,-2.6691,-3.5399,-3.4556,-3.4097,-3.3507,-3.2783,-3.2341,-3.19,-3.1492,-3.1418,-3.111,-3.0585,-3.0181,-2.9501,-2.8719,-2.9115,-2.8794,-2.7918,-2.8309,-2.8247,-2.7813,-2.7707,-2.7459,-2.7198,-2.7102,-2.6851,-2.6508,-2.6378,-2.6456,-2.6831,-2.7913,-2.9293,-3.0663,-3.0827,-3.1002,-3.1255,-3.1232,-3.1376,-3.1656,-3.1965,-3.1869,-3.1537,-3.2208,-3.263,-3.2634,-3.2552,-3.2468,-3.2429,-3.2329,-3.2274,-3.2215,-3.2028,-3.1887,-3.1872,-3.1762,-3.1453,-3.0901,-3.0381,-3.0056,-2.9974,-2.9974,-2.9941,-2.9857,-2.9874,-2.984,-2.9809,-2.9625,-2.9162,-2.8596,-2.8202,-2.808,-2.8045,-2.7902,-2.7794,-2.7811,-2.7719,-2.7634,-2.7767,-2.7717,-2.7673,-2.7693,-2.7536,-2.7385,-2.7328,-2.7371,-2.7616,-2.8015,-2.8362,-2.8429,-2.8217,-2.8054,-2.788,-2.7604,-2.7284,-2.7612,-2.8378,-2.825,-2.872,-2.9987,-3.0646,-3.1144,-3.1481,-3.2074,-3.2472,-3.3245,-3.2959,-3.2869,-3.3124,-3.2719,-3.2004,-3.0785,-2.9102,-2.8124,-2.7626,-2.7043,-2.674,-3.5535,-3.487,-3.4069,-3.371,-3.3659,-3.3331,-3.2889,-3.2398,-3.229,-3.1786,-3.0978,-3.0878,-3.038,-2.9703,-3.0125,-2.9648,-2.8708,-2.9108,-2.907,-2.8521,-2.8434,-2.8294,-2.8071,-2.7994,-2.7806,-2.7561,-2.7411,-2.7423,-2.7617,-2.8577,-2.9892,-3.1052,-3.1259,-3.1249,-3.1205,-3.1168,-3.1136,-3.108,-3.128,-3.1323,-3.142,-3.2689,-3.3423,-3.3405,-3.3552,-3.3587,-3.3538,-3.3452,-3.3364,-3.3322,-3.3073,-3.2948,-3.2932,-3.2804,-3.2407,-3.1693,-3.1116,-3.0786,-3.0787,-3.0769,-3.0735,-3.0586,-3.0569,-3.0536,-3.0419,-3.0248,-3.0179,-3.0127,-2.9916,-2.9686,-2.9103,-2.8941,-2.8901,-2.8901,-2.8772,-2.8691,-2.868,-2.8573,-2.8476,-2.8322,-2.8302,-2.7924,-2.7771,-2.7951,-2.8271,-2.8505,-2.8558,-2.8477,-2.8152,-2.8029,-2.788,-2.7554,-2.752,-2.7983,-2.8862,-2.8611,-2.9343,-3.0514,-3.1205,-3.119,-3.1717,-3.2194,-3.2489,-3.2896,-3.2966,-3.2941,-3.2811,-3.2677,-3.232,-3.0725,-2.932,-2.8364,-2.8239,-2.7591,-2.7549,-3.588,-3.5732,-3.4915,-3.4565,-3.4408,-3.3627,-3.3254,-3.3239,-3.3167,-3.2671,-3.1897,-3.1773,-3.1269,-3.0509,-3.0557,-3.0422,-3.0237,-3.0244,-3.0194,-3.0029,-3.0075,-2.9717,-2.897,-2.8868,-2.8425,-2.784,-2.7699,-2.7856,-2.836,-2.8446,-2.8914,-2.9795,-2.9869,-2.9775,-2.9822,-2.9857,-2.963,-2.9831,-3.0485,-3.0709,-3.0791,-3.2101,-3.2808,-3.2732,-3.3314,-3.3671,-3.3591,-3.3481,-3.3393,-3.3378,-3.3196,-3.3055,-3.2995,-3.2997,-3.2832,-3.2533,-3.2465,-3.2414,-3.2312,-3.231,-3.2294,-3.223,-3.209,-3.2144,-3.1812,-3.1654,-3.1582,-3.172,-3.14,-3.0735,-2.9514,-2.9302,-2.9122,-2.894,-2.88,-2.8965,-2.925,-2.9255,-2.9461,-2.9637,-2.9479,-2.915,-2.8831,-2.8841,-2.8732,-2.8661,-2.8597,-2.8548,-2.8382,-2.8164,-2.8046,-2.8011,-2.8166,-2.8533,-2.8948,-2.8954,-2.9394,-3.0451,-3.1042,-3.0719,-3.1471,-3.2089,-3.2302,-3.2499,-3.2486,-3.2402,-3.2219,-3.1858,-3.1358,-3.061,-3.0408,-2.9798,-2.9204,-2.9276,-2.9088,-3.7737,-3.6715,-3.6345,-3.5887,-3.5369,-3.4991,-3.4567,-3.4066,-3.4044,-3.3542,-3.282,-3.2682,-3.2459,-3.215,-3.1593,-3.1,-3.0444,-3.0455,-3.0414,-3.031,-3.0305,-3.012,-2.9805,-2.9699,-2.9534,-2.9224,-2.9075,-2.907,-2.9138,-2.8751,-2.8929,-2.957,-2.9664,-2.9673,-2.9739,-3.0075,-3.0287,-3.0372,-3.1086,-3.1472,-3.1455,-3.2444,-3.2949,-3.2847,-3.3489,-3.3762,-3.3671,-3.3559,-3.3524,-3.3466,-3.3345,-3.3289,-3.3226,-3.3135,-3.2995,-3.2802,-3.2755,-3.2657,-3.2523,-3.2541,-3.2489,-3.2405,-3.2406,-3.2336,-3.2196,-3.2073,-3.2002,-3.1876,-3.1711,-3.1218,-3.0848,-3.0549,-3.0436,-3.0319,-3.0183,-3.0039,-3.0042,-2.9959,-2.9863,-2.9793,-2.9675,-2.9473,-2.9353,-2.9213,-2.9082,-2.8936,-2.8803,-2.883,-2.895,-2.8853,-2.8774,-2.8914,-2.9071,-2.9337,-2.9796,-2.9711,-2.9946,-3.0713,-3.1232,-3.1145,-3.156,-3.1529,-3.1656,-3.2319,-3.2265,-3.2353,-3.2373,-3.254,-3.178,-3.1296,-3.1067,-3.0713,-3.0248,-2.9929,-2.9639,-3.8685,-3.7673,-3.7545,-3.7203,-3.6701,-3.6634,-3.6103,-3.5361,-3.5282,-3.4647,-3.3737,-3.3519,-3.3344,-3.301,-3.2447,-3.1868,-3.1193,-3.0755,-3.0408,-3.0311,-3.0299,-3.0266,-3.0194,-3.0169,-3.0117,-3.0046,-2.9948,-2.9842,-2.9681,-2.9226,-2.9236,-2.9654,-2.9692,-2.9851,-3.0114,-3.0583,-3.0899,-3.1274,-3.1759,-3.1987,-3.2016,-3.2683,-3.3066,-3.3066,-3.3604,-3.3895,-3.3815,-3.3766,-3.3671,-3.3577,-3.3509,-3.3564,-3.371,-3.334,-3.318,-3.3267,-3.3045,-3.2787,-3.264,-3.2625,-3.2541,-3.244,-3.2405,-3.2336,-3.2179,-3.2126,-3.2037,-3.1912,-3.1785,-3.1654,-3.154,-3.1408,-3.131,-3.1171,-3.0992,-3.0773,-3.0526,-3.0359,-3.0108,-2.982,-2.9659,-2.9643,-2.9738,-2.9717,-2.9705,-2.969,-2.9539,-2.957,-2.9647,-2.9633,-2.9546,-2.9731,-2.9919,-3.0246,-3.0733,-3.0929,-3.0724,-3.1333,-3.1587,-3.1514,-3.1575,-3.1368,-3.1454,-3.2044,-3.2363,-3.2494,-3.2716,-3.2966,-3.2667,-3.2062,-3.1792,-3.1442,-3.0905,-3.0309,-3.0163,-3.8549,-3.8428,-3.8416,-3.8311,-3.8107,-3.8059,-3.7724,-3.6978,-3.6795,-3.5831,-3.4656,-3.4367,-3.3934,-3.3257,-3.3099,-3.2979,-3.2645,-3.1364,-3.0591,-3.0459,-3.0414,-3.0317,-3.0199,-3.0178,-3.0106,-3.0007,-2.9945,-2.9859,-2.978,-2.9668,-2.967,-2.9698,-2.9811,-3.0189,-3.0865,-3.1073,-3.1476,-3.2016,-3.2277,-3.2206,-3.2053,-3.2836,-3.3189,-3.311,-3.3673,-3.4086,-3.4123,-3.4035,-3.3873,-3.3698,-3.3633,-3.3873,-3.4132,-3.3646,-3.3445,-3.3829,-3.3405,-3.3017,-3.2884,-3.2821,-3.2691,-3.2541,-3.244,-3.2336,-3.2196,-3.2126,-3.2073,-3.1948,-3.1876,-3.1803,-3.1617,-3.1538,-3.1385,-3.1055,-3.0972,-3.0794,-3.0589,-3.0455,-3.0286,-2.9973,-2.9909,-2.9961,-3.0273,-3.0426,-3.0529,-3.0707,-3.0691,-3.0579,-3.0521,-3.0489,-3.0265,-3.0346,-3.0934,-3.1611,-3.1962,-3.2207,-3.1985,-3.1868,-3.1884,-3.1915,-3.2258,-3.2227,-3.2315,-3.2759,-3.288,-3.2981,-3.2778,-3.2955,-3.2694,-3.2259,-3.2185,-3.2138,-3.1644,-3.1134,-3.098,-3.9863,-3.9307,-3.9302,-3.8935,-3.8403,-3.8321,-3.8098,-3.7765,-3.7204,-3.6593,-3.6066,-3.5463,-3.504,-3.4695,-3.4183,-3.3877,-3.3737,-3.2622,-3.1789,-3.1296,-3.12,-3.0829,-3.0315,-3.0169,-3.0061,-2.9948,-2.9916,-2.9883,-2.9868,-2.9849,-2.9849,-2.9918,-3.0409,-3.0769,-3.1148,-3.2109,-3.285,-3.3037,-3.355,-3.38,-3.3768,-3.3982,-3.4068,-3.4038,-3.4193,-3.4487,-3.4927,-3.4234,-3.3798,-3.3716,-3.3629,-3.3676,-3.3814,-3.4078,-3.4003,-3.3592,-3.3378,-3.3106,-3.2932,-3.2868,-3.2771,-3.2623,-3.2557,-3.2473,-3.2319,-3.2301,-3.2179,-3.1966,-3.1894,-3.182,-3.1635,-3.1596,-3.1447,-3.1218,-3.1075,-3.0892,-3.0767,-3.0782,-3.0822,-3.0786,-3.1024,-3.1289,-3.1325,-3.1294,-3.127,-3.1322,-3.1187,-3.108,-3.1415,-3.1646,-3.204,-3.2299,-3.2815,-3.3006,-3.324,-3.335,-3.3216,-3.2946,-3.2766,-3.2647,-3.293,-3.3063,-3.3196,-3.3385,-3.3458,-3.3378,-3.3126,-3.3019,-3.2972,-3.2882,-3.2972,-3.2749,-3.2331,-3.2069,-3.1851,-4.0672,-4.017,-4.014,-3.9835,-3.9306,-3.9247,-3.9002,-3.8648,-3.8077,-3.7659,-3.7286,-3.6798,-3.6535,-3.633,-3.5579,-3.5201,-3.5027,-3.3922,-3.3064,-3.2532,-3.2148,-3.1539,-3.0679,-3.0242,-3.0038,-2.9975,-2.994,-2.9924,-2.9901,-2.9929,-3.0034,-3.0414,-3.0868,-3.1466,-3.1968,-3.2948,-3.3568,-3.3865,-3.4323,-3.4602,-3.4561,-3.455,-3.4517,-3.442,-3.4351,-3.453,-3.4841,-3.4179,-3.394,-3.4055,-3.3826,-3.3704,-3.3953,-3.4178,-3.4119,-3.3885,-3.3488,-3.3201,-3.3011,-3.2914,-3.2836,-3.2706,-3.2622,-3.2573,-3.2473,-3.2456,-3.2319,-3.2144,-3.202,-3.1912,-3.1747,-3.1635,-3.1524,-3.1447,-3.1213,-3.111,-3.1095,-3.1188,-3.1373,-3.1534,-3.185,-3.2037,-3.2112,-3.2104,-3.2135,-3.2146,-3.2032,-3.1943,-3.2463,-3.2815,-3.3227,-3.3627,-3.3911,-3.4123,-3.4453,-3.4486,-3.4455,-3.4151,-3.3848,-3.3681,-3.3693,-3.3673,-3.3745,-3.408,-3.4274,-3.4152,-3.3929,-3.4008,-3.3999,-3.3917,-3.3584,-3.3346,-3.3002,-3.2767,-3.2445,-4.0972,-4.0912,-4.0888,-4.08,-4.0676,-4.0651,-4.0208,-3.9617,-3.9328,-3.8846,-3.8318,-3.7945,-3.7932,-3.7823,-3.6857,-3.6478,-3.6401,-3.4795,-3.4013,-3.375,-3.316,-3.2152,-3.1085,-3.0395,-3.008,-3.0007,-3.0007,-2.9972,-2.9924,-2.9918,-3.029,-3.081,-3.1028,-3.1844,-3.2882,-3.3429,-3.3872,-3.4448,-3.4596,-3.4583,-3.4539,-3.4536,-3.4473,-3.434,-3.4281,-3.4296,-3.4396,-3.4289,-3.4363,-3.4692,-3.4073,-3.4039,-3.4411,-3.3971,-3.4036,-3.4512,-3.3813,-3.3436,-3.3206,-3.3046,-3.29,-3.2821,-3.2722,-3.2606,-3.2623,-3.254,-3.2456,-3.2354,-3.2196,-3.2055,-3.1893,-3.1747,-3.1635,-3.156,-3.1329,-3.1305,-3.1616,-3.1553,-3.1677,-3.2091,-3.2266,-3.2366,-3.2765,-3.2812,-3.3099,-3.33,-3.3254,-3.315,-3.3203,-3.3421,-3.3791,-3.416,-3.4467,-3.4696,-3.4816,-3.5217,-3.5125,-3.4774,-3.4635,-3.4647,-3.446,-3.4409,-3.4292,-3.4673,-3.4845,-3.4732,-3.4606,-3.4534,-3.438,-3.4022,-3.3844,-3.3854,-3.3647,-3.3303,-3.2962,-4.0995,-4.0974,-4.0913,-4.0853,-4.0796,-4.0806,-4.0666,-4.0365,-3.9676,-3.9258,-3.8936,-3.837,-3.8074,-3.7983,-3.7167,-3.6794,-3.6286,-3.4944,-3.4205,-3.4122,-3.3352,-3.2007,-3.0769,-3.0264,-3.0057,-3.0022,-3.0038,-3.003,-2.9972,-2.9975,-3.0119,-3.0316,-3.0958,-3.1672,-3.2609,-3.3337,-3.4017,-3.4636,-3.4747,-3.4747,-3.4697,-3.4604,-3.455,-3.4528,-3.4461,-3.465,-3.5033,-3.507,-3.467,-3.4169,-3.4462,-3.4304,-3.4039,-3.4211,-3.447,-3.4564,-3.4018,-3.3712,-3.3948,-3.3489,-3.3062,-3.2965,-3.2852,-3.2804,-3.2756,-3.264,-3.2523,-3.2388,-3.2249,-3.2108,-3.1948,-3.184,-3.1748,-3.1579,-3.1368,-3.1252,-3.1334,-3.147,-3.1692,-3.1967,-3.2619,-3.2945,-3.3064,-3.3404,-3.3636,-3.3668,-3.3626,-3.3597,-3.3604,-3.3846,-3.4172,-3.4369,-3.4662,-3.4905,-3.5164,-3.5661,-3.5722,-3.5339,-3.5276,-3.5498,-3.5356,-3.5212,-3.5108,-3.5154,-3.5062,-3.4957,-3.4721,-3.4549,-3.4327,-3.4176,-3.4187,-3.4163,-3.3946,-3.3657,-3.3456,-4.098,-4.098,-4.0931,-4.0864,-4.0854,-4.0837,-4.0635,-4.025,-3.9749,-3.9247,-3.8887,-3.845,-3.7968,-3.7562,-3.6719,-3.6115,-3.5645,-3.4369,-3.3772,-3.3585,-3.2811,-3.1834,-3.0899,-3.0416,-3.0121,-3.0072,-3.0102,-3.0046,-2.9972,-2.998,-3.0162,-3.0563,-3.0999,-3.1621,-3.2429,-3.3269,-3.3838,-3.4252,-3.4563,-3.4781,-3.4788,-3.4737,-3.4666,-3.4645,-3.462,-3.4787,-3.5016,-3.4976,-3.4587,-3.4162,-3.4305,-3.4306,-3.389,-3.4161,-3.4554,-3.4782,-3.4363,-3.4295,-3.4416,-3.4008,-3.3507,-3.3116,-3.2948,-3.29,-3.2854,-3.2739,-3.2623,-3.2507,-3.2353,-3.2197,-3.2055,-3.1948,-3.1803,-3.1617,-3.1464,-3.1426,-3.1516,-3.1704,-3.1919,-3.2259,-3.2724,-3.3096,-3.2959,-3.3485,-3.3689,-3.3687,-3.3772,-3.3793,-3.3825,-3.4165,-3.4363,-3.4467,-3.4664,-3.4909,-3.5015,-3.5382,-3.5615,-3.534,-3.5431,-3.5763,-3.5834,-3.5689,-3.5589,-3.5412,-3.5314,-3.5151,-3.4902,-3.475,-3.4716,-3.4616,-3.4582,-3.4452,-3.4254,-3.4085,-3.3833,-4.0981,-4.0987,-4.0928,-4.0887,-4.0896,-4.0874,-4.0441,-3.9728,-3.9621,-3.9121,-3.848,-3.8325,-3.7839,-3.6939,-3.623,-3.5301,-3.4458,-3.3464,-3.2902,-3.2508,-3.1956,-3.1365,-3.1162,-3.049,-3.0197,-3.0113,-3.0101,-3.0049,-2.9996,-2.9996,-3.036,-3.0731,-3.1032,-3.1531,-3.2179,-3.3076,-3.3515,-3.38,-3.4481,-3.4821,-3.4839,-3.4798,-3.4768,-3.4737,-3.4676,-3.4623,-3.46,-3.4479,-3.4288,-3.4155,-3.413,-3.4073,-3.3985,-3.3952,-3.4296,-3.4747,-3.4733,-3.4531,-3.4588,-3.4401,-3.399,-3.3232,-3.3011,-3.2963,-3.29,-3.2838,-3.2724,-3.2573,-3.249,-3.2336,-3.2179,-3.202,-3.184,-3.1691,-3.1635,-3.1824,-3.2066,-3.2062,-3.2127,-3.2567,-3.2645,-3.2647,-3.2811,-3.3103,-3.3616,-3.3966,-3.3933,-3.3759,-3.3721,-3.3796,-3.4022,-3.4206,-3.449,-3.4845,-3.4927,-3.5021,-3.5211,-3.523,-3.5355,-3.5599,-3.578,-3.5761,-3.577,-3.5703,-3.5474,-3.5311,-3.5133,-3.5049,-3.5001,-3.4916,-3.475,-3.4698,-3.4635,-3.4442,-3.4224,-4.099,-4.0987,-4.0929,-4.0904,-4.0904,-4.0873,-4.0393,-3.9597,-3.9578,-3.8967,-3.8389,-3.8258,-3.7705,-3.6866,-3.5897,-3.5248,-3.4119,-3.2817,-3.1806,-3.11,-3.092,-3.0736,-3.0652,-3.0337,-3.0213,-3.0171,-3.0171,-3.0142,-3.0079,-3.0083,-3.0148,-3.0323,-3.0517,-3.0749,-3.1542,-3.2382,-3.316,-3.3738,-3.4527,-3.4889,-3.4946,-3.4859,-3.4819,-3.4819,-3.4758,-3.4666,-3.4594,-3.455,-3.4473,-3.4328,-3.4197,-3.4099,-3.4005,-3.3947,-3.4318,-3.4779,-3.4445,-3.4241,-3.4506,-3.4156,-3.3566,-3.3319,-3.3091,-3.2995,-3.2963,-3.287,-3.2739,-3.2606,-3.2523,-3.2405,-3.2197,-3.202,-3.1894,-3.182,-3.171,-3.1685,-3.1819,-3.166,-3.1616,-3.1725,-3.2021,-3.2437,-3.2909,-3.3305,-3.3753,-3.4133,-3.4006,-3.3705,-3.3557,-3.3462,-3.3502,-3.3644,-3.3884,-3.4109,-3.4057,-3.4405,-3.5038,-3.5305,-3.5492,-3.5462,-3.5646,-3.5872,-3.5928,-3.5795,-3.5614,-3.5422,-3.5311,-3.5115,-3.5016,-3.4949,-3.4887,-3.4776,-3.4681,-3.4624,-3.4437,-4.0814,-4.0482,-4.0804,-4.0968,-4.0917,-4.0532,-3.985,-3.9073,-3.8617,-3.7974,-3.7258,-3.7132,-3.6429,-3.529,-3.4751,-3.3917,-3.2764,-3.1855,-3.1325,-3.1095,-3.0815,-3.0485,-3.0428,-3.0329,-3.0241,-3.0225,-3.0206,-3.0171,-3.0128,-3.0135,-3.0154,-3.0087,-3.0098,-3.0312,-3.0799,-3.1653,-3.2446,-3.3198,-3.4065,-3.4637,-3.4935,-3.4936,-3.4878,-3.4887,-3.4798,-3.4708,-3.4655,-3.4594,-3.4547,-3.4416,-3.4293,-3.4197,-3.4093,-3.4036,-3.4428,-3.4952,-3.4798,-3.4458,-3.4582,-3.4335,-3.3887,-3.3325,-3.3201,-3.3106,-3.3028,-3.2934,-3.2838,-3.2706,-3.2607,-3.2456,-3.2197,-3.2126,-3.202,-3.1894,-3.1803,-3.1784,-3.1801,-3.1596,-3.1387,-3.1419,-3.1605,-3.1786,-3.2232,-3.3011,-3.3112,-3.316,-3.3745,-3.3483,-3.3062,-3.2951,-3.2779,-3.2878,-3.3101,-3.3198,-3.3132,-3.3708,-3.488,-3.5334,-3.5798,-3.566,-3.5615,-3.5859,-3.6082,-3.5891,-3.5683,-3.5599,-3.5457,-3.5261,-3.5059,-3.5121,-3.5044,-3.4842,-3.4537,-3.4192,-3.4046,-4.0601,-3.9865,-4.0665,-4.0997,-4.0778,-4.0055,-3.9162,-3.8173,-3.7507,-3.6883,-3.5955,-3.5807,-3.5275,-3.3868,-3.3511,-3.2345,-3.1231,-3.1096,-3.1331,-3.1626,-3.1395,-3.12,-3.11,-3.1,-3.0765,-3.0437,-3.029,-3.0211,-3.0164,-3.0183,-3.0185,-3.0135,-3.0142,-3.02,-3.0364,-3.1035,-3.1863,-3.2496,-3.3487,-3.4186,-3.4706,-3.484,-3.4965,-3.4897,-3.4839,-3.4768,-3.4706,-3.4645,-3.4569,-3.4439,-3.4397,-3.4328,-3.4215,-3.4173,-3.4333,-3.5056,-3.4828,-3.4651,-3.4493,-3.444,-3.4117,-3.337,-3.3322,-3.3355,-3.3286,-3.3297,-3.3235,-3.3016,-3.2849,-3.2506,-3.2232,-3.2214,-3.2144,-3.2037,-3.1984,-3.2,-3.2032,-3.1795,-3.1578,-3.1538,-3.1564,-3.1669,-3.1935,-3.2458,-3.2299,-3.2283,-3.2911,-3.3225,-3.2767,-3.2427,-3.2256,-3.2321,-3.2586,-3.2697,-3.2625,-3.3376,-3.4512,-3.4757,-3.5411,-3.5412,-3.5212,-3.5123,-3.5248,-3.5839,-3.5802,-3.5567,-3.5244,-3.4876,-3.4827,-3.5143,-3.469,-3.3921,-3.3695,-3.3661,-3.3458,-4.0595,-3.9865,-4.0725,-4.0688,-4.0055,-3.9822,-3.8817,-3.7534,-3.725,-3.669,-3.595,-3.5862,-3.533,-3.4328,-3.3559,-3.234,-3.1238,-3.1394,-3.1817,-3.2133,-3.2208,-3.2413,-3.2298,-3.2165,-3.1905,-3.1303,-3.0765,-3.0394,-3.0272,-3.0286,-3.0253,-3.0253,-3.0253,-3.024,-3.0423,-3.1004,-3.1475,-3.1977,-3.3069,-3.3868,-3.4179,-3.4687,-3.4974,-3.4917,-3.4887,-3.4819,-3.4718,-3.4687,-3.4604,-3.4495,-3.4439,-3.4351,-3.4281,-3.4185,-3.4197,-3.4269,-3.4297,-3.4228,-3.4169,-3.4014,-3.3802,-3.3542,-3.3615,-3.3867,-3.4073,-3.4141,-3.4012,-3.3739,-3.3217,-3.2678,-3.2539,-3.2702,-3.2493,-3.2354,-3.2406,-3.2492,-3.2732,-3.2483,-3.2061,-3.2109,-3.191,-3.1658,-3.1927,-3.2158,-3.2238,-3.2194,-3.2367,-3.2591,-3.2337,-3.2001,-3.1711,-3.1902,-3.2208,-3.224,-3.2224,-3.3244,-3.4166,-3.3939,-3.4275,-3.4512,-3.4342,-3.4063,-3.4274,-3.5156,-3.5353,-3.503,-3.4694,-3.4435,-3.4088,-3.4013,-3.341,-3.2825,-3.2586,-3.2422,-3.2197,-4.0313,-3.9243,-4.0055,-4.0192,-3.9687,-3.8797,-3.8012,-3.7213,-3.6713,-3.6312,-3.6005,-3.584,-3.513,-3.4111,-3.3537,-3.2529,-3.187,-3.2221,-3.2575,-3.2744,-3.2943,-3.3098,-3.3105,-3.3022,-3.2422,-3.1768,-3.1218,-3.0758,-3.0363,-3.0311,-3.0305,-3.0312,-3.0312,-3.0279,-3.0305,-3.0624,-3.1108,-3.1628,-3.2657,-3.3562,-3.3941,-3.4681,-3.4972,-3.4955,-3.4898,-3.4831,-3.4771,-3.4749,-3.4697,-3.4604,-3.4539,-3.4473,-3.4404,-3.4342,-3.4216,-3.4111,-3.4035,-3.4152,-3.4312,-3.438,-3.4511,-3.4757,-3.4724,-3.4815,-3.4984,-3.4983,-3.4867,-3.4646,-3.4455,-3.3947,-3.3897,-3.3757,-3.3741,-3.36,-3.3493,-3.3615,-3.3751,-3.3431,-3.32,-3.29,-3.2317,-3.1975,-3.1824,-3.2046,-3.2255,-3.2195,-3.2043,-3.1992,-3.1976,-3.1819,-3.1635,-3.1445,-3.1805,-3.2376,-3.2469,-3.3245,-3.3967,-3.3713,-3.3668,-3.388,-3.3976,-3.3929,-3.4278,-3.4922,-3.4789,-3.4439,-3.441,-3.4228,-3.3562,-3.2958,-3.2734,-3.2376,-3.1628,-3.1168,-3.1053,-3.9579,-3.8075,-3.9109,-3.9345,-3.8838,-3.7578,-3.6986,-3.6789,-3.6021,-3.5752,-3.5875,-3.5657,-3.4967,-3.4079,-3.3618,-3.3119,-3.2382,-3.3141,-3.3483,-3.358,-3.3737,-3.3689,-3.3611,-3.3404,-3.3099,-3.222,-3.2019,-3.1432,-3.0502,-3.0329,-3.0323,-3.033,-3.0337,-3.0299,-3.035,-3.0401,-3.0784,-3.1319,-3.2292,-3.3207,-3.417,-3.477,-3.5072,-3.5001,-3.4955,-3.4879,-3.484,-3.482,-3.4788,-3.4727,-3.4674,-3.4591,-3.4555,-3.4611,-3.4582,-3.4426,-3.4327,-3.4692,-3.5101,-3.5307,-3.5443,-3.5651,-3.5891,-3.5945,-3.6001,-3.5907,-3.5759,-3.5608,-3.5288,-3.513,-3.4904,-3.5013,-3.4889,-3.4729,-3.4657,-3.4779,-3.4721,-3.4558,-3.4359,-3.3793,-3.2859,-3.2469,-3.2462,-3.2505,-3.2815,-3.254,-3.2373,-3.2085,-3.2067,-3.2067,-3.1812,-3.1254,-3.1445,-3.2394,-3.288,-3.3334,-3.3814,-3.3857,-3.3909,-3.4107,-3.4129,-3.4104,-3.4348,-3.4353,-3.4185,-3.39,-3.3971,-3.3826,-3.3022,-3.2509,-3.2351,-3.1856,-3.097,-3.0566,-3.0481,-3.7888,-3.6426,-3.8009,-3.7798,-3.6573,-3.6194,-3.6109,-3.6023,-3.5262,-3.5266,-3.5733,-3.5146,-3.504,-3.4925,-3.4471,-3.3844,-3.3518,-3.3724,-3.4062,-3.41,-3.4638,-3.4854,-3.5104,-3.5231,-3.388,-3.2761,-3.2657,-3.1892,-3.0762,-3.0369,-3.0383,-3.0379,-3.038,-3.0387,-3.0471,-3.0516,-3.0311,-3.0692,-3.1984,-3.3501,-3.4748,-3.5134,-3.5185,-3.5092,-3.5105,-3.503,-3.4965,-3.4917,-3.4877,-3.4827,-3.4766,-3.4674,-3.4685,-3.5229,-3.5479,-3.5477,-3.5473,-3.5619,-3.6172,-3.6274,-3.6305,-3.6417,-3.6399,-3.6574,-3.6804,-3.6864,-3.6717,-3.6533,-3.6012,-3.5692,-3.5662,-3.5467,-3.5276,-3.5278,-3.535,-3.5489,-3.5553,-3.5568,-3.5405,-3.522,-3.4439,-3.3701,-3.3311,-3.3336,-3.3356,-3.3016,-3.269,-3.2433,-3.2202,-3.221,-3.228,-3.1812,-3.1758,-3.2628,-3.3069,-3.3569,-3.3615,-3.3803,-3.3943,-3.4085,-3.3936,-3.3783,-3.349,-3.3451,-3.3404,-3.3521,-3.3593,-3.3224,-3.2435,-3.2029,-3.1855,-3.1119,-3.0221,-3.0027,-3.0224,-3.6246,-3.6073,-3.6778,-3.6389,-3.5276,-3.4746,-3.4821,-3.5129,-3.4887,-3.4895,-3.5112,-3.4806,-3.4339,-3.3851,-3.3245,-3.2901,-3.2787,-3.3476,-3.3814,-3.3992,-3.4526,-3.471,-3.4362,-3.4563,-3.3981,-3.2801,-3.2275,-3.1661,-3.0779,-3.0417,-3.0406,-3.0394,-3.0429,-3.0687,-3.0797,-3.1047,-3.1367,-3.1954,-3.2936,-3.4052,-3.5074,-3.5659,-3.5747,-3.5294,-3.5637,-3.5517,-3.5188,-3.502,-3.5012,-3.5078,-3.5277,-3.5578,-3.5716,-3.622,-3.6795,-3.7237,-3.7142,-3.7206,-3.7318,-3.7257,-3.7317,-3.7599,-3.7662,-3.7814,-3.7898,-3.7806,-3.7693,-3.7512,-3.7205,-3.692,-3.68,-3.6822,-3.6701,-3.6559,-3.6257,-3.6344,-3.6462,-3.6424,-3.6349,-3.6217,-3.6013,-3.5163,-3.4403,-3.4192,-3.4057,-3.3635,-3.3427,-3.3241,-3.2818,-3.2481,-3.2547,-3.2532,-3.2674,-3.3056,-3.3344,-3.3656,-3.3391,-3.3483,-3.3514,-3.3609,-3.3466,-3.3282,-3.3113,-3.3145,-3.336,-3.3395,-3.333,-3.3076,-3.2668,-3.2013,-3.1345,-3.0951,-3.0646,-3.0777,-3.0968,-3.5156,-3.5347,-3.5347,-3.4838,-3.4036,-3.3333,-3.3585,-3.4323,-3.4079,-3.4126,-3.4345,-3.4248,-3.3426,-3.243,-3.2382,-3.2584,-3.247,-3.302,-3.325,-3.3526,-3.3751,-3.3792,-3.3691,-3.378,-3.335,-3.1902,-3.2008,-3.1423,-3.0811,-3.0471,-3.0414,-3.0398,-3.0394,-3.0661,-3.1066,-3.1194,-3.1418,-3.2222,-3.3119,-3.4168,-3.522,-3.6194,-3.6289,-3.6239,-3.6203,-3.6181,-3.5611,-3.5174,-3.5092,-3.5587,-3.5884,-3.6188,-3.6518,-3.7194,-3.7742,-3.815,-3.8244,-3.8428,-3.8337,-3.8297,-3.8451,-3.8714,-3.8892,-3.8601,-3.8511,-3.8528,-3.8446,-3.8194,-3.8091,-3.8043,-3.8051,-3.7911,-3.7665,-3.7488,-3.7435,-3.745,-3.7374,-3.7105,-3.6887,-3.6717,-3.6549,-3.6416,-3.5721,-3.522,-3.4797,-3.4335,-3.4096,-3.4011,-3.3652,-3.3178,-3.2994,-3.3097,-3.2776,-3.2877,-3.2853,-3.3065,-3.3007,-3.3006,-3.3064,-3.3107,-3.2956,-3.3035,-3.3035,-3.314,-3.3361,-3.333,-3.33,-3.3143,-3.2971,-3.2435,-3.196,-3.1643,-3.1481,-3.1561,-3.1601,-3.4992,-3.3571,-3.3633,-3.3144,-3.2324,-3.2226,-3.2693,-3.3407,-3.2682,-3.2847,-3.3432,-3.3377,-3.284,-3.2335,-3.2494,-3.2833,-3.3067,-3.3262,-3.306,-3.3066,-3.3262,-3.3149,-3.3021,-3.2927,-3.2809,-3.1932,-3.1708,-3.1265,-3.078,-3.0521,-3.0451,-3.0403,-3.0417,-3.0396,-3.068,-3.1072,-3.1392,-3.2102,-3.282,-3.3953,-3.5134,-3.6189,-3.688,-3.7325,-3.6936,-3.6438,-3.6356,-3.5673,-3.5517,-3.6153,-3.6539,-3.6863,-3.7412,-3.8117,-3.8598,-3.8686,-3.9006,-3.9152,-3.91,-3.8968,-3.8962,-3.8998,-3.8989,-3.8974,-3.8818,-3.8851,-3.8777,-3.8609,-3.8512,-3.8382,-3.8287,-3.8171,-3.807,-3.7898,-3.7792,-3.7667,-3.7558,-3.7449,-3.7248,-3.7148,-3.6999,-3.6855,-3.6681,-3.609,-3.559,-3.5122,-3.4938,-3.4825,-3.4666,-3.4257,-3.3806,-3.3515,-3.2833,-3.2499,-3.2006,-3.2031,-3.2133,-3.2178,-3.2192,-3.2355,-3.2443,-3.2621,-3.3147,-3.3308,-3.352,-3.3414,-3.3309,-3.3229,-3.3102,-3.2897,-3.2598,-3.2237,-3.2131,-3.2199,-3.216,-3.4793,-3.416,-3.3643,-3.2614,-3.1367,-3.1347,-3.1834,-3.2457,-3.2239,-3.2252,-3.2568,-3.2032,-3.1627,-3.1488,-3.1515,-3.1732,-3.1695,-3.1692,-3.1744,-3.1926,-3.2107,-3.2096,-3.205,-3.2101,-3.2031,-3.1367,-3.1173,-3.1076,-3.0651,-3.0563,-3.0525,-3.0486,-3.0455,-3.0841,-3.1062,-3.1416,-3.1923,-3.2231,-3.282,-3.3789,-3.5284,-3.6283,-3.7149,-3.7863,-3.7769,-3.7091,-3.6653,-3.6254,-3.6272,-3.6642,-3.7365,-3.7861,-3.8249,-3.8963,-3.9206,-3.9142,-3.9425,-3.9458,-3.9464,-3.9346,-3.9229,-3.9129,-3.9101,-3.9078,-3.8993,-3.8954,-3.8866,-3.8758,-3.8732,-3.8606,-3.8446,-3.8366,-3.8285,-3.8086,-3.795,-3.7828,-3.7721,-3.7613,-3.7503,-3.7318,-3.7317,-3.7245,-3.7071,-3.6858,-3.6386,-3.5959,-3.58,-3.5622,-3.5352,-3.508,-3.4542,-3.3987,-3.3313,-3.2776,-3.2297,-3.1879,-3.1405,-3.1414,-3.1477,-3.1874,-3.2342,-3.3061,-3.3496,-3.3624,-3.3678,-3.3588,-3.3525,-3.3409,-3.3234,-3.3002,-3.2902,-3.277,-3.2772,-3.2761,-3.2659,-3.4538,-3.4263,-3.3649,-3.2744,-3.1659,-3.1367,-3.1582,-3.1973,-3.1795,-3.1692,-3.166,-3.1049,-3.0801,-3.08,-3.0832,-3.0838,-3.09,-3.0856,-3.0809,-3.1037,-3.1303,-3.1216,-3.1129,-3.1184,-3.1359,-3.0785,-3.0697,-3.0676,-3.0606,-3.0602,-3.0582,-3.054,-3.0549,-3.089,-3.1218,-3.1887,-3.2259,-3.2259,-3.2669,-3.349,-3.5038,-3.6248,-3.7488,-3.8272,-3.8423,-3.8183,-3.7632,-3.7268,-3.7154,-3.7583,-3.821,-3.8842,-3.9249,-3.9566,-3.978,-3.9747,-3.9635,-3.9539,-3.9483,-3.9399,-3.9373,-3.9301,-3.9296,-3.9215,-3.9138,-3.9068,-3.9054,-3.8906,-3.8862,-3.8758,-3.8588,-3.8525,-3.8415,-3.8219,-3.8069,-3.7949,-3.7862,-3.7739,-3.7613,-3.7485,-3.7466,-3.7392,-3.7222,-3.7027,-3.6638,-3.625,-3.6062,-3.5861,-3.5627,-3.5351,-3.5018,-3.4445,-3.3829,-3.3323,-3.2845,-3.2184,-3.1581,-3.1422,-3.1557,-3.199,-3.2494,-3.3173,-3.3832,-3.4154,-3.4139,-3.3905,-3.3741,-3.3636,-3.3387,-3.3123,-3.2996,-3.2857,-3.2888,-3.2858,-3.2924,-3.4248,-3.3472,-3.3495,-3.3425,-3.3173,-3.2432,-3.2084,-3.1892,-3.1269,-3.0954,-3.1,-3.0817,-3.0789,-3.0799,-3.0796,-3.0782,-3.0786,-3.0769,-3.0786,-3.085,-3.0923,-3.0847,-3.0842,-3.0895,-3.0956,-3.0779,-3.0707,-3.0683,-3.0606,-3.0613,-3.0586,-3.0588,-3.0588,-3.0627,-3.0586,-3.0562,-3.0581,-3.0692,-3.1438,-3.2709,-3.4405,-3.5829,-3.7167,-3.8761,-3.8919,-3.8621,-3.8627,-3.8127,-3.8079,-3.8563,-3.8794,-3.9328,-3.985,-3.9718,-3.9708,-3.9664,-3.966,-3.9648,-3.9599,-3.9483,-3.9451,-3.9451,-3.9432,-3.9406,-3.9373,-3.9352,-3.9266,-3.905,-3.8993,-3.8877,-3.8758,-3.8634,-3.8525,-3.835,-3.8203,-3.8069,-3.7966,-3.7862,-3.7739,-3.7649,-3.7521,-3.7391,-3.7278,-3.7085,-3.6771,-3.6468,-3.6293,-3.6058,-3.5817,-3.5503,-3.5205,-3.4705,-3.4098,-3.35,-3.2943,-3.2272,-3.179,-3.159,-3.1653,-3.2038,-3.2367,-3.2793,-3.3521,-3.4388,-3.4335,-3.3868,-3.3863,-3.3889,-3.3587,-3.33,-3.2982,-3.2854,-3.2881,-3.2928,-3.2948,-3.5015,-3.431,-3.489,-3.4802,-3.4183,-3.3333,-3.238,-3.1366,-3.0996,-3.0859,-3.0855,-3.0871,-3.0844,-3.0816,-3.0789,-3.0801,-3.0788,-3.0798,-3.0793,-3.0801,-3.0745,-3.0767,-3.0762,-3.0781,-3.077,-3.0717,-3.0704,-3.068,-3.0608,-3.0613,-3.0604,-3.061,-3.0601,-3.0554,-3.0545,-3.0515,-3.0564,-3.0568,-3.1007,-3.1964,-3.4116,-3.5062,-3.6504,-3.909,-3.8857,-3.8886,-3.9323,-3.8834,-3.8843,-3.9108,-3.9223,-3.9624,-3.9804,-3.958,-3.9117,-3.9058,-3.9037,-3.9247,-3.9543,-3.9677,-3.957,-3.9552,-3.9521,-3.9458,-3.9315,-3.936,-3.9275,-3.9175,-3.9087,-3.8993,-3.8877,-3.8818,-3.8698,-3.843,-3.8252,-3.8154,-3.8053,-3.7966,-3.788,-3.7846,-3.7739,-3.7431,-3.7228,-3.6949,-3.6659,-3.6571,-3.6395,-3.6165,-3.5932,-3.5549,-3.5205,-3.4792,-3.4266,-3.3636,-3.3062,-3.2723,-3.2353,-3.216,-3.1999,-3.2031,-3.2336,-3.2786,-3.3438,-3.4436,-3.4138,-3.3814,-3.3826,-3.3794,-3.3691,-3.345,-3.308,-3.3053,-3.3275,-3.3138,-3.2917,-3.5161,-3.4751,-3.4975,-3.4791,-3.4197,-3.3646,-3.244,-3.1113,-3.0918,-3.0918,-3.0896,-3.0894,-3.0849,-3.0801,-3.0796,-3.0792,-3.0764,-3.0425,-3.0695,-3.0663,-3.0425,-3.0509,-3.0653,-3.0742,-3.0742,-3.0695,-3.0678,-3.0653,-3.0617,-3.0629,-3.0625,-3.0613,-3.0604,-3.0586,-3.0564,-3.0559,-3.0559,-3.054,-3.08,-3.1637,-3.3353,-3.4632,-3.5898,-3.799,-3.8833,-3.8959,-3.9415,-3.945,-3.9183,-3.9223,-3.9276,-3.9423,-3.9147,-3.8804,-3.8336,-3.8297,-3.8609,-3.9033,-3.9686,-3.9837,-3.9735,-3.9677,-3.9588,-3.9477,-3.9356,-3.9413,-3.9322,-3.9224,-3.917,-3.9073,-3.8964,-3.8954,-3.8758,-3.8496,-3.8368,-3.8254,-3.8139,-3.8053,-3.7915,-3.7881,-3.756,-3.7309,-3.7035,-3.6811,-3.651,-3.6499,-3.6496,-3.6272,-3.6023,-3.5684,-3.5337,-3.4968,-3.4648,-3.4173,-3.3785,-3.3525,-3.3144,-3.2733,-3.2692,-3.2684,-3.2991,-3.3581,-3.4024,-3.4302,-3.4072,-3.3876,-3.3784,-3.3693,-3.3538,-3.3341,-3.308,-3.3216,-3.3595,-3.3373,-3.3014,-3.4645,-3.4501,-3.3774,-3.3434,-3.3249,-3.2917,-3.2126,-3.0976,-3.0937,-3.0918,-3.0914,-3.0834,-3.0829,-3.0823,-3.0801,-3.0721,-3.054,-2.9893,-3.0009,-3.0221,-2.99,-3.0158,-3.0416,-3.056,-3.0439,-3.051,-3.0386,-3.0012,-3.0416,-3.0133,-3.0172,-3.0451,-3.0341,-3.043,-3.0503,-3.0582,-3.0554,-3.0525,-3.0637,-3.1526,-3.2876,-3.3856,-3.5419,-3.7229,-3.8318,-3.9031,-3.9398,-3.9358,-3.9088,-3.8821,-3.8427,-3.8097,-3.7825,-3.7658,-3.7603,-3.7823,-3.8356,-3.9061,-3.9907,-3.9967,-3.9922,-3.9848,-3.9777,-3.9635,-3.9526,-3.9483,-3.9382,-3.9251,-3.9202,-3.9106,-3.9007,-3.8925,-3.8807,-3.8621,-3.8481,-3.837,-3.8241,-3.8071,-3.788,-3.7631,-3.7131,-3.6809,-3.6521,-3.6301,-3.6361,-3.6269,-3.6275,-3.626,-3.6028,-3.5861,-3.5543,-3.5291,-3.4981,-3.4778,-3.4469,-3.4103,-3.3933,-3.3543,-3.3771,-3.3868,-3.4137,-3.4096,-3.4279,-3.4313,-3.4108,-3.3947,-3.3814,-3.3604,-3.3318,-3.3179,-3.3291,-3.3267,-3.3588,-3.3407,-3.3203,-3.4497,-3.2974,-3.3901,-3.2933,-3.0696,-3.0028,-3.0456,-3.1579,-3.1189,-3.0917,-3.0879,-3.0878,-3.068,-3.0872,-3.0871,-3.0458,-3.0045,-2.9669,-2.9277,-2.9214,-2.9268,-2.9588,-2.9792,-2.9858,-2.9813,-2.9585,-2.9298,-2.9038,-2.8842,-2.8888,-2.9361,-2.9621,-2.9823,-3.0071,-3.0384,-3.0595,-3.0595,-3.0586,-3.0554,-3.1293,-3.2208,-3.3131,-3.4779,-3.623,-3.7416,-3.8222,-3.863,-3.858,-3.8331,-3.8151,-3.8008,-3.786,-3.7871,-3.7298,-3.6951,-3.7656,-3.8104,-3.8657,-3.9881,-4.0167,-4.0077,-3.9996,-3.99,-3.9724,-3.9587,-3.9521,-3.9427,-3.9218,-3.9101,-3.9011,-3.8827,-3.8703,-3.8681,-3.8621,-3.8481,-3.832,-3.8189,-3.8054,-3.7845,-3.7488,-3.6988,-3.6702,-3.6362,-3.6182,-3.6246,-3.6089,-3.6033,-3.6073,-3.6065,-3.5924,-3.5684,-3.5435,-3.5268,-3.5041,-3.4835,-3.4534,-3.4496,-3.4423,-3.4546,-3.4521,-3.4399,-3.4333,-3.4398,-3.428,-3.4055,-3.3921,-3.3854,-3.3597,-3.3356,-3.3738,-3.3866,-3.3678,-3.3505,-3.3351,-3.3181,-3.4489,-3.3161,-3.3064,-3.1507,-2.9247,-2.8823,-2.9565,-3.0389,-3.0068,-2.9878,-2.9862,-2.9824,-2.9863,-2.9784,-2.9745,-2.9529,-2.9078,-2.8585,-2.8367,-2.8659,-2.8495,-2.8676,-2.8842,-2.8985,-2.8956,-2.8688,-2.8466,-2.8304,-2.7977,-2.8074,-2.8492,-2.8886,-2.9142,-2.9636,-3.0056,-3.0401,-3.0634,-3.061,-3.072,-3.1133,-3.1821,-3.2682,-3.404,-3.535,-3.6389,-3.7217,-3.781,-3.777,-3.7516,-3.7353,-3.7278,-3.7168,-3.7356,-3.7151,-3.7443,-3.8112,-3.839,-3.9087,-4.0033,-4.0206,-4.0166,-4.0096,-3.9973,-3.9781,-3.9689,-3.963,-3.9276,-3.8958,-3.8914,-3.8831,-3.865,-3.8496,-3.8538,-3.8588,-3.8415,-3.8271,-3.8138,-3.8002,-3.7718,-3.7415,-3.7094,-3.6809,-3.6559,-3.6327,-3.6233,-3.6306,-3.6219,-3.602,-3.6087,-3.6092,-3.5822,-3.5554,-3.5412,-3.5251,-3.5071,-3.4883,-3.4804,-3.4707,-3.4732,-3.4667,-3.457,-3.4464,-3.4415,-3.4224,-3.3949,-3.3899,-3.3873,-3.3658,-3.3535,-3.3857,-3.3912,-3.3529,-3.3345,-3.3395,-3.3209,-3.4354,-3.3891,-3.1473,-2.9519,-2.8296,-2.866,-2.8573,-2.805,-2.8076,-2.8229,-2.835,-2.8354,-2.8514,-2.8691,-2.8672,-2.8496,-2.8125,-2.7673,-2.7554,-2.8101,-2.7622,-2.7668,-2.8002,-2.8095,-2.8101,-2.8068,-2.7822,-2.7375,-2.7715,-2.763,-2.7586,-2.8112,-2.8838,-2.9396,-2.9923,-3.0415,-3.0754,-3.0991,-3.0966,-3.1163,-3.1757,-3.2701,-3.3844,-3.52,-3.6206,-3.7063,-3.7446,-3.7256,-3.671,-3.6415,-3.6215,-3.6112,-3.6551,-3.7249,-3.7929,-3.8576,-3.872,-3.9419,-4.0003,-4.0234,-4.0186,-4.0077,-3.9951,-3.9815,-3.9758,-3.9406,-3.8968,-3.8552,-3.8428,-3.8097,-3.7873,-3.7729,-3.7722,-3.7875,-3.7888,-3.779,-3.7736,-3.7712,-3.7754,-3.7469,-3.7291,-3.6988,-3.6595,-3.6364,-3.6254,-3.6472,-3.6389,-3.6073,-3.6076,-3.6172,-3.5856,-3.557,-3.5532,-3.5389,-3.5205,-3.5041,-3.4994,-3.4923,-3.4842,-3.4828,-3.4691,-3.4546,-3.4399,-3.4209,-3.4009,-3.3949,-3.3848,-3.3684,-3.3545,-3.3483,-3.3461,-3.319,-3.315,-3.3334,-3.3172,-3.2738,-3.1338,-2.8803,-2.7482,-2.7103,-2.6684,-2.6454,-2.6223,-2.6291,-2.7096,-2.8104,-2.8248,-2.8196,-2.8083,-2.8064,-2.7849,-2.7265,-2.7012,-2.6718,-2.6833,-2.667,-2.6913,-2.7234,-2.7279,-2.7258,-2.6992,-2.6668,-2.6391,-2.6479,-2.6456,-2.6644,-2.7243,-2.8112,-2.8942,-2.9962,-3.049,-3.0897,-3.1398,-3.1313,-3.1207,-3.1471,-3.2445,-3.357,-3.436,-3.5137,-3.6081,-3.639,-3.6193,-3.5919,-3.5772,-3.5662,-3.5637,-3.5741,-3.6603,-3.7364,-3.809,-3.8884,-3.9489,-3.9895,-4.0061,-3.9948,-4.0032,-3.9969,-3.9903,-3.9645,-3.9071,-3.8602,-3.8199,-3.7841,-3.7511,-3.7174,-3.705,-3.6957,-3.7172,-3.7356,-3.7338,-3.7314,-3.7511,-3.7701,-3.7631,-3.747,-3.7148,-3.6737,-3.6506,-3.6381,-3.6288,-3.6175,-3.602,-3.6115,-3.6149,-3.5685,-3.5479,-3.5599,-3.5487,-3.5253,-3.5008,-3.4855,-3.4811,-3.4717,-3.4736,-3.4787,-3.4546,-3.4325,-3.4275,-3.4151,-3.4025,-3.3873,-3.3745,-3.3607,-3.345,-3.3346,-3.3214,-3.316,-3.3269,-3.3041,-3.2012,-3.0847,-2.84,-2.7117,-2.6652,-2.5907,-2.5564,-2.557,-2.5593,-2.6152,-2.7018,-2.7139,-2.7153,-2.7157,-2.7138,-2.7045,-2.6462,-2.6425,-2.6191,-2.6053,-2.6127,-2.6293,-2.6421,-2.647,-2.6385,-2.6157,-2.5912,-2.5676,-2.5598,-2.5668,-2.6057,-2.6537,-2.7457,-2.864,-2.9774,-3.0231,-3.1114,-3.1859,-3.1635,-3.1538,-3.1615,-3.2932,-3.3747,-3.4283,-3.4891,-3.5639,-3.5704,-3.5669,-3.5667,-3.5809,-3.5938,-3.644,-3.682,-3.759,-3.8289,-3.8813,-3.9235,-3.9336,-3.9602,-3.9569,-3.9441,-3.9481,-3.9517,-3.9292,-3.9675,-3.918,-3.8656,-3.8282,-3.815,-3.7828,-3.715,-3.6879,-3.6716,-3.6786,-3.6842,-3.6841,-3.7023,-3.7249,-3.7552,-3.7809,-3.7685,-3.7577,-3.7255,-3.7149,-3.688,-3.6076,-3.5948,-3.5604,-3.576,-3.6102,-3.5645,-3.536,-3.5487,-3.5233,-3.479,-3.4638,-3.4541,-3.4526,-3.4631,-3.4556,-3.4535,-3.4399,-3.4275,-3.4226,-3.4151,-3.4,-3.3873,-3.3771,-3.3658,-3.3477,-3.3424,-3.3356,-3.3314,-3.3261,-3.3165,-3.1526,-3.1128,-2.8932,-2.7469,-2.664,-2.5816,-2.548,-2.5499,-2.5528,-2.5559,-2.5751,-2.5834,-2.569,-2.5693,-2.5697,-2.5629,-2.5657,-2.5858,-2.5703,-2.5526,-2.5696,-2.5904,-2.5894,-2.5783,-2.5822,-2.5795,-2.5648,-2.5601,-2.5604,-2.5609,-2.5734,-2.5999,-2.7014,-2.8298,-2.8785,-2.9787,-3.1109,-3.1638,-3.177,-3.1923,-3.2813,-3.393,-3.4198,-3.4676,-3.5305,-3.5717,-3.5732,-3.5733,-3.5727,-3.5853,-3.6155,-3.6665,-3.7369,-3.8019,-3.8747,-3.9242,-3.9245,-3.913,-3.8953,-3.849,-3.852,-3.8593,-3.8633,-3.881,-3.9159,-3.9093,-3.8587,-3.8407,-3.8265,-3.7877,-3.72,-3.6813,-3.6652,-3.6473,-3.649,-3.6468,-3.673,-3.6944,-3.7272,-3.7645,-3.7575,-3.754,-3.7703,-3.7596,-3.7023,-3.622,-3.5736,-3.527,-3.51,-3.5608,-3.5665,-3.5425,-3.5407,-3.5018,-3.4481,-3.4348,-3.4314,-3.4595,-3.4672,-3.4506,-3.4364,-3.4366,-3.4325,-3.4176,-3.4101,-3.4,-3.3889,-3.3787,-3.3658,-3.3555,-3.3513,-3.3513,-3.3487,-3.3461,-3.3424,-3.0268,-2.9587,-2.8386,-2.7417,-2.6588,-2.5753,-2.5422,-2.5453,-2.5499,-2.559,-2.5468,-2.5613,-2.5701,-2.5672,-2.5702,-2.5456,-2.4955,-2.5213,-2.5019,-2.4764,-2.5114,-2.5459,-2.5663,-2.5612,-2.5636,-2.5574,-2.5513,-2.5586,-2.5457,-2.5506,-2.562,-2.5738,-2.7293,-2.8463,-2.9313,-3.0261,-3.0978,-3.1548,-3.1885,-3.2002,-3.2402,-3.3281,-3.3903,-3.4536,-3.5329,-3.565,-3.5797,-3.5799,-3.5757,-3.5771,-3.5913,-3.6472,-3.7147,-3.793,-3.8525,-3.8792,-3.8815,-3.8589,-3.8182,-3.7709,-3.7715,-3.7882,-3.7898,-3.787,-3.8216,-3.8548,-3.8239,-3.8241,-3.8037,-3.7619,-3.7106,-3.6994,-3.6848,-3.6578,-3.6477,-3.6379,-3.6435,-3.6465,-3.6599,-3.6673,-3.6629,-3.7031,-3.7666,-3.7417,-3.6988,-3.6487,-3.6625,-3.6156,-3.5668,-3.5704,-3.5647,-3.5469,-3.5284,-3.4994,-3.4523,-3.4257,-3.4242,-3.457,-3.4768,-3.4646,-3.4552,-3.4496,-3.4423,-3.425,-3.4126,-3.405,-3.394,-3.3787,-3.3761,-3.3658,-3.3668,-3.3642,-3.3658,-3.3658,-3.3607]},{"header":{"parameterUnit":"m.s-1","parameterCategory":1,"la1":31.0,"la2":29.5877,"lo1":-88.7671,"lo2":-86.6584,"dy":0.0162,"dx":0.0185,"nx":115,"ny":88,"refTime":"2023-04-27T12:00:00:Z","depth":0,"parameterNumber":3,"parameterNumberName":"V-component_of_WINDS"},"data":[0.0,0.0,0.0,0.0,0.0,0.0,0.0,0.0,0.0,0.0,0.0,0.0,0.0,0.0,0.0,0.0,0.0,0.0,0.0,0.0,0.0,0.0,0.0,0.0,0.0,0.0,0.0,0.0,0.0,0.0,0.0,0.0,0.0,0.0,0.0,0.0,0.0,0.0,0.0,0.0,0.0,0.0,0.0,0.0,0.0,0.0,0.0,0.0,0.0,0.0,0.0,0.0,0.0,0.0,0.0,0.0,0.0,0.0,0.0,0.0,0.0,0.0,0.0,0.0,0.0,0.0,0.0,0.0,0.0,0.0,0.0,0.0,0.0,0.0,0.0,0.0,0.0,0.0,0.0,0.0,0.0,0.0,0.0,0.0,0.0,0.0,0.0,0.0,0.0,0.0,0.0,0.0,0.0,0.0,0.0,0.0,0.0,0.0,0.0,0.0,0.0,0.0,0.0,0.0,0.0,0.0,0.0,0.0,0.0,0.0,0.0,0.0,0.0,0.0,0.0,0.0,0.0,0.0,0.0,0.0,0.0,0.0,0.0,0.0,0.0,0.0,0.0,0.0,0.0,0.0,0.0,0.0,0.0,0.0,0.0,0.0,0.0,0.0,0.0,0.0,0.0,0.0,0.0,0.0,0.0,0.0,0.0,0.0,0.0,0.0,0.0,0.0,0.0,0.0,0.0,0.0,0.0,0.0,0.0,0.0,0.0,0.0,0.0,0.0,0.0,0.0,0.0,0.0,0.0,0.0,0.0,0.0,0.0,0.0,0.0,0.0,0.0,0.0,0.0,0.0,0.0,0.0,0.0,0.0,0.0,0.0,0.0,0.0,0.0,0.0,0.0,0.0,0.0,0.0,0.0,0.0,0.0,0.0,0.0,0.0,0.0,0.0,0.0,0.0,0.0,0.0,0.0,0.0,0.0,0.0,0.0,0.0,0.0,0.0,0.0,0.0,0.0,0.0,0.0,0.0,0.0,0.0,0.0,0.0,0.0,0.0,0.0,0.0,0.0,0.0,0.0,0.0,0.0,0.0,0.0,0.0,0.0,0.0,0.0,0.0,0.0,0.0,0.0,0.0,0.0,0.0,0.0,0.0,0.0,0.0,0.0,0.0,0.0,0.0,0.0,0.0,0.0,0.0,0.0,0.0,0.0,0.0,0.0,0.0,0.0,0.0,0.0,0.0,0.0,0.0,0.0,0.0,0.0,0.0,0.0,0.0,0.0,0.0,0.0,0.0,0.0,0.0,0.0,0.0,0.0,0.0,0.0,0.0,0.0,0.0,0.0,0.0,0.0,0.0,0.0,0.0,0.0,0.0,0.0,0.0,0.0,0.0,0.0,0.0,0.0,0.0,0.0,0.0,0.0,0.0,0.0,0.0,0.0,0.0,0.0,0.0,0.0,0.0,0.0,0.0,0.0,0.0,0.0,0.0,0.0,0.0,0.0,0.0,0.0,0.0,0.0,0.0,0.0,0.0,0.0,0.0,0.0,0.0,0.0,0.0,0.0,0.0,0.0,0.0,0.0,0.0,0.0,0.0,0.0,0.0,0.0,0.0,0.0,0.0,0.0,0.0,0.0,0.0,0.0,0.0,0.0,0.0,0.0,0.0,0.0,0.0,0.0,0.0,0.0,0.0,0.0,0.0,0.0,0.0,0.0,0.0,0.0,0.0,0.0,0.0,0.0,0.0,0.0,0.0,0.0,0.0,0.0,0.0,0.0,0.0,0.0,0.0,0.0,0.0,0.0,0.0,0.0,0.0,0.0,0.0,0.0,0.0,0.0,0.0,0.0,0.0,0.0,0.0,0.0,0.0,0.0,0.0,0.0,0.0,0.0,0.0,0.0,0.0,0.0,0.0,0.0,0.0,0.0,0.0,0.0,0.0,0.0,0.0,0.0,0.0,0.0,0.0,0.0,0.0,0.0,0.0,0.0,0.0,0.0,0.0,0.0,0.0,0.0,0.0,0.0,0.0,0.0,0.0,0.0,0.0,0.0,0.0,0.0,0.0,0.0,0.0,0.0,0.0,0.0,0.0,0.0,0.0,0.0,0.0,0.0,0.0,0.0,0.0,0.0,0.0,0.0,0.0,0.0,0.0,0.0,0.0,0.0,0.0,0.0,0.0,0.0,0.0,0.0,0.0,0.0,0.0,0.0,0.0,0.0,0.0,0.0,0.0,0.0,0.0,0.0,0.0,0.0,0.0,0.0,0.0,0.0,0.0,0.0,0.0,0.0,0.0,0.0,0.0,0.0,0.0,0.0,0.0,0.0,0.0,0.0,0.0,0.0,0.0,0.0,0.0,0.0,0.0,0.0,0.0,0.0,0.0,0.0,0.0,0.0,0.0,0.0,0.0,0.0,0.0,0.0,0.0,0.0,0.0,0.0,0.0,0.0,0.0,0.0,0.0,0.0,0.0,0.0,0.0,0.0,0.0,0.0,0.0,0.0,0.0,0.0,0.0,0.0,0.0,0.0,0.0,0.0,0.0,0.0,0.0,0.0,0.0,0.0,0.0,0.0,0.0,0.0,0.0,0.0,0.0,0.0,0.0,0.0,0.0,0.0,0.0,0.0,0.0,0.0,0.0,0.0,0.0,0.0,0.0,0.0,0.0,0.0,0.0,0.0,0.0,0.0,0.0,0.0,0.0,0.0,0.0,0.0,0.0,0.0,0.0,0.0,0.0,0.0,0.0,0.0,0.0,0.0,0.0,0.0,0.0,0.0,0.0,0.0,0.0,0.0,0.0,0.0,0.0,0.0,0.0,0.0,0.0,0.0,0.0,0.0,0.0,0.0,0.0,0.0,0.0,0.0,0.0,0.0,0.0,0.0,0.0,0.0,0.0,0.0,0.0,0.0,0.0,0.0,0.0,0.0,0.0,0.0,0.0,0.0,0.0,0.0,0.0,0.0,0.0,0.0,0.0,0.0,0.0,0.0,0.0,0.0,0.0,0.0,0.0,0.0,0.0,0.0,0.0,0.0,0.0,0.0,0.0,0.0,0.0,0.0,0.0,0.0,0.0,0.0,0.0,0.0,0.0,0.0,0.0,0.0,0.0,0.0,0.0,0.0,0.0,0.0,0.0,0.0,0.0,0.0,0.0,0.0,0.0,0.0,0.0,0.0,0.0,0.0,0.0,0.0,0.0,0.0,0.0,0.0,0.0,0.0,0.0,0.0,0.0,0.0,0.0,0.0,0.0,0.0,0.0,0.0,0.0,0.0,0.0,0.0,0.0,0.0,0.0,0.0,0.0,0.0,0.0,0.0,0.0,0.0,0.0,0.0,0.0,0.0,0.0,0.0,0.0,0.0,0.0,0.0,0.0,0.0,0.0,0.0,0.0,0.0,0.0,0.0,0.0,0.0,0.0,0.0,0.0,0.0,0.0,0.0,0.0,0.0,0.0,0.0,0.0,0.0,0.0,0.0,0.0,0.0,0.0,0.0,0.0,0.0,0.0,0.0,0.0,0.0,0.0,0.0,0.0,0.0,0.0,0.0,0.0,0.0,0.0,0.0,0.0,0.0,0.0,0.0,0.0,0.0,0.0,0.0,0.0,0.0,0.0,0.0,0.0,0.0,0.0,0.0,0.0,0.0,0.0,0.0,0.0,0.0,0.0,0.0,0.0,0.0,0.0,0.0,0.0,0.0,0.0,0.0,0.0,0.0,0.0,0.0,0.0,0.0,0.0,0.0,0.0,0.0,0.0,0.0,0.0,0.0,0.0,0.0,0.0,0.0,0.0,0.0,0.0,0.0,0.0,0.0,0.0,0.0,0.0,0.0,0.0,0.0,0.0,0.0,0.0,0.0,0.0,0.0,0.0,0.0,0.0,0.0,0.0,0.0,0.0,0.0,0.0,0.0,0.0,0.0,0.0,0.0,0.0,0.0,0.0,0.0,0.0,0.0,0.0,0.0,0.0,0.0,0.0,0.0,0.0,0.0,0.0,0.0,0.0,0.0,0.0,0.0,0.0,0.0,0.0,0.0,0.0,0.0,0.0,0.0,0.0,0.0,0.0,0.0,0.0,0.0,0.0,0.0,0.0,0.0,0.0,0.0,0.0,0.0,0.0,0.0,0.0,0.0,0.0,0.0,0.0,0.0,0.0,0.0,0.0,0.0,0.0,0.0,0.0,0.0,0.0,0.0,0.0,0.0,0.0,0.0,0.0,0.0,0.0,0.0,0.0,0.0,0.0,0.0,0.0,0.0,0.0,0.0,0.0,0.0,0.0,0.0,0.0,0.0,0.0,0.0,0.0,0.0,0.0,0.0,0.0,0.0,0.0,-0.5771,0.0,0.0,0.0,0.0,0.0,0.0,0.0,0.0,0.0,0.0,0.0,0.0,0.0,0.0,0.0,0.0,0.0,0.0,0.0,0.0,0.0,0.0,0.0,0.0,0.0,0.0,0.0,0.0,0.0,0.0,0.0,0.0,0.0,0.0,0.0,0.0,0.0,0.0,0.0,0.0,0.0,0.0,0.0,0.0,0.0,0.0,0.0,0.0,0.0,0.0,0.0,0.0,0.0,0.0,0.0,0.0,0.0,0.0,0.0,0.0,0.0,0.0,0.0,0.0,0.0,0.0,0.0,0.0,0.0,0.0,0.0,0.0,0.0,0.0,0.0,0.0,0.0,0.0,0.0,0.0,0.0,0.0,0.0,0.0,0.0,0.0,0.0,0.0,0.0,0.0,0.0,0.0,0.0,0.0,0.0,0.0,0.0,0.0,0.0,0.0,0.0,0.0,0.0,0.0,0.0,0.0,0.0,0.0,0.0,0.0,-0.5708,-0.5653,-0.5808,-0.5797,-0.5575,0.0,0.0,0.0,0.0,0.0,0.0,0.0,0.0,0.0,0.0,0.0,0.0,0.0,0.0,0.0,0.0,0.0,0.0,0.0,0.0,0.0,0.0,0.0,0.0,0.0,0.0,0.0,0.0,0.0,0.0,0.0,0.0,0.0,0.0,0.0,0.0,0.0,0.0,0.0,0.0,0.0,0.0,0.0,0.0,0.0,0.0,0.0,0.0,0.0,0.0,0.0,0.0,0.0,0.0,0.0,0.0,0.0,0.0,0.0,0.0,0.0,0.0,0.0,0.0,0.0,0.0,0.0,0.0,0.0,0.0,0.0,0.0,0.0,0.0,0.0,0.0,0.0,0.0,0.0,0.0,0.0,0.0,0.0,0.0,0.0,0.0,0.0,0.0,0.0,0.0,0.0,0.0,0.0,0.0,0.0,0.0,0.0,0.0,0.0,0.0,0.0,0.0,0.0,0.0,0.0,0.0,0.0,0.0,0.0,0.0,0.0,0.0,-0.567,-0.5575,-0.5282,0.0,0.0,0.0,0.0,0.0,0.0,0.0,0.0,0.0,0.0,0.0,0.0,0.0,0.0,0.0,0.0,0.0,0.0,0.0,0.0,0.0,0.0,0.0,0.0,0.0,0.0,0.0,0.0,0.0,0.0,0.0,0.0,0.0,0.0,0.0,0.0,0.0,0.0,0.0,0.0,0.0,0.0,0.0,0.0,0.0,0.0,0.0,0.0,0.0,0.0,0.0,0.0,0.0,0.0,0.0,0.0,0.0,0.0,0.0,0.0,0.0,0.0,0.0,0.0,0.0,0.0,0.0,0.0,0.0,0.0,0.0,0.0,0.0,0.0,0.0,0.0,0.0,0.0,0.0,0.0,0.0,0.0,0.0,0.0,0.0,0.0,0.0,0.0,0.0,0.0,0.0,0.0,0.0,0.0,0.0,0.0,0.0,0.0,0.0,0.0,0.0,0.0,0.0,0.0,0.0,0.0,0.0,0.0,0.0,0.0,-0.5406,-0.5156,-0.5175,0.0,-0.5137,0.0,0.0,0.0,0.0,0.0,0.0,0.0,0.0,0.0,0.0,0.0,0.0,0.0,0.0,0.0,0.0,0.0,0.0,0.0,0.0,0.0,0.0,0.0,0.0,0.0,0.0,0.0,0.0,0.0,0.0,0.0,0.0,0.0,0.0,0.0,0.0,0.0,0.0,0.0,0.0,0.0,0.0,0.0,0.0,0.0,0.0,0.0,0.0,0.0,0.0,0.0,0.0,0.0,0.0,0.0,0.0,0.0,0.0,0.0,0.0,0.0,0.0,0.0,0.0,0.0,0.0,0.0,0.0,0.0,0.0,0.0,0.0,0.0,0.0,0.0,0.0,0.0,0.0,0.0,0.0,0.0,0.0,0.0,0.0,0.0,0.0,0.0,0.0,0.0,0.0,0.0,0.0,0.0,0.0,0.0,0.0,0.0,0.0,0.0,0.0,0.0,0.0,0.0,0.0,0.0,0.0,0.0,0.0,0.0,0.0,-0.5797,-0.5581,-0.5618,-0.5653,0.0,0.0,0.0,0.0,0.0,0.0,0.0,0.0,0.0,0.0,0.0,0.0,0.0,0.0,0.0,0.0,0.0,0.0,0.0,0.0,0.0,0.0,0.0,0.0,0.0,0.0,0.0,0.0,0.0,0.0,0.0,0.0,0.0,0.0,0.0,0.0,0.0,0.0,0.0,0.0,0.0,0.0,0.0,0.0,0.0,0.0,0.0,0.0,0.0,0.0,0.0,0.0,0.0,0.0,0.0,0.0,0.0,0.0,0.0,0.0,0.0,0.0,0.0,0.0,0.0,0.0,0.0,0.0,0.0,0.0,0.0,0.0,0.0,0.0,0.0,0.0,0.0,0.0,0.0,0.0,0.0,0.0,0.0,0.0,0.0,0.0,0.0,0.0,0.0,0.0,0.0,0.0,0.0,0.0,0.0,0.0,0.0,0.0,0.0,0.0,0.0,0.0,0.0,0.0,0.0,0.0,0.0,0.0,0.0,0.0,-0.6213,-0.6204,-0.6038,-0.5981,-0.6026,-0.6156,0.0,0.0,0.0,0.0,0.0,0.0,0.0,0.0,0.0,0.0,0.0,0.0,0.0,0.0,0.0,0.0,0.0,0.0,0.0,0.0,0.0,0.0,0.0,0.0,0.0,0.0,0.0,0.0,0.0,0.0,0.0,0.0,0.0,0.0,0.0,0.0,0.0,0.0,0.0,0.0,0.0,0.0,0.0,0.0,0.0,0.0,0.0,0.0,0.0,0.0,0.0,0.0,0.0,0.0,0.0,0.0,0.0,0.0,0.0,0.0,0.0,0.0,0.0,0.0,0.0,0.0,0.0,0.0,0.0,0.0,0.0,0.0,0.0,0.0,0.0,0.0,0.0,0.0,0.0,0.0,0.0,0.0,0.0,0.0,0.0,0.0,0.0,0.0,0.0,0.0,0.0,0.0,0.0,0.0,0.0,0.0,0.0,0.0,0.0,0.0,0.0,0.0,0.0,0.0,0.0,0.0,0.0,0.0,-0.6294,-0.642,-0.642,-0.6282,-0.6043,-0.6034,0.0,0.0,0.0,0.0,0.0,0.0,0.0,0.0,0.0,0.0,0.0,0.0,0.0,0.0,0.0,0.0,0.0,0.0,0.0,0.0,0.0,0.0,0.0,0.0,0.0,0.0,0.0,0.0,0.0,0.0,0.0,0.0,0.0,0.0,0.0,0.0,0.0,0.0,0.0,0.0,0.0,0.0,0.0,0.0,0.0,0.0,0.0,0.0,0.0,0.0,0.0,0.0,0.0,0.0,0.0,0.0,0.0,0.0,0.0,0.0,0.0,0.0,0.0,0.0,0.0,0.0,0.0,0.0,0.0,0.0,0.0,0.0,0.0,0.0,0.0,0.0,0.0,0.0,0.0,0.0,0.0,0.0,0.0,0.0,0.0,0.0,0.0,0.0,0.0,0.0,0.0,0.0,0.0,0.0,0.0,0.0,0.0,0.0,0.0,0.0,0.0,0.0,0.0,0.0,0.0,0.0,0.0,0.0,0.0,-0.6689,-0.6893,-0.6906,-0.6693,-0.6794,-0.6843,0.0,0.0,0.0,0.0,0.0,0.0,0.0,0.0,0.0,0.0,0.0,0.0,0.0,0.0,0.0,0.0,0.0,0.0,0.0,0.0,0.0,0.0,0.0,0.0,0.0,0.0,0.0,0.0,0.0,0.0,0.0,0.0,0.0,0.0,0.0,0.0,0.0,0.0,0.0,0.0,0.0,0.0,0.0,0.0,0.0,0.0,0.0,0.0,0.0,0.0,0.0,0.0,0.0,0.0,0.0,0.0,0.0,0.0,0.0,0.0,0.0,0.0,0.0,0.0,0.0,0.0,0.0,0.0,0.0,0.0,0.0,0.0,0.0,0.0,0.0,0.0,0.0,0.0,0.0,0.0,0.0,0.0,0.0,0.0,0.0,0.0,0.0,0.0,0.0,0.0,0.0,0.0,0.0,0.0,0.0,0.0,0.0,0.0,0.0,0.0,0.0,0.0,0.0,0.0,0.0,0.0,0.0,0.0,0.0,-0.7137,0.0,-0.728,-0.7139,-0.7203,-0.7235,0.0,0.0,0.0,0.0,0.0,0.0,0.0,0.0,0.0,0.0,0.0,0.0,0.0,0.0,0.0,0.0,0.0,0.0,0.0,0.0,0.0,0.0,0.0,0.0,0.0,0.0,0.0,0.0,0.0,0.0,0.0,0.0,0.0,0.0,0.0,0.0,0.0,0.0,0.0,0.0,0.0,0.0,0.0,0.0,0.0,0.0,0.0,0.0,0.0,0.0,0.0,0.0,0.0,0.0,0.0,0.0,0.0,0.0,0.0,0.0,0.0,0.0,0.0,0.0,0.0,0.0,0.0,0.0,0.0,0.0,0.0,0.0,0.0,0.0,0.0,0.0,0.0,0.0,0.0,0.0,0.0,0.0,0.0,0.0,0.0,0.0,0.0,0.0,0.0,0.0,0.0,0.0,0.0,0.0,0.0,0.0,0.0,0.0,0.0,0.0,0.0,0.0,0.0,0.0,0.0,0.0,0.0,0.0,-0.7894,-0.7646,-0.7511,-0.7568,-0.7596,-0.7247,-0.7153,0.0,0.0,0.0,0.0,0.0,0.0,0.0,0.0,0.0,0.0,0.0,0.0,0.0,0.0,0.0,0.0,0.0,0.0,0.0,0.0,0.0,0.0,0.0,0.0,0.0,0.0,0.0,0.0,0.0,0.0,0.0,0.0,0.0,0.0,0.0,0.0,0.0,0.0,0.0,0.0,0.0,0.0,0.0,0.0,0.0,0.0,0.0,0.0,0.0,0.0,0.0,0.0,0.0,0.0,0.0,0.0,0.0,0.0,0.0,0.0,0.0,0.0,0.0,0.0,0.0,0.0,0.0,0.0,0.0,0.0,0.0,0.0,0.0,0.0,0.0,0.0,0.0,0.0,0.0,0.0,0.0,0.0,0.0,0.0,0.0,0.0,0.0,0.0,0.0,0.0,0.0,0.0,0.0,0.0,0.0,0.0,0.0,0.0,0.0,0.0,0.0,0.0,0.0,0.0,0.0,0.0,0.0,0.0,0.0,-0.8844,-0.8973,-0.8973,-0.8847,-0.8829,-0.8785,0.0,0.0,0.0,0.0,0.0,0.0,0.0,0.0,0.0,0.0,0.0,0.0,0.0,0.0,0.0,0.0,0.0,0.0,0.0,0.0,0.0,0.0,0.0,0.0,0.0,0.0,0.0,0.0,0.0,0.0,0.0,0.0,0.0,0.0,0.0,0.0,0.0,0.0,0.0,0.0,0.0,0.0,0.0,0.0,0.0,0.0,0.0,0.0,0.0,0.0,0.0,0.0,0.0,0.0,0.0,0.0,0.0,0.0,0.0,0.0,0.0,0.0,0.0,0.0,0.0,0.0,0.0,0.0,0.0,0.0,0.0,0.0,0.0,0.0,0.0,0.0,0.0,0.0,0.0,0.0,0.0,0.0,0.0,0.0,0.0,0.0,0.0,0.0,0.0,0.0,0.0,0.0,0.0,0.0,0.0,0.0,0.0,0.0,0.0,0.0,0.0,0.0,0.0,0.0,0.0,0.0,0.0,0.0,0.0,-1.0127,-0.9677,-0.9337,-0.9137,-0.9251,-0.9271,-0.9212,0.0,0.0,0.0,0.0,0.0,0.0,0.0,0.0,0.0,0.0,0.0,0.0,0.0,0.0,0.0,0.0,0.0,0.0,0.0,0.0,0.0,0.0,0.0,0.0,0.0,0.0,0.0,0.0,0.0,0.0,0.0,0.0,0.0,0.0,0.0,0.0,0.0,0.0,0.0,0.0,0.0,0.0,0.0,0.0,0.0,0.0,0.0,0.0,0.0,0.0,0.0,0.0,0.0,0.0,0.0,0.0,0.0,0.0,0.0,0.0,0.0,0.0,0.0,0.0,0.0,0.0,0.0,0.0,0.0,0.0,0.0,0.0,0.0,0.0,0.0,0.0,0.0,0.0,0.0,0.0,0.0,0.0,0.0,0.0,0.0,0.0,0.0,0.0,0.0,0.0,0.0,0.0,0.0,0.0,0.0,0.0,0.0,0.0,0.0,0.0,0.0,0.0,0.0,0.0,0.0,0.0,0.0,0.0,-1.1363,-0.9695,-0.885,-0.8916,-0.8812,-0.8914,0.0,0.0,0.0,0.0,0.0,0.0,0.0,0.0,0.0,0.0,0.0,0.0,0.0,0.0,0.0,0.0,0.0,0.0,0.0,0.0,0.0,0.0,0.0,0.0,0.0,0.0,0.0,0.0,0.0,0.0,0.0,0.0,0.0,0.0,0.0,0.0,0.0,0.0,0.0,0.0,0.0,0.0,0.0,0.0,0.0,0.0,0.0,0.0,0.0,0.0,0.0,0.0,0.0,0.0,0.0,0.0,0.0,0.0,0.0,0.0,0.0,0.0,0.0,0.0,0.0,0.0,0.0,0.0,0.0,0.0,0.0,0.0,0.0,0.0,0.0,0.0,0.0,0.0,0.0,0.0,0.0,0.0,0.0,0.0,0.0,0.0,0.0,0.0,0.0,0.0,0.0,0.0,0.0,0.0,0.0,0.0,0.0,0.0,0.0,0.0,0.0,0.0,0.0,0.0,0.0,0.0,0.0,0.0,0.0,-1.0905,-0.9656,-0.9522,-1.0687,-1.0377,-1.0301,0.0,0.0,0.0,0.0,0.0,0.0,0.0,0.0,0.0,0.0,0.0,0.0,0.0,0.0,0.0,0.0,0.0,0.0,0.0,0.0,0.0,0.0,0.0,0.0,0.0,0.0,0.0,0.0,0.0,0.0,0.0,0.0,0.0,0.0,0.0,0.0,0.0,0.0,0.0,0.0,0.0,0.0,0.0,0.0,0.0,0.0,0.0,0.0,0.0,0.0,0.0,0.0,0.0,0.0,0.0,0.0,0.0,0.0,0.0,0.0,0.0,0.0,0.0,0.0,0.0,0.0,0.0,0.0,0.0,0.0,0.0,0.0,0.0,0.0,0.0,0.0,0.0,0.0,0.0,0.0,0.0,0.0,0.0,0.0,0.0,0.0,0.0,0.0,0.0,0.0,0.0,0.0,0.0,0.0,0.0,0.0,0.0,0.0,0.0,0.0,0.0,0.0,0.0,0.0,0.0,0.0,0.0,0.0,-1.0921,-1.1196,-0.9989,-0.9995,-1.1378,-1.067,-1.0423,0.0,0.0,0.0,0.0,0.0,0.0,0.0,0.0,0.0,0.0,0.0,0.0,0.0,0.0,0.0,0.0,0.0,0.0,0.0,0.0,0.0,0.0,0.0,0.0,0.0,0.0,0.0,0.0,0.0,0.0,0.0,0.0,0.0,0.0,0.0,0.0,0.0,0.0,0.0,0.0,0.0,0.0,0.0,0.0,0.0,0.0,0.0,0.0,0.0,0.0,0.0,0.0,0.0,0.0,0.0,0.0,0.0,0.0,0.0,0.0,0.0,0.0,0.0,0.0,0.0,0.0,0.0,0.0,0.0,0.0,0.0,0.0,0.0,0.0,0.0,0.0,0.0,0.0,0.0,0.0,0.0,0.0,0.0,0.0,0.0,0.0,0.0,0.0,0.0,0.0,0.0,0.0,0.0,0.0,0.0,0.0,0.0,0.0,0.0,0.0,0.0,0.0,0.0,0.0,0.0,0.0,0.0,0.0,-1.106,-1.1775,-1.0489,-1.0255,-1.113,-1.0273,-0.9928,0.0,0.0,0.0,0.0,0.0,0.0,0.0,0.0,0.0,0.0,0.0,0.0,0.0,0.0,0.0,0.0,0.0,0.0,0.0,0.0,0.0,0.0,0.0,0.0,0.0,0.0,0.0,0.0,0.0,0.0,0.0,0.0,0.0,0.0,0.0,0.0,0.0,0.0,0.0,0.0,0.0,0.0,0.0,0.0,0.0,0.0,0.0,0.0,0.0,0.0,0.0,0.0,0.0,0.0,0.0,0.0,0.0,0.0,0.0,0.0,0.0,0.0,0.0,0.0,0.0,0.0,0.0,0.0,0.0,0.0,0.0,0.0,0.0,0.0,0.0,0.0,0.0,0.0,0.0,0.0,0.0,0.0,0.0,0.0,0.0,0.0,0.0,0.0,0.0,0.0,0.0,0.0,0.0,0.0,0.0,0.0,0.0,0.0,0.0,0.0,0.0,0.0,0.0,0.0,0.0,0.0,0.0,0.0,-1.111,-1.1771,-1.0489,-1.0058,-1.057,-1.038,-1.0431,0.0,0.0,0.0,0.0,0.0,0.0,0.0,0.0,0.0,0.0,0.0,0.0,0.0,0.0,0.0,0.0,0.0,0.0,0.0,0.0,0.0,0.0,0.0,0.0,0.0,0.0,0.0,0.0,0.0,0.0,0.0,0.0,0.0,0.0,0.0,0.0,0.0,0.0,0.0,0.0,0.0,0.0,0.0,0.0,0.0,0.0,0.0,0.0,-1.6077,0.0,0.0,0.0,0.0,0.0,0.0,0.0,0.0,0.0,0.0,0.0,0.0,0.0,0.0,0.0,0.0,0.0,0.0,0.0,0.0,0.0,0.0,0.0,0.0,0.0,0.0,0.0,0.0,0.0,0.0,0.0,0.0,0.0,0.0,0.0,0.0,0.0,0.0,0.0,0.0,0.0,0.0,0.0,0.0,0.0,0.0,0.0,0.0,0.0,0.0,0.0,0.0,0.0,0.0,0.0,0.0,0.0,0.0,0.0,-1.1355,-1.1673,-1.0956,-1.0741,-1.1136,-1.1121,-1.0951,0.0,0.0,0.0,0.0,0.0,0.0,0.0,0.0,0.0,0.0,0.0,0.0,0.0,0.0,0.0,0.0,0.0,0.0,0.0,0.0,0.0,0.0,0.0,0.0,0.0,0.0,0.0,0.0,0.0,0.0,0.0,0.0,0.0,0.0,0.0,0.0,0.0,0.0,0.0,0.0,0.0,0.0,0.0,0.0,0.0,0.0,0.0,0.0,0.0,0.0,0.0,0.0,0.0,0.0,0.0,0.0,0.0,0.0,0.0,0.0,0.0,0.0,0.0,0.0,0.0,0.0,0.0,0.0,0.0,0.0,0.0,0.0,0.0,0.0,0.0,0.0,0.0,0.0,0.0,0.0,0.0,0.0,0.0,0.0,0.0,0.0,0.0,0.0,0.0,0.0,0.0,0.0,0.0,0.0,0.0,0.0,0.0,0.0,0.0,0.0,0.0,0.0,0.0,0.0,0.0,0.0,0.0,-1.1865,-1.1865,-1.1854,-1.1731,-1.1815,-1.2125,-1.2065,-1.1596,-1.0758,0.0,0.0,0.0,0.0,0.0,0.0,0.0,0.0,0.0,0.0,0.0,0.0,0.0,0.0,0.0,0.0,0.0,0.0,0.0,0.0,0.0,0.0,0.0,0.0,0.0,0.0,0.0,0.0,0.0,0.0,0.0,0.0,0.0,0.0,0.0,0.0,0.0,0.0,-1.8223,-1.7409,0.0,0.0,0.0,0.0,0.0,0.0,0.0,0.0,-1.6571,0.0,0.0,0.0,0.0,0.0,0.0,0.0,0.0,0.0,0.0,0.0,0.0,0.0,0.0,0.0,0.0,0.0,0.0,0.0,0.0,0.0,0.0,0.0,0.0,0.0,0.0,0.0,0.0,0.0,0.0,0.0,0.0,0.0,0.0,0.0,0.0,0.0,0.0,0.0,0.0,0.0,0.0,0.0,0.0,0.0,0.0,0.0,0.0,0.0,0.0,0.0,0.0,0.0,0.0,0.0,0.0,-1.31,-1.3052,-1.3026,-1.3023,-1.2894,-1.2805,-1.2744,-1.2581,-1.2608,-1.2853,0.0,0.0,0.0,0.0,0.0,0.0,0.0,0.0,0.0,0.0,0.0,0.0,0.0,0.0,0.0,0.0,0.0,0.0,0.0,0.0,0.0,0.0,0.0,0.0,0.0,0.0,0.0,0.0,0.0,0.0,0.0,0.0,0.0,0.0,0.0,0.0,0.0,0.0,0.0,-1.6662,-1.6435,0.0,0.0,0.0,0.0,0.0,0.0,0.0,0.0,-1.7798,0.0,0.0,0.0,0.0,0.0,0.0,0.0,0.0,0.0,0.0,0.0,0.0,0.0,0.0,0.0,0.0,0.0,0.0,0.0,0.0,0.0,0.0,0.0,0.0,0.0,0.0,0.0,0.0,0.0,0.0,0.0,0.0,0.0,0.0,0.0,0.0,0.0,0.0,0.0,0.0,0.0,0.0,0.0,0.0,0.0,0.0,0.0,0.0,0.0,0.0,0.0,0.0,0.0,0.0,0.0,-1.3614,-1.33,-1.3157,-1.3141,-1.3048,-1.308,-1.3247,-1.3001,-1.3404,0.0,0.0,0.0,0.0,0.0,0.0,0.0,0.0,0.0,0.0,0.0,0.0,0.0,0.0,0.0,0.0,0.0,0.0,0.0,0.0,0.0,0.0,0.0,0.0,0.0,0.0,0.0,0.0,0.0,0.0,0.0,0.0,0.0,0.0,0.0,0.0,0.0,0.0,0.0,0.0,-1.7117,-1.6933,-1.7624,0.0,0.0,0.0,0.0,0.0,0.0,-1.8006,-1.7707,0.0,0.0,0.0,0.0,0.0,0.0,0.0,0.0,0.0,0.0,0.0,0.0,0.0,0.0,0.0,0.0,0.0,0.0,0.0,0.0,0.0,0.0,0.0,0.0,0.0,0.0,0.0,0.0,0.0,0.0,0.0,0.0,0.0,0.0,0.0,0.0,0.0,0.0,0.0,0.0,0.0,0.0,0.0,0.0,0.0,0.0,0.0,0.0,0.0,0.0,0.0,0.0,0.0,0.0,0.0,-1.4128,-1.3628,-1.3347,-1.3361,-1.3249,-1.3371,-1.372,-1.3413,-1.398,0.0,0.0,0.0,0.0,0.0,0.0,0.0,0.0,0.0,0.0,0.0,0.0,0.0,0.0,0.0,0.0,0.0,0.0,0.0,0.0,0.0,0.0,0.0,0.0,0.0,0.0,0.0,0.0,0.0,0.0,0.0,0.0,0.0,0.0,0.0,0.0,0.0,0.0,0.0,0.0,0.0,-1.7485,-1.8377,-1.8741,0.0,0.0,0.0,0.0,-1.8323,-1.8092,0.0,0.0,0.0,0.0,0.0,0.0,0.0,0.0,0.0,0.0,0.0,0.0,0.0,0.0,0.0,0.0,0.0,0.0,0.0,0.0,0.0,0.0,0.0,0.0,0.0,0.0,0.0,0.0,0.0,0.0,0.0,0.0,0.0,0.0,0.0,0.0,0.0,0.0,0.0,0.0,0.0,0.0,0.0,0.0,0.0,0.0,0.0,0.0,0.0,0.0,0.0,0.0,0.0,0.0,0.0,0.0,-1.5359,-1.48,-1.4537,-1.4583,-1.4351,-1.4221,-1.4208,-1.3897,-1.4211,0.0,0.0,0.0,0.0,0.0,0.0,0.0,0.0,0.0,0.0,0.0,0.0,0.0,0.0,0.0,0.0,0.0,0.0,0.0,0.0,0.0,0.0,0.0,0.0,0.0,0.0,0.0,0.0,0.0,0.0,0.0,0.0,0.0,0.0,0.0,0.0,0.0,0.0,0.0,0.0,0.0,-1.7471,-1.8765,-1.934,-1.9945,0.0,0.0,-2.0087,-1.8955,-1.8679,0.0,0.0,0.0,0.0,0.0,0.0,0.0,0.0,0.0,0.0,0.0,0.0,0.0,0.0,0.0,0.0,0.0,0.0,0.0,0.0,0.0,0.0,0.0,0.0,0.0,0.0,0.0,0.0,0.0,0.0,0.0,0.0,0.0,0.0,0.0,0.0,0.0,0.0,0.0,0.0,0.0,0.0,0.0,0.0,0.0,0.0,0.0,0.0,0.0,0.0,0.0,0.0,0.0,0.0,0.0,-1.5262,-1.5722,-1.4878,-1.4431,-1.4511,-1.4303,-1.4141,-1.4086,-1.3758,-1.3996,0.0,0.0,0.0,0.0,0.0,0.0,0.0,0.0,0.0,0.0,0.0,0.0,0.0,0.0,0.0,0.0,0.0,0.0,0.0,0.0,0.0,0.0,0.0,0.0,0.0,0.0,0.0,0.0,0.0,0.0,0.0,0.0,0.0,0.0,0.0,0.0,0.0,0.0,0.0,0.0,0.0,0.0,-2.0058,-2.0557,0.0,0.0,0.0,-2.0539,-1.917,0.0,0.0,0.0,0.0,0.0,0.0,0.0,0.0,0.0,0.0,0.0,0.0,0.0,0.0,0.0,0.0,0.0,0.0,0.0,0.0,0.0,0.0,0.0,0.0,0.0,0.0,0.0,0.0,0.0,0.0,0.0,0.0,0.0,0.0,0.0,0.0,0.0,0.0,0.0,0.0,0.0,0.0,0.0,0.0,0.0,0.0,0.0,0.0,0.0,0.0,0.0,0.0,0.0,0.0,0.0,0.0,0.0,-1.5745,-1.4793,-1.4319,-1.4352,-1.4305,-1.417,-1.395,-1.3629,0.0,0.0,0.0,0.0,0.0,0.0,0.0,0.0,0.0,0.0,0.0,0.0,0.0,0.0,0.0,0.0,0.0,0.0,0.0,0.0,0.0,0.0,0.0,0.0,0.0,0.0,0.0,-1.3408,0.0,0.0,0.0,0.0,0.0,0.0,0.0,0.0,0.0,0.0,0.0,0.0,0.0,0.0,-2.0299,-2.1203,-2.1478,-2.1625,0.0,0.0,-2.1169,-1.9899,-1.9541,-1.9082,0.0,0.0,0.0,0.0,0.0,0.0,0.0,0.0,0.0,0.0,0.0,0.0,0.0,0.0,0.0,0.0,0.0,0.0,0.0,0.0,0.0,0.0,0.0,0.0,0.0,0.0,0.0,0.0,0.0,0.0,0.0,0.0,0.0,0.0,0.0,0.0,0.0,0.0,0.0,0.0,0.0,0.0,0.0,0.0,0.0,0.0,0.0,0.0,0.0,0.0,0.0,0.0,0.0,0.0,0.0,-1.5397,-1.4867,-1.4541,-1.4493,-1.4848,-1.4731,-1.4118,-1.3833,-1.3882,0.0,0.0,0.0,0.0,0.0,0.0,0.0,0.0,0.0,0.0,0.0,0.0,0.0,0.0,0.0,0.0,0.0,0.0,0.0,0.0,0.0,0.0,0.0,0.0,0.0,0.0,0.0,0.0,0.0,0.0,0.0,0.0,0.0,0.0,0.0,0.0,0.0,0.0,0.0,0.0,0.0,-2.0412,-2.1736,-2.1689,-2.1783,0.0,0.0,-2.2093,-2.1657,-2.0997,-2.0352,-1.9745,0.0,0.0,0.0,0.0,0.0,0.0,0.0,0.0,0.0,0.0,0.0,0.0,0.0,0.0,0.0,0.0,0.0,0.0,0.0,0.0,0.0,0.0,0.0,0.0,0.0,0.0,0.0,0.0,0.0,0.0,0.0,0.0,0.0,0.0,0.0,0.0,0.0,0.0,0.0,0.0,0.0,0.0,0.0,0.0,0.0,0.0,0.0,0.0,0.0,0.0,0.0,0.0,0.0,-1.4871,-1.5127,-1.4473,-1.3968,-1.3726,-1.4006,-1.3896,-1.325,-1.3059,-1.3285,0.0,0.0,0.0,0.0,0.0,0.0,0.0,0.0,0.0,0.0,0.0,0.0,0.0,0.0,0.0,0.0,0.0,0.0,0.0,0.0,0.0,0.0,0.0,0.0,0.0,0.0,0.0,0.0,-1.2965,-1.3669,-1.5076,0.0,0.0,0.0,0.0,0.0,0.0,0.0,0.0,0.0,0.0,-2.238,-2.2911,-2.2882,0.0,0.0,-2.2422,-2.2007,-2.1197,-2.1112,-2.095,-2.0438,-2.083,0.0,0.0,0.0,0.0,0.0,0.0,0.0,0.0,0.0,0.0,0.0,0.0,0.0,0.0,0.0,0.0,0.0,0.0,0.0,0.0,0.0,0.0,0.0,0.0,0.0,0.0,0.0,0.0,0.0,0.0,0.0,0.0,0.0,0.0,0.0,0.0,0.0,0.0,0.0,0.0,0.0,0.0,0.0,0.0,0.0,0.0,0.0,0.0,0.0,0.0,0.0,0.0,-1.4526,-1.4787,-1.4069,-1.3527,-1.3217,-1.3575,-1.345,-1.289,-1.2703,-1.2967,0.0,0.0,0.0,0.0,0.0,0.0,0.0,0.0,0.0,0.0,0.0,0.0,0.0,0.0,0.0,0.0,0.0,0.0,0.0,0.0,0.0,0.0,0.0,0.0,0.0,0.0,0.0,0.0,-1.3041,-1.3864,-1.5031,0.0,0.0,0.0,0.0,0.0,0.0,0.0,0.0,0.0,0.0,-2.3268,-2.3325,-2.3289,-2.304,-2.2461,-2.2458,-2.2156,-2.1218,-2.1355,-2.1447,-2.1033,0.0,0.0,0.0,0.0,0.0,0.0,0.0,0.0,0.0,0.0,0.0,0.0,0.0,0.0,0.0,0.0,0.0,0.0,0.0,0.0,0.0,0.0,0.0,0.0,0.0,0.0,0.0,0.0,0.0,0.0,-0.0535,0.0,0.0,0.0,0.0,0.0,0.0,0.0,0.0,0.0,0.0,0.0,0.0,0.0,0.0,0.0,0.0,0.0,0.0,0.0,0.0,0.0,0.0,-1.4173,-1.4309,-1.3807,-1.343,-1.3217,-1.378,-1.3784,-1.3191,-1.3,-1.3119,-1.3593,0.0,0.0,0.0,0.0,0.0,0.0,0.0,0.0,0.0,0.0,0.0,0.0,0.0,0.0,0.0,0.0,0.0,0.0,0.0,0.0,0.0,0.0,0.0,0.0,0.0,0.0,-1.2389,-1.3796,-1.4672,0.0,0.0,0.0,0.0,0.0,0.0,0.0,0.0,0.0,0.0,-2.2181,-2.2572,-2.2727,-2.2629,-2.2475,-2.2183,-2.2549,-2.2688,-2.2193,-2.2058,-2.1898,0.0,0.0,0.0,0.0,0.0,0.0,0.0,0.0,0.0,0.0,0.0,0.0,0.0,0.0,0.0,0.0,0.0,0.0,0.0,0.0,0.0,0.0,0.0,0.0,0.0,0.0,0.0,-0.0244,-0.0193,0.0,0.0,0.0,0.0,0.0,0.0,0.0,0.0,0.0,0.0,0.0,-0.6141,-0.6755,0.0,0.0,0.0,0.0,0.0,0.0,0.0,0.0,0.0,0.0,0.0,0.0,-1.4203,-1.4392,-1.4071,-1.3693,-1.3303,-1.376,-1.3711,-1.302,-1.3058,-1.3264,-1.3595,0.0,0.0,0.0,0.0,0.0,0.0,0.0,0.0,0.0,0.0,0.0,0.0,0.0,0.0,0.0,0.0,0.0,0.0,0.0,0.0,0.0,0.0,0.0,0.0,0.0,-1.1901,0.0,0.0,0.0,0.0,0.0,0.0,0.0,0.0,0.0,0.0,0.0,-2.1041,-2.0809,-2.1993,-2.2929,-2.2958,-2.2849,-2.2695,0.0,0.0,0.0,0.0,0.0,0.0,0.0,0.0,0.0,0.0,0.0,0.0,0.0,0.0,-2.1158,-2.1077,-2.0914,-2.0882,-2.1127,0.0,0.0,0.0,0.0,0.0,0.0,0.0,0.0,0.0,0.0,0.0,0.0,0.0,0.0,-0.0572,0.0,-0.0716,0.0,0.0,0.0,0.0,0.0,0.0,0.0,0.0,-0.4665,-0.5133,-0.5686,-0.6347,-0.6967,0.0,-0.8239,-0.9191,0.0,0.0,0.0,0.0,0.0,0.0,0.0,0.0,-1.4025,-1.421,-1.3921,-1.3546,-1.3141,-1.3429,-1.3376,-1.2921,-1.3137,-1.3357,-1.3508,-1.3859,-1.4069,0.0,0.0,0.0,0.0,0.0,0.0,0.0,0.0,0.0,0.0,0.0,0.0,0.0,0.0,0.0,0.0,0.0,0.0,0.0,0.0,0.0,0.0,0.0,-1.2005,0.0,0.0,0.0,0.0,0.0,0.0,0.0,0.0,0.0,-1.7723,-1.9452,-2.0575,-2.037,-2.1801,-2.2881,-2.2957,0.0,0.0,0.0,0.0,0.0,0.0,0.0,-2.2297,-2.2539,-2.2661,-2.286,-2.3312,-2.3178,-2.3015,-2.2951,0.0,0.0,-2.1973,-2.166,-2.1599,-2.197,-2.212,-2.2232,-2.2345,-2.2164,-2.1983,0.0,0.0,0.0,0.0,0.0,0.0,0.0,0.0,-0.0865,-0.0777,0.0,-0.1131,0.0,0.0,0.0,0.0,0.0,-0.3355,0.0,0.0,-0.4478,-0.4958,-0.5408,-0.6098,-0.6901,-0.7772,-0.807,-0.8739,-0.9696,-1.0087,0.0,0.0,0.0,0.0,0.0,0.0,-1.363,-1.3696,-1.3345,-1.2997,-1.2754,-1.287,-1.2934,-1.2923,-1.3238,-1.3363,-1.3328,-1.3613,-1.3763,-1.3763,-1.3773,0.0,0.0,0.0,0.0,0.0,0.0,0.0,0.0,0.0,0.0,0.0,0.0,0.0,0.0,0.0,0.0,0.0,0.0,0.0,0.0,-1.2457,0.0,0.0,0.0,0.0,0.0,0.0,0.0,0.0,0.0,0.0,-1.7773,-1.9097,-2.0113,-2.0365,0.0,0.0,0.0,0.0,-2.2609,-2.2459,-2.2413,-2.2259,-2.1882,-2.2318,-2.268,-2.2558,0.0,0.0,-2.3892,-2.3931,-2.3981,-2.426,-2.4239,-2.3723,-2.196,-2.1678,-2.1842,-2.2518,-2.2865,-2.3052,-2.3167,-2.2888,-2.2511,-0.1165,0.0,0.0,0.0,0.0,-0.1232,-0.1148,-0.084,-0.1087,-0.1155,-0.1086,-0.1211,0.0,0.0,0.0,0.0,0.0,0.0,-0.3402,-0.375,-0.4399,-0.4854,-0.5138,-0.6289,-0.7027,-0.7394,-0.8209,-0.8863,-0.9366,-1.0031,-1.0702,-1.1303,0.0,0.0,0.0,0.0,-1.3611,-1.3624,-1.3508,-1.3366,-1.3207,-1.3309,-1.3388,-1.3378,-1.3294,-1.3239,-1.3226,-1.3324,-1.3362,-1.3372,-1.3372,0.0,0.0,0.0,0.0,0.0,0.0,0.0,0.0,0.0,0.0,0.0,0.0,0.0,0.0,0.0,0.0,0.0,0.0,0.0,-1.2066,-1.2382,-1.2797,0.0,0.0,0.0,0.0,0.0,0.0,0.0,0.0,0.0,-1.7643,-1.9293,-2.0436,0.0,0.0,-2.231,-2.2449,-2.2333,-2.2339,-2.2706,-2.2675,0.0,-2.2344,-2.2608,-2.2934,-2.3185,-2.4025,-2.4668,-2.4552,-2.4635,-2.4646,-2.4523,-2.4379,-2.4087,-2.3521,-2.317,-2.3134,-2.346,-2.3573,-2.3661,-2.3664,-2.3409,-2.3103,-0.1537,-0.1628,-0.1527,-0.1397,-0.1248,-0.1453,-0.134,-0.103,-0.1273,-0.1285,-0.1159,-0.1333,-0.1464,-0.1591,-0.1927,0.0,0.0,0.0,-0.3381,-0.3641,-0.4329,-0.4825,-0.514,-0.6149,-0.6805,-0.7149,-0.7994,-0.8575,-0.8903,-0.9685,-1.027,-1.0735,0.0,0.0,-1.2776,-1.3226,-1.342,-1.3382,-1.3531,-1.3573,-1.3524,-1.3695,-1.3786,-1.3801,-1.3626,-1.3541,-1.3551,-1.3358,-1.3268,-1.3328,-1.3207,-1.326,0.0,0.0,0.0,0.0,0.0,0.0,0.0,0.0,0.0,0.0,0.0,-1.3624,-1.343,0.0,0.0,0.0,-1.288,-1.2773,-1.2834,-1.3064,0.0,0.0,0.0,0.0,0.0,0.0,0.0,-1.7117,-1.7812,-1.826,-1.8149,-1.9562,-2.0429,-1.9976,-2.1024,-2.1926,-2.2208,0.0,-2.2146,-2.256,-2.2749,-2.2804,-2.2694,-2.3222,-2.3761,-2.4053,-2.4599,-2.4991,-2.4835,-2.4892,-2.4892,-2.4677,-2.4492,-2.4334,-2.4128,-2.3878,-2.3789,-2.3936,-2.3979,-2.3979,-2.3979,-2.3642,-2.3351,-0.1847,-0.1994,-0.2029,-0.1882,-0.1596,-0.1781,-0.159,-0.1233,-0.1404,-0.1282,-0.0983,-0.1457,-0.1589,-0.1478,-0.2224,0.0,-0.2709,-0.3227,-0.3518,-0.3621,-0.4322,-0.4823,-0.5219,-0.5847,-0.6453,-0.6985,-0.752,-0.798,-0.8402,-0.9109,-0.976,-1.0358,-1.1546,-1.2282,-1.2647,-1.2939,-1.3069,-1.2978,-1.3316,-1.3557,-1.3667,-1.3909,-1.4024,-1.4014,-1.406,-1.4024,-1.4014,-1.3551,-1.3349,-1.3433,-1.3174,-1.3169,-1.3474,0.0,0.0,0.0,0.0,0.0,0.0,0.0,0.0,0.0,0.0,0.0,0.0,0.0,0.0,0.0,-1.3426,0.0,-1.421,-1.4183,0.0,0.0,0.0,-1.5866,-1.6037,-1.6562,-1.6925,-1.71,0.0,0.0,-1.8945,-1.9786,-2.0144,-1.9605,-2.0506,-2.1399,-2.1912,-2.1996,-2.2048,-2.2338,-2.2772,-2.3073,-2.3084,-2.3913,-2.4611,-2.4735,-2.4865,-2.4806,-2.4806,-2.4892,-2.4863,-2.4649,-2.4591,-2.4476,-2.4171,-2.4008,-2.3979,-2.4083,-2.4083,-2.4083,-2.4086,-2.3723,-2.3454,-0.1731,-0.169,-0.1782,-0.1683,-0.1539,-0.1486,-0.1409,-0.1358,-0.1332,-0.1304,-0.1228,-0.1354,-0.1489,-0.1662,-0.2197,-0.2482,-0.2564,-0.3006,-0.3281,-0.3514,-0.4522,-0.5005,-0.5086,-0.6201,-0.6787,-0.6942,-0.7355,-0.7732,-0.8113,-0.8889,-0.9455,-0.9844,-1.0853,-1.1655,-1.2215,-1.2314,-1.2473,-1.2689,-1.2781,-1.3012,-1.3309,-1.3475,-1.3522,-1.344,-1.3512,-1.3458,-1.3268,-1.3321,-1.3292,-1.3121,-1.3252,-1.3385,-1.355,-1.3772,0.0,0.0,0.0,0.0,0.0,0.0,0.0,0.0,0.0,-1.3962,-1.3736,0.0,-1.3895,0.0,-1.3726,-1.3947,-1.3903,-1.4062,0.0,0.0,-1.5609,-1.592,-1.6621,-1.7171,-1.7634,-1.8034,-1.8539,-1.8832,-1.8659,-1.9472,-2.0014,-1.9779,-2.058,-2.1337,-2.1783,-2.1759,-2.2055,-2.288,-2.3146,-2.333,-2.3727,-2.396,-2.4164,-2.4161,-2.451,-2.4806,-2.482,-2.4806,-2.4778,-2.462,-2.4492,-2.4319,-2.4141,-2.4054,-2.4099,-2.4232,-2.4187,-2.4141,-2.4218,-2.4257,-2.4209,-0.1621,-0.1709,-0.157,-0.156,-0.1576,-0.1392,-0.1322,-0.1347,-0.1453,-0.1497,-0.1486,-0.1624,-0.175,-0.194,-0.2334,-0.2537,-0.2653,-0.296,-0.3224,-0.3523,-0.4441,-0.4957,-0.5125,-0.6116,-0.6634,-0.6739,-0.7293,-0.7539,-0.7615,-0.8632,-0.9165,-0.9229,-1.0204,-1.0888,-1.1267,-1.1787,-1.2311,-1.2778,-1.2969,-1.3139,-1.3327,-1.3553,-1.3591,-1.3468,-1.3582,-1.3648,-1.3562,-1.3476,-1.3385,-1.3358,-1.3314,-1.3387,-1.3599,-1.3756,-1.4006,0.0,0.0,0.0,0.0,0.0,0.0,0.0,0.0,0.0,0.0,0.0,-1.4098,-1.4032,-1.4173,-1.4366,-1.4633,-1.4785,-1.5222,-1.6031,-1.6181,-1.6439,-1.7036,-1.7505,-1.792,-1.8232,-1.8587,-1.8814,-1.8836,-1.9341,-1.9838,-2.0033,-2.0514,-2.1019,-2.1474,-2.1738,-2.2199,-2.2891,-2.3387,-2.3865,-2.4422,-2.4378,-2.4307,-2.4321,-2.4591,-2.482,-2.482,-2.482,-2.4763,-2.462,-2.4421,-2.4247,-2.4128,-2.4125,-2.4141,-2.4173,-2.4203,-2.4261,-2.4392,-2.445,-2.4421,-0.1661,-0.1879,-0.1532,-0.1523,-0.1759,-0.1486,-0.1385,-0.1371,-0.1624,-0.1746,-0.1796,-0.204,-0.2188,-0.2226,-0.2516,-0.2722,-0.2813,-0.3075,-0.3349,-0.3692,-0.4374,-0.4879,-0.5245,-0.5924,-0.6344,-0.6551,-0.723,-0.7395,-0.7146,-0.8409,-0.8974,-0.8864,-0.9786,-1.03,-1.0433,-1.1444,-1.2215,-1.2822,-1.3258,-1.3447,-1.3343,-1.3734,-1.383,-1.3679,-1.3851,-1.4019,-1.4139,-1.367,-1.3524,-1.3728,-1.3411,-1.3337,-1.3611,-1.3755,-1.4016,0.0,-1.4469,0.0,0.0,0.0,0.0,0.0,0.0,0.0,0.0,-1.3834,-1.4215,-1.4818,-1.4692,-1.4899,-1.5645,-1.5732,-1.6012,-1.6698,-1.6909,-1.7106,-1.7323,-1.7673,-1.7963,-1.8123,-1.841,-1.8747,-1.9095,-1.933,-1.9681,-2.0181,-2.0396,-2.0675,-2.1154,-2.1791,-2.228,-2.2487,-2.3577,-2.4436,-2.4744,-2.478,-2.4723,-2.4708,-2.4694,-2.4736,-2.4763,-2.475,-2.4692,-2.4591,-2.4485,-2.4392,-2.423,-2.4266,-2.436,-2.4442,-2.4468,-2.4453,-2.4518,-2.4463,-2.4392,-0.1901,-0.1879,-0.1926,-0.1992,-0.2008,-0.1969,-0.1856,-0.1709,-0.181,-0.1947,-0.211,-0.2377,-0.2375,-0.2247,-0.2755,-0.293,-0.2828,-0.341,-0.377,-0.3958,-0.4837,-0.5291,-0.5395,-0.611,-0.6524,-0.6689,-0.702,-0.7327,-0.7593,-0.8429,-0.9047,-0.9453,-1.0164,-1.0848,-1.1459,0.0,0.0,0.0,-1.2611,-1.2802,-1.2575,-1.3117,-1.3277,-1.3019,-1.3368,0.0,-1.3484,-1.3489,-1.3498,-1.3549,-1.348,0.0,0.0,0.0,0.0,0.0,0.0,0.0,0.0,0.0,0.0,0.0,-1.4191,-1.4157,-1.4376,-1.4299,-1.451,-1.5202,-1.5165,-1.525,-1.568,-1.5899,-1.6193,-1.6588,-1.6842,-1.7134,-1.7423,-1.7717,-1.8018,-1.8302,-1.8491,-1.8721,-1.8987,-1.933,-1.9668,-2.0016,-2.0309,-2.0693,-2.1199,-2.1678,-2.2189,-2.2723,-2.3864,-2.4603,-2.4452,-2.4549,-2.462,-2.445,-2.4392,-2.4505,-2.4673,-2.456,-2.4434,-2.4416,-2.4613,-2.4852,-2.4835,-2.5171,-2.5419,-2.5608,-2.5287,-2.4916,-2.4469,-2.4463,-2.452,-0.1948,0.0,-0.2131,-0.2152,0.0,-0.2377,-0.2334,-0.2146,-0.2158,-0.2368,-0.2686,-0.2763,-0.2845,-0.2909,-0.3148,-0.3211,-0.3165,-0.3643,-0.3908,-0.4036,-0.4785,-0.5287,-0.5523,-0.6118,-0.6538,-0.6815,-0.7132,-0.7444,-0.7746,-0.8442,-0.8978,-0.9315,-1.0017,-1.0552,-1.0938,-1.1091,-1.1345,-1.1749,-1.211,-1.2147,-1.1839,-1.2521,-1.2769,-1.2478,-1.2973,0.0,0.0,0.0,0.0,0.0,0.0,0.0,0.0,0.0,0.0,-1.389,-1.407,-1.4109,-1.401,-1.4327,-1.4455,-1.4327,-1.446,-1.4582,-1.4693,-1.453,-1.474,-1.5548,-1.5603,-1.5646,-1.5851,-1.6087,-1.6353,-1.657,-1.6768,-1.6994,-1.7234,-1.7579,-1.7865,-1.8041,-1.822,-1.8464,-1.8747,-1.9013,-1.9356,-1.9771,-2.0257,-2.0745,-2.1171,-2.1733,-2.2432,-2.3303,-2.4166,-2.465,-2.4379,-2.4536,-2.4769,-2.4795,-2.4845,-2.5007,-2.5375,-2.5385,-2.5253,-2.5189,-2.5366,-2.5533,-2.545,-2.561,-2.5824,-2.5834,-2.5476,-2.5047,-2.4692,-2.4617,-2.4563,-0.2096,-0.2247,-0.2314,-0.2351,-0.2371,-0.2725,-0.2713,-0.2542,0.0,0.0,0.0,-0.3143,-0.3258,-0.3522,-0.3492,-0.347,-0.3508,-0.3872,-0.4073,-0.4158,-0.4768,-0.5262,-0.5672,-0.6108,-0.6493,-0.6885,-0.7256,-0.7532,-0.7785,-0.8473,-0.8946,-0.9256,-0.986,-1.0258,-1.0366,-1.0661,-1.1144,-1.1751,-1.1768,-1.1627,-1.1334,-1.2049,-1.236,-1.2063,-1.2613,-1.3011,-1.3147,-1.3011,-1.3072,-1.339,-1.3294,-1.3294,-1.3459,-1.3459,-1.3541,-1.3739,-1.389,-1.3971,-1.398,-1.4297,-1.4446,-1.4366,-1.4684,-1.4878,-1.4786,-1.4696,-1.4999,-1.5796,-1.5892,-1.597,-1.6102,-1.6296,-1.6477,-1.6609,-1.679,-1.6948,-1.7123,-1.7479,-1.7767,-1.7794,-1.803,-1.8259,-1.8545,-1.8744,-1.9059,-1.9631,-2.0245,-2.0817,-2.125,-2.1973,-2.2815,-2.3741,-2.4323,-2.4565,-2.4363,-2.452,-2.4876,-2.5163,-2.5253,-2.5491,-2.5999,-2.6184,-2.6149,-2.6166,-2.6219,-2.624,-2.6193,-2.6285,-2.6149,-2.6012,-2.5585,-2.5201,-2.5039,-2.4829,-2.4563,-0.2536,-0.2492,-0.2767,-0.2819,-0.2671,-0.2872,-0.2892,-0.2776,-0.3007,-0.3177,-0.3307,-0.3393,-0.3383,-0.3271,-0.358,-0.3628,-0.3477,-0.4235,-0.4601,-0.4641,-0.536,-0.5699,-0.5806,-0.6204,-0.6503,-0.6743,-0.7015,-0.7458,-0.8039,-0.8563,-0.9183,-0.9917,-1.0349,-1.0776,-1.1244,-1.1083,-1.1192,-1.1707,-1.1601,-1.1441,-1.13,-1.1995,-1.2166,-1.1889,-1.2382,-1.266,-1.2713,-1.2691,-1.2775,-1.3072,-1.2958,-1.3028,-1.3302,-1.3349,-1.3385,-1.3541,-1.3821,-1.395,-1.3868,-1.4267,-1.4485,-1.4485,-1.4536,-1.4625,-1.4778,-1.5097,-1.5418,-1.5701,-1.5833,-1.5948,-1.6085,-1.6381,-1.6581,-1.6751,-1.7054,-1.7334,-1.7518,-1.7689,-1.7854,-1.7975,-1.8232,-1.834,-1.841,-1.8756,-1.9203,-1.9809,-2.0338,-2.0812,-2.1722,-2.2363,-2.2952,-2.3566,-2.4073,-2.4232,-2.4194,-2.4345,-2.4795,-2.502,-2.5049,-2.5305,-2.6036,-2.6059,-2.6216,-2.6754,-2.6931,-2.7095,-2.7563,-2.7774,-2.7398,-2.6846,-2.6289,-2.5862,-2.5278,-2.4946,-2.4662,-0.2482,-0.2436,-0.2646,-0.2622,-0.2453,-0.2857,-0.3002,-0.3029,-0.3376,-0.346,-0.3382,-0.3558,-0.3643,-0.3775,-0.4226,-0.4292,-0.402,-0.4765,-0.5,-0.4865,-0.5294,-0.5686,-0.5923,-0.6159,-0.6512,-0.6896,-0.7031,-0.7522,-0.8288,-0.8711,-0.9328,-1.0142,-1.0621,-1.1062,-1.141,-1.1248,-1.1308,-1.1638,-1.1442,-1.131,-1.1256,-1.1907,-1.2127,-1.1912,-1.25,-1.2794,-1.2801,-1.293,-1.3099,-1.3324,-1.3444,-1.3636,-1.3867,-1.4003,-1.4004,-1.3845,-1.4044,-1.4018,-1.3649,-1.392,-1.4219,-1.4488,-1.4488,-1.4621,-1.4907,-1.5139,-1.5371,-1.5546,-1.573,-1.5943,-1.598,-1.62,-1.6343,-1.64,-1.6648,-1.6902,-1.7088,-1.7301,-1.7468,-1.7645,-1.7947,-1.8139,-1.8127,-1.8764,-1.934,-1.9789,-2.0482,-2.1473,-2.2328,-2.2702,-2.2985,-2.3429,-2.394,-2.4347,-2.4461,-2.4807,-2.5236,-2.5826,-2.6101,-2.6472,-2.7105,-2.7359,-2.7779,-2.8155,-2.8343,-2.8371,-2.8437,-2.8358,-2.7941,-2.7012,-2.6425,-2.5906,-2.5352,-2.4946,-2.466,-0.2406,-0.2387,-0.2593,-0.2592,-0.2444,-0.2795,-0.3025,-0.3192,-0.3522,-0.3603,-0.3528,-0.3647,-0.3939,-0.4287,-0.471,-0.4747,-0.4622,-0.5152,-0.5275,-0.5047,-0.5349,-0.5645,-0.5935,-0.6119,-0.648,-0.6874,-0.6982,-0.7444,-0.8265,-0.8626,-0.9199,-0.9978,-1.0554,-1.0924,-1.1125,-1.1119,-1.1254,-1.1424,-1.1353,-1.1314,-1.1379,-1.1891,-1.2131,-1.2094,-1.2654,-1.2964,-1.2964,-1.3173,-1.3416,-1.3549,-1.3833,-1.409,-1.4263,-1.4404,-1.4408,-1.4192,-1.4285,-1.4219,-1.3894,-1.3991,-1.4236,-1.4593,-1.4653,-1.4753,-1.5004,-1.5194,-1.5329,-1.5381,-1.5633,-1.5856,-1.5875,-1.6009,-1.6114,-1.6171,-1.6335,-1.6626,-1.6831,-1.7041,-1.7294,-1.758,-1.7941,-1.8204,-1.8345,-1.8997,-1.9679,-2.0156,-2.1117,-2.2084,-2.261,-2.28,-2.2982,-2.33,-2.3822,-2.4338,-2.4801,-2.4988,-2.5493,-2.6457,-2.6752,-2.7176,-2.7874,-2.876,-2.9337,-2.9328,-2.9544,-2.9512,-2.9047,-2.8805,-2.8324,-2.7347,-2.6778,-2.6157,-2.568,-2.5274,-2.4796,-0.2543,-0.2718,-0.304,-0.3143,-0.2964,-0.282,-0.2861,-0.306,-0.3194,-0.3453,-0.3744,-0.3791,-0.406,-0.4445,-0.4482,-0.4581,-0.4713,-0.5182,-0.5385,-0.5378,-0.5819,-0.5956,-0.5834,-0.614,-0.63,-0.6348,-0.6623,-0.7124,-0.7806,-0.81,-0.8608,-0.9352,-0.9763,-1.0099,-1.0326,-1.049,-1.0699,-1.0983,-1.1357,-1.1651,-1.1838,-1.2082,-1.2198,-1.2205,-1.2613,-1.283,-1.2841,-1.3215,-1.3357,-1.3341,-1.3549,-1.3725,-1.3866,-1.3891,-1.4049,-1.4353,-1.4509,-1.4679,-1.4886,-1.4959,-1.4965,-1.5056,-1.5021,-1.5044,-1.5117,-1.5423,-1.5539,-1.5356,-1.5537,-1.5781,-1.573,-1.5992,-1.6216,-1.6343,-1.6514,-1.6842,-1.7397,-1.7639,-1.7878,-1.8523,-1.8733,-1.8981,-1.9062,-1.9593,-2.0328,-2.1009,-2.162,-2.2164,-2.2377,-2.2586,-2.28,-2.303,-2.3509,-2.4107,-2.4503,-2.4448,-2.5166,-2.6187,-2.6078,-2.668,-2.7764,-2.8309,-2.859,-2.98,-2.9878,-2.9826,-3.0069,-2.984,-2.871,-2.7848,-2.7245,-2.6809,-2.643,-2.588,-2.5329,-0.2514,-0.253,-0.2646,-0.2674,-0.2652,-0.3007,-0.3107,-0.3067,-0.358,-0.3854,-0.3959,-0.4175,-0.4376,-0.4581,-0.4938,-0.5077,-0.4985,-0.5343,-0.5459,-0.5438,-0.5669,-0.5805,-0.5812,-0.607,-0.6292,-0.6548,-0.6822,-0.7213,-0.7757,-0.8368,-0.9131,-0.9852,-0.9979,-1.0073,-1.0306,-1.0374,-1.0498,-1.0707,-1.089,-1.1168,-1.1517,-1.2122,-1.2444,-1.2486,-1.27,-1.2912,-1.3061,-1.3308,-1.3492,-1.3633,-1.3968,-1.4239,-1.4274,-1.4516,-1.4625,-1.4698,-1.4654,-1.4741,-1.4863,-1.4863,-1.4887,-1.4967,-1.4976,-1.5,-1.5106,-1.5463,-1.5628,-1.5567,-1.5875,-1.609,-1.6151,-1.6435,-1.6618,-1.6628,-1.6779,-1.7142,-1.752,-1.7743,-1.81,-1.8635,-1.8969,-1.922,-1.9403,-1.9978,-2.0763,-2.1497,-2.1911,-2.2111,-2.2445,-2.2616,-2.283,-2.3163,-2.3509,-2.4056,-2.4723,-2.5104,-2.5634,-2.6413,-2.6935,-2.7493,-2.779,-2.8564,-2.9174,-3.0066,-3.0003,-2.9987,-3.0286,-3.0179,-2.9455,-2.8271,-2.6609,-2.5827,-2.5818,-2.5384,-2.4936,-0.2524,-0.2515,-0.2494,-0.2579,-0.2723,-0.332,-0.342,-0.3227,-0.3857,-0.4114,-0.4113,-0.4408,-0.4574,-0.4738,-0.5176,-0.5294,-0.5224,-0.5428,-0.5519,-0.5479,-0.5624,-0.5724,-0.5839,-0.6014,-0.6324,-0.668,-0.6962,-0.738,-0.7919,-0.8533,-0.9246,-0.9791,-0.9781,-0.9815,-0.9951,-0.994,-1.0042,-1.0211,-1.0353,-1.0595,-1.0972,-1.1777,-1.233,-1.249,-1.2712,-1.2893,-1.3127,-1.3346,-1.3564,-1.3717,-1.4209,-1.4497,-1.4533,-1.482,-1.4983,-1.4989,-1.4883,-1.4849,-1.4891,-1.4883,-1.4908,-1.5125,-1.5158,-1.5225,-1.5457,-1.5746,-1.592,-1.5977,-1.637,-1.6583,-1.6424,-1.6709,-1.6855,-1.6855,-1.7075,-1.7324,-1.7791,-1.8072,-1.8405,-1.8924,-1.9406,-1.9643,-1.9992,-2.0542,-2.1159,-2.1725,-2.1913,-2.2049,-2.2494,-2.2647,-2.283,-2.3223,-2.3504,-2.4165,-2.5089,-2.5257,-2.5903,-2.6642,-2.7186,-2.7352,-2.7876,-2.8546,-2.9125,-2.949,-2.9879,-3.0053,-2.9934,-2.9878,-2.9487,-2.7786,-2.6457,-2.5708,-2.5933,-2.5338,-2.5355,-0.2627,-0.2773,-0.294,-0.3138,-0.3541,-0.3683,-0.3679,-0.3457,-0.3926,-0.412,-0.4164,-0.4359,-0.4569,-0.4764,-0.484,-0.5057,-0.5332,-0.5401,-0.546,-0.5599,-0.5778,-0.5877,-0.5927,-0.6037,-0.6237,-0.6523,-0.6938,-0.7497,-0.8165,-0.8359,-0.8496,-0.8614,-0.8848,-0.8891,-0.894,-0.9093,-0.9165,-0.9441,-0.9832,-1.0089,-1.034,-1.0975,-1.1618,-1.2116,-1.2456,-1.2673,-1.2936,-1.3273,-1.3492,-1.3528,-1.392,-1.4201,-1.4389,-1.4433,-1.4661,-1.5084,-1.5182,-1.5244,-1.5369,-1.5282,-1.5317,-1.5676,-1.5695,-1.5852,-1.6078,-1.6303,-1.6441,-1.6557,-1.6828,-1.6906,-1.6571,-1.6747,-1.6941,-1.7175,-1.7219,-1.7663,-1.85,-1.8638,-1.9041,-1.9663,-2.0072,-2.0411,-2.1092,-2.1342,-2.1455,-2.1745,-2.1894,-2.2054,-2.2425,-2.2604,-2.2813,-2.3193,-2.3739,-2.4423,-2.5109,-2.528,-2.5608,-2.6297,-2.6748,-2.6644,-2.7297,-2.7956,-2.8453,-2.8879,-2.9187,-2.9368,-2.9394,-2.9065,-2.8484,-2.7622,-2.7379,-2.6948,-2.6585,-2.6709,-2.6538,-0.268,-0.2728,-0.318,-0.3258,-0.3133,-0.3601,-0.3709,-0.3618,-0.3992,-0.4081,-0.403,-0.4339,-0.4526,-0.4483,-0.4651,-0.491,-0.5163,-0.5096,-0.5226,-0.5583,-0.5822,-0.5957,-0.6132,-0.6448,-0.6649,-0.678,-0.7148,-0.7721,-0.8286,-0.8075,-0.8091,-0.8479,-0.8576,-0.8544,-0.8528,-0.898,-0.9223,-0.9213,-0.9615,-0.9885,-1.0069,-1.0503,-1.0905,-1.127,-1.1859,-1.2372,-1.2673,-1.2966,-1.3163,-1.3309,-1.3557,-1.3746,-1.3848,-1.4065,-1.4389,-1.4776,-1.4927,-1.5141,-1.5426,-1.5434,-1.5497,-1.5761,-1.5805,-1.5903,-1.614,-1.6298,-1.6438,-1.6638,-1.695,-1.7082,-1.7187,-1.724,-1.744,-1.7681,-1.7912,-1.8228,-1.8818,-1.9132,-1.9532,-2.0096,-2.0443,-2.0733,-2.0937,-2.1031,-2.1178,-2.1411,-2.1655,-2.2072,-2.2618,-2.2899,-2.3249,-2.3941,-2.4393,-2.4835,-2.5561,-2.56,-2.5746,-2.6232,-2.6557,-2.6659,-2.7074,-2.7468,-2.7946,-2.8405,-2.8672,-2.9131,-2.9341,-2.9622,-2.8804,-2.8552,-2.8281,-2.7654,-2.7295,-2.7007,-2.6745,-0.2832,-0.3006,-0.3367,-0.3459,-0.3372,-0.385,-0.4034,-0.399,-0.4332,-0.4369,-0.4254,-0.4562,-0.4686,-0.4676,-0.4885,-0.5047,-0.5185,-0.5078,-0.5259,-0.5686,-0.5855,-0.602,-0.628,-0.6585,-0.6815,-0.704,-0.7363,-0.7857,-0.8231,-0.7968,-0.8005,-0.8398,-0.8409,-0.8419,-0.8493,-0.8914,-0.9153,-0.9264,-0.9483,-0.9741,-0.9979,-1.0266,-1.0545,-1.0863,-1.153,-1.2003,-1.2224,-1.2415,-1.2673,-1.2973,-1.32,-1.3433,-1.3748,-1.398,-1.4255,-1.4595,-1.4712,-1.4856,-1.5177,-1.5256,-1.5434,-1.5691,-1.5761,-1.5903,-1.6132,-1.6237,-1.6412,-1.6612,-1.6811,-1.7097,-1.7348,-1.7545,-1.7759,-1.8042,-1.8347,-1.8674,-1.9075,-1.9341,-1.9693,-2.0161,-2.0432,-2.066,-2.0968,-2.1099,-2.1384,-2.167,-2.2008,-2.2486,-2.3059,-2.3361,-2.366,-2.4454,-2.4718,-2.5211,-2.5845,-2.6068,-2.6068,-2.6467,-2.6681,-2.6737,-2.6967,-2.7267,-2.7584,-2.7978,-2.8444,-2.9002,-2.9457,-2.9879,-2.9802,-2.9508,-2.8878,-2.8186,-2.7644,-2.7051,-2.698,-0.3076,-0.3573,-0.3488,-0.3773,-0.4216,-0.4463,-0.4632,-0.4622,-0.4967,-0.4956,-0.4755,-0.4983,-0.5109,-0.5267,-0.5391,-0.5519,-0.55,-0.546,-0.5566,-0.5852,-0.5877,-0.6065,-0.635,-0.6449,-0.6778,-0.7204,-0.7536,-0.7792,-0.8014,-0.8054,-0.8124,-0.8166,-0.8197,-0.8372,-0.8851,-0.8763,-0.8988,-0.937,-0.9523,-0.9693,-0.9991,-1.0235,-1.0544,-1.0918,-1.1389,-1.1571,-1.1459,-1.1719,-1.212,-1.2599,-1.2826,-1.3343,-1.4007,-1.4109,-1.4283,-1.4578,-1.4525,-1.4485,-1.4641,-1.4828,-1.5114,-1.5434,-1.5691,-1.5859,-1.614,-1.6237,-1.6342,-1.6542,-1.6638,-1.6777,-1.7166,-1.7392,-1.7666,-1.8202,-1.8381,-1.864,-1.8975,-1.9262,-1.9527,-2.0074,-2.0412,-2.0785,-2.1395,-2.1652,-2.1877,-2.2464,-2.2814,-2.3095,-2.3525,-2.3821,-2.4074,-2.441,-2.505,-2.5827,-2.6231,-2.6609,-2.6602,-2.6681,-2.6813,-2.6898,-2.7309,-2.7646,-2.7844,-2.8227,-2.8772,-2.9307,-2.9709,-3.0066,-3.009,-2.9755,-2.9171,-2.8873,-2.843,-2.8033,-2.759,-0.3531,-0.3612,-0.3871,-0.4006,-0.4206,-0.4409,-0.4636,-0.493,-0.5146,-0.5143,-0.5109,-0.5181,-0.5237,-0.5301,-0.5414,-0.5593,-0.5835,-0.5862,-0.5856,-0.5836,-0.5818,-0.5993,-0.6271,-0.6585,-0.6975,-0.7363,-0.7493,-0.7624,-0.7759,-0.7754,-0.7754,-0.7877,-0.8006,-0.8173,-0.8419,-0.8829,-0.9226,-0.9356,-0.962,-0.9812,-0.9922,-1.0025,-1.0213,-1.0447,-1.074,-1.1039,-1.1517,-1.2039,-1.2385,-1.2606,-1.2783,-1.3096,-1.3491,-1.3725,-1.3911,-1.4086,-1.404,-1.4181,-1.4533,-1.4677,-1.4892,-1.5213,-1.5355,-1.5576,-1.5894,-1.5973,-1.6132,-1.6508,-1.6603,-1.6786,-1.7132,-1.7245,-1.7476,-1.7842,-1.8168,-1.8516,-1.8946,-1.9658,-2.0208,-2.0474,-2.0926,-2.1404,-2.1731,-2.1912,-2.215,-2.2548,-2.2867,-2.3208,-2.3673,-2.4337,-2.4976,-2.5406,-2.6044,-2.6431,-2.6857,-2.7187,-2.732,-2.734,-2.7373,-2.7394,-2.7754,-2.8052,-2.8227,-2.8577,-2.9149,-2.9595,-3.0023,-3.0256,-3.0279,-3.0463,-3.0279,-2.9944,-2.9561,-2.9066,-2.8491,-0.3693,-0.3824,-0.413,-0.4407,-0.4565,-0.4732,-0.4962,-0.526,-0.5394,-0.5418,-0.5406,-0.55,-0.5542,-0.5592,-0.5715,-0.5851,-0.6058,-0.6134,-0.6053,-0.5919,-0.5958,-0.613,-0.6346,-0.6705,-0.7073,-0.7335,-0.7396,-0.7461,-0.7629,-0.7601,-0.7663,-0.783,-0.7947,-0.8211,-0.8528,-0.8944,-0.927,-0.9511,-0.9761,-0.9922,-0.9992,-1.003,-1.0143,-1.04,-1.0625,-1.097,-1.1531,-1.2019,-1.2395,-1.2648,-1.2815,-1.3022,-1.3246,-1.342,-1.3569,-1.3733,-1.3828,-1.4008,-1.4353,-1.4525,-1.4748,-1.5034,-1.5169,-1.5275,-1.5532,-1.5611,-1.5894,-1.6202,-1.6403,-1.6612,-1.6925,-1.7132,-1.7295,-1.7476,-1.793,-1.8417,-1.9009,-1.9821,-2.0471,-2.0724,-2.1131,-2.166,-2.207,-2.2219,-2.2449,-2.2771,-2.3166,-2.3421,-2.3967,-2.4671,-2.5324,-2.5861,-2.6197,-2.672,-2.7405,-2.774,-2.7964,-2.8027,-2.8088,-2.8136,-2.8334,-2.857,-2.8757,-2.9236,-2.9729,-3.0017,-3.0416,-3.062,-3.0747,-3.1011,-3.1113,-3.0623,-3.0043,-2.9633,-2.9086,-0.363,-0.4255,-0.4297,-0.4739,-0.5265,-0.5307,-0.5383,-0.5524,-0.5746,-0.5806,-0.5769,-0.5883,-0.5965,-0.6033,-0.6127,-0.6145,-0.6132,-0.6135,-0.6074,-0.5989,-0.6071,-0.625,-0.6501,-0.6738,-0.6979,-0.7204,-0.7204,-0.7265,-0.7461,-0.7563,-0.7763,-0.7861,-0.7952,-0.8384,-0.8888,-0.9036,-0.9195,-0.9675,-0.9798,-0.9916,-1.0067,-1.0148,-1.0293,-1.0663,-1.085,-1.1061,-1.1384,-1.164,-1.2084,-1.267,-1.2824,-1.3024,-1.3252,-1.3253,-1.3407,-1.3638,-1.3704,-1.385,-1.4095,-1.4369,-1.4605,-1.4828,-1.4999,-1.5204,-1.5213,-1.539,-1.5611,-1.5867,-1.614,-1.6377,-1.6647,-1.6925,-1.7132,-1.727,-1.7725,-1.8394,-1.928,-1.9717,-2.018,-2.0691,-2.1104,-2.1626,-2.2361,-2.2499,-2.2908,-2.3371,-2.3775,-2.392,-2.4179,-2.4674,-2.529,-2.5742,-2.621,-2.6683,-2.7324,-2.8076,-2.8254,-2.816,-2.8361,-2.8624,-2.8787,-2.9001,-2.9289,-2.9745,-3.0024,-3.0392,-3.0684,-3.0823,-3.1024,-3.1244,-3.1148,-3.0819,-3.0496,-3.0118,-2.968,-0.3812,-0.4036,-0.4435,-0.479,-0.5099,-0.5327,-0.5489,-0.5673,-0.5797,-0.5823,-0.5862,-0.5949,-0.5945,-0.6016,-0.5928,-0.591,-0.5869,-0.5848,-0.5762,-0.5672,-0.5656,-0.5968,-0.6295,-0.6606,-0.6905,-0.7138,-0.7073,-0.7106,-0.7265,-0.7335,-0.7405,-0.7418,-0.7754,-0.8117,-0.8547,-0.8621,-0.8877,-0.9362,-0.9473,-0.9473,-0.9582,-0.9841,-1.003,-1.0105,-1.0331,-1.0718,-1.1256,-1.1522,-1.1853,-1.2394,-1.2842,-1.304,-1.3024,-1.3175,-1.3318,-1.3398,-1.34,-1.3535,-1.3889,-1.4129,-1.4333,-1.4505,-1.4713,-1.482,-1.4971,-1.5177,-1.5426,-1.5753,-1.6035,-1.6272,-1.6542,-1.6707,-1.6881,-1.7235,-1.7657,-1.8135,-1.8688,-1.9332,-1.99,-1.9975,-2.0881,-2.16,-2.2093,-2.2531,-2.2956,-2.3356,-2.3655,-2.3799,-2.4025,-2.459,-2.5171,-2.5723,-2.6179,-2.6602,-2.7227,-2.805,-2.8414,-2.8236,-2.8502,-2.9003,-2.9145,-2.935,-2.9656,-3.0024,-3.0012,-3.0254,-3.0583,-3.0836,-3.1112,-3.1248,-3.1121,-3.0828,-3.0834,-3.0572,-3.0124,-0.354,-0.354,-0.4257,-0.452,-0.461,-0.4924,-0.5124,-0.521,-0.5277,-0.5341,-0.5379,-0.5404,-0.5463,-0.5404,-0.5365,-0.5317,-0.5287,-0.5367,-0.5387,-0.5319,-0.5454,-0.5721,-0.6041,-0.6361,-0.6712,-0.7012,-0.6881,-0.704,-0.7265,-0.7232,-0.7311,-0.7479,-0.7586,-0.7921,-0.8387,-0.8333,-0.8554,-0.9058,-0.918,-0.9198,-0.9322,-0.9511,-0.9695,-0.9771,-0.9927,-1.0263,-1.0789,-1.1112,-1.1489,-1.1888,-1.219,-1.2359,-1.2419,-1.2645,-1.2876,-1.3048,-1.3105,-1.3337,-1.3774,-1.4,-1.4137,-1.4356,-1.4497,-1.4605,-1.4756,-1.4963,-1.5213,-1.5505,-1.5823,-1.6096,-1.6333,-1.6499,-1.6777,-1.7166,-1.7486,-1.7871,-1.838,-1.9097,-1.9608,-1.9914,-2.0498,-2.1186,-2.1506,-2.2058,-2.2457,-2.2776,-2.3103,-2.3279,-2.3575,-2.4314,-2.4909,-2.533,-2.5884,-2.6306,-2.6747,-2.7519,-2.8077,-2.7985,-2.8246,-2.8831,-2.9147,-2.9355,-2.9599,-2.978,-2.9896,-3.0088,-3.0406,-3.0609,-3.0647,-3.0761,-3.0798,-3.0885,-3.0843,-3.0826,-3.0464,-0.3045,-0.2956,-0.3896,-0.4117,-0.4028,-0.4431,-0.4608,-0.4483,-0.4558,-0.463,-0.4725,-0.4706,-0.4814,-0.4617,-0.477,-0.4647,-0.4613,-0.4815,-0.488,-0.5003,-0.524,-0.5566,-0.5705,-0.6099,-0.6453,-0.6745,-0.6708,-0.6937,-0.7167,-0.7167,-0.7324,-0.7449,-0.745,-0.7715,-0.8023,-0.8055,-0.8317,-0.8702,-0.8877,-0.8965,-0.9132,-0.9284,-0.9397,-0.9511,-0.9657,-0.9846,-1.0208,-1.0541,-1.0893,-1.1304,-1.1378,-1.1608,-1.1744,-1.1898,-1.2271,-1.269,-1.29,-1.3212,-1.3712,-1.3812,-1.3992,-1.4235,-1.4353,-1.4461,-1.4605,-1.4792,-1.5043,-1.5275,-1.5541,-1.5859,-1.6132,-1.6403,-1.6707,-1.7028,-1.7132,-1.7641,-1.8327,-1.8839,-1.9304,-1.9859,-1.9956,-2.0252,-2.0652,-2.114,-2.1571,-2.2322,-2.262,-2.2878,-2.3176,-2.3719,-2.4212,-2.4625,-2.5232,-2.5902,-2.6379,-2.6933,-2.7325,-2.7587,-2.7871,-2.8317,-2.8717,-2.8959,-2.9225,-2.9431,-2.9767,-2.996,-3.0139,-3.0267,-3.0292,-3.0419,-3.0609,-3.0698,-3.071,-3.0809,-3.0613,-0.2911,-0.2956,-0.3671,-0.3939,-0.3939,-0.4251,-0.4335,-0.4249,-0.4422,-0.444,-0.4501,-0.4613,-0.463,-0.4567,-0.4447,-0.4445,-0.4341,-0.4357,-0.4399,-0.4509,-0.4794,-0.5075,-0.5336,-0.5863,-0.6284,-0.6482,-0.6482,-0.6613,-0.6806,-0.6876,-0.6856,-0.6966,-0.7081,-0.7205,-0.75,-0.7513,-0.7617,-0.8061,-0.8369,-0.8537,-0.8713,-0.9056,-0.9208,-0.9208,-0.9435,-0.9695,-0.9879,-1.003,-1.0293,-1.07,-1.1111,-1.1409,-1.1626,-1.1855,-1.2153,-1.2487,-1.2665,-1.293,-1.3332,-1.3584,-1.3689,-1.3929,-1.4217,-1.4389,-1.4461,-1.4721,-1.4963,-1.5204,-1.5426,-1.5718,-1.6096,-1.6403,-1.6603,-1.6786,-1.6994,-1.7204,-1.7366,-1.7776,-1.8208,-1.8409,-1.8909,-1.9394,-1.9823,-2.071,-2.1245,-2.185,-2.219,-2.2468,-2.2794,-2.3105,-2.3458,-2.3833,-2.4505,-2.5124,-2.5489,-2.6162,-2.7007,-2.7459,-2.7792,-2.7893,-2.829,-2.879,-2.9094,-2.9442,-2.9752,-2.992,-2.996,-3.019,-3.0305,-3.0381,-3.0394,-3.0431,-3.0481,-3.0633,-3.0668,-0.263,-0.2609,-0.3301,-0.3449,-0.3355,-0.3724,-0.3881,-0.3805,-0.3846,-0.3991,-0.408,-0.4149,-0.411,-0.4099,-0.3998,-0.3902,-0.3842,-0.3876,-0.402,-0.4266,-0.4571,-0.4794,-0.5024,-0.5587,-0.605,-0.6321,-0.6317,-0.6482,-0.6679,-0.6646,-0.6651,-0.6773,-0.6811,-0.6928,-0.7075,-0.7017,-0.723,-0.7626,-0.7864,-0.8076,-0.8428,-0.867,-0.898,-0.9022,-0.9284,-0.9544,-0.9733,-0.9879,-1.011,-1.0481,-1.0812,-1.1111,-1.1366,-1.1595,-1.1897,-1.2292,-1.2494,-1.2798,-1.3188,-1.3395,-1.352,-1.3761,-1.4008,-1.4181,-1.4361,-1.4577,-1.4792,-1.5034,-1.5248,-1.5568,-1.6096,-1.6237,-1.6403,-1.6603,-1.6777,-1.6855,-1.6864,-1.7245,-1.7623,-1.7686,-1.811,-1.8537,-1.9128,-2.0031,-2.039,-2.0721,-2.155,-2.1848,-2.1883,-2.2226,-2.2581,-2.3021,-2.372,-2.4286,-2.4573,-2.5401,-2.6764,-2.7358,-2.7843,-2.7861,-2.7951,-2.8524,-2.9089,-2.9324,-2.9546,-2.9739,-2.9818,-3.0049,-3.0075,-3.0063,-3.0063,-3.0088,-3.0022,-2.9854,-2.999,-0.2261,-0.2133,-0.2799,-0.2822,-0.2583,-0.3108,-0.3254,-0.313,-0.3117,-0.3308,-0.3581,-0.3487,-0.3513,-0.3448,-0.3485,-0.3364,-0.3317,-0.3474,-0.3812,-0.4129,-0.4517,-0.4767,-0.503,-0.5501,-0.5911,-0.6262,-0.6197,-0.6387,-0.6515,-0.6519,-0.6416,-0.6646,-0.6613,-0.6626,-0.6697,-0.6738,-0.6882,-0.7279,-0.75,-0.7775,-0.8212,-0.8405,-0.8637,-0.8984,-0.9132,-0.9397,-0.9625,-0.9771,-1.0035,-1.0406,-1.0475,-1.07,-1.0993,-1.131,-1.1571,-1.2113,-1.2291,-1.2612,-1.2982,-1.3177,-1.331,-1.3652,-1.3717,-1.3944,-1.4258,-1.4478,-1.4667,-1.4872,-1.5144,-1.5461,-1.6026,-1.6061,-1.6158,-1.6368,-1.6473,-1.6569,-1.6719,-1.7084,-1.7279,-1.7392,-1.7586,-1.7918,-1.8437,-1.9167,-1.9359,-1.9687,-2.0565,-2.1167,-2.1229,-2.1463,-2.1859,-2.2317,-2.3029,-2.3647,-2.3977,-2.4866,-2.6184,-2.6731,-2.7418,-2.7481,-2.7387,-2.7503,-2.7975,-2.8893,-2.9186,-2.9319,-2.9312,-2.9264,-2.9353,-2.9554,-2.9303,-2.8971,-2.8905,-2.9004,-2.9149,-0.1994,-0.2133,-0.2491,-0.2444,-0.2231,-0.2523,-0.2629,-0.2501,-0.2646,-0.2807,-0.2987,-0.3098,-0.313,-0.3154,-0.3194,-0.3221,-0.3249,-0.3438,-0.3695,-0.4017,-0.4491,-0.4844,-0.5079,-0.5527,-0.5877,-0.5908,-0.5911,-0.5977,-0.609,-0.6024,-0.6086,-0.6086,-0.6086,-0.6152,-0.6328,-0.6413,-0.6547,-0.6906,-0.7218,-0.7586,-0.7891,-0.8208,-0.8518,-0.8908,-0.9022,-0.9208,-0.9506,-0.962,-0.9841,-1.0218,-1.0406,-1.0625,-1.085,-1.1149,-1.1484,-1.1758,-1.1977,-1.2289,-1.2733,-1.2759,-1.2933,-1.317,-1.3411,-1.3726,-1.4201,-1.4492,-1.4745,-1.4977,-1.5138,-1.5281,-1.5346,-1.5642,-1.576,-1.5955,-1.6201,-1.6466,-1.6768,-1.691,-1.6958,-1.7118,-1.7281,-1.7458,-1.8017,-1.852,-1.8848,-1.9153,-1.9737,-2.0267,-2.0452,-2.0831,-2.1339,-2.1823,-2.2343,-2.2943,-2.3466,-2.4487,-2.5571,-2.5808,-2.63,-2.6602,-2.647,-2.6256,-2.6717,-2.7902,-2.85,-2.8557,-2.8536,-2.8512,-2.8288,-2.8226,-2.7972,-2.7727,-2.7647,-2.763,-2.7682,-0.176,-0.2057,-0.2231,-0.2238,-0.2167,-0.233,-0.2367,-0.2317,-0.2487,-0.2619,-0.2794,-0.2899,-0.2958,-0.2947,-0.3008,-0.3096,-0.3209,-0.3422,-0.3603,-0.3839,-0.43,-0.4615,-0.4837,-0.5378,-0.5535,-0.553,-0.5504,-0.5631,-0.5833,-0.5789,-0.5822,-0.5892,-0.5892,-0.5954,-0.6028,-0.6126,-0.6294,-0.6579,-0.6904,-0.7249,-0.7525,-0.7887,-0.8275,-0.8594,-0.8822,-0.9008,-0.9236,-0.9392,-0.9582,-0.9841,-1.0067,-1.0293,-1.0519,-1.0787,-1.1117,-1.1496,-1.1719,-1.2094,-1.2573,-1.2726,-1.2989,-1.3604,-1.3634,-1.3934,-1.4401,-1.4759,-1.498,-1.5245,-1.5386,-1.5515,-1.5762,-1.5786,-1.6048,-1.6297,-1.6426,-1.6577,-1.6874,-1.6988,-1.7054,-1.7081,-1.7183,-1.7406,-1.7641,-1.8085,-1.8389,-1.8728,-1.9064,-1.9413,-1.9739,-2.032,-2.0889,-2.121,-2.1757,-2.2512,-2.316,-2.4154,-2.502,-2.5232,-2.5486,-2.5821,-2.5953,-2.5917,-2.6362,-2.7284,-2.761,-2.7579,-2.7802,-2.7779,-2.736,-2.6988,-2.7044,-2.6987,-2.648,-2.6269,-2.6405,-0.1555,-0.1954,-0.2007,-0.1976,-0.195,-0.2093,-0.2181,-0.221,-0.2282,-0.25,-0.2705,-0.2728,-0.279,-0.2869,-0.2978,-0.308,-0.3189,-0.3447,-0.3556,-0.3752,-0.4254,-0.4473,-0.4612,-0.4955,-0.5391,-0.532,-0.5215,-0.5295,-0.5619,-0.5587,-0.562,-0.569,-0.576,-0.5855,-0.5899,-0.5944,-0.6123,-0.6336,-0.6643,-0.6945,-0.7302,-0.7668,-0.8016,-0.8322,-0.8513,-0.8737,-0.897,-0.9127,-0.9322,-0.9549,-0.9738,-0.996,-1.0154,-1.0376,-1.0738,-1.1227,-1.1527,-1.203,-1.2516,-1.2807,-1.3119,-1.373,-1.3867,-1.4159,-1.4545,-1.4827,-1.5179,-1.5483,-1.5481,-1.5549,-1.5769,-1.6049,-1.6269,-1.6518,-1.6623,-1.6775,-1.7028,-1.7183,-1.7318,-1.7311,-1.7288,-1.7355,-1.7534,-1.8064,-1.8471,-1.8598,-1.8927,-1.9184,-1.9554,-2.0038,-2.0511,-2.0687,-2.121,-2.2108,-2.2916,-2.3832,-2.4568,-2.4939,-2.5263,-2.5585,-2.5718,-2.5816,-2.6237,-2.636,-2.629,-2.6307,-2.6661,-2.6907,-2.6443,-2.6208,-2.6373,-2.6144,-2.553,-2.5253,-2.5294,-0.1282,-0.167,-0.1701,-0.1609,-0.1437,-0.162,-0.1774,-0.1927,-0.1887,-0.2157,-0.2499,-0.2496,-0.2604,-0.2825,-0.3092,-0.3296,-0.3412,-0.3507,-0.3655,-0.3848,-0.4445,-0.4743,-0.4934,-0.5541,-0.5328,-0.5152,-0.5063,-0.5265,-0.539,-0.5253,-0.5289,-0.5425,-0.5528,-0.5598,-0.5889,-0.5863,-0.5995,-0.6279,-0.6689,-0.7159,-0.7584,-0.7829,-0.7961,-0.8102,-0.8307,-0.845,-0.8637,-0.8827,-0.9061,-0.9251,-0.9478,-0.9738,-0.9987,-1.0352,-1.0678,-1.1016,-1.1355,-1.1789,-1.2411,-1.2712,-1.3035,-1.3525,-1.3518,-1.372,-1.4266,-1.4754,-1.5115,-1.5555,-1.5333,-1.5288,-1.5553,-1.556,-1.5752,-1.6031,-1.6343,-1.6785,-1.7149,-1.7252,-1.7364,-1.756,-1.7548,-1.7404,-1.7433,-1.8053,-1.8585,-1.8632,-1.8731,-1.9057,-1.9445,-2.0029,-2.0614,-2.0906,-2.127,-2.2111,-2.2781,-2.3669,-2.4143,-2.4616,-2.4888,-2.5222,-2.5226,-2.517,-2.5008,-2.5093,-2.5058,-2.526,-2.5777,-2.5841,-2.5455,-2.5307,-2.5338,-2.4976,-2.4472,-2.437,-2.453,-0.0514,-0.122,-0.1164,-0.1112,-0.1078,-0.1175,-0.1254,-0.138,-0.1561,-0.1791,-0.2109,-0.2319,-0.2552,-0.2776,-0.2982,-0.3096,-0.3265,-0.3445,-0.3591,-0.376,-0.4239,-0.4493,-0.4448,-0.4857,-0.4927,-0.4756,-0.4572,-0.4591,-0.4806,-0.509,-0.5156,-0.5223,-0.5365,-0.5584,-0.5847,-0.5789,-0.5991,-0.6247,-0.6514,-0.6812,-0.7176,-0.7336,-0.7395,-0.7462,-0.7819,-0.7996,-0.8124,-0.8327,-0.8527,-0.8665,-0.8918,-0.916,-0.9403,-0.979,-1.0204,-1.0722,-1.1046,-1.1508,-1.2125,-1.2557,-1.2986,-1.3361,-1.3476,-1.3857,-1.4358,-1.4654,-1.4943,-1.5442,-1.5316,-1.534,-1.5526,-1.5725,-1.6006,-1.623,-1.6285,-1.6707,-1.7148,-1.7227,-1.7386,-1.7615,-1.7809,-1.7675,-1.7576,-1.7942,-1.8443,-1.8644,-1.8816,-1.9143,-1.967,-2.0296,-2.0885,-2.1481,-2.1832,-2.2349,-2.2863,-2.3511,-2.3818,-2.416,-2.4182,-2.4418,-2.4482,-2.4403,-2.4335,-2.4358,-2.4461,-2.4711,-2.5059,-2.5038,-2.4898,-2.4564,-2.4215,-2.4181,-2.4159,-2.4371,-2.4633,0.0192,-0.054,-0.054,-0.0608,-0.0668,-0.0691,-0.0769,-0.0936,-0.1227,-0.1527,-0.1838,-0.217,-0.2447,-0.2659,-0.2762,-0.2922,-0.3091,-0.3289,-0.3348,-0.3524,-0.3808,-0.3962,-0.3988,-0.4222,-0.4354,-0.4129,-0.4072,-0.4172,-0.4467,-0.4758,-0.4987,-0.5087,-0.5223,-0.551,-0.5688,-0.5746,-0.5823,-0.63,-0.6288,-0.6526,-0.6846,-0.6953,-0.6972,-0.7126,-0.7407,-0.7608,-0.7569,-0.7919,-0.8102,-0.8216,-0.8574,-0.8897,-0.919,-0.9619,-1.0069,-1.058,-1.0966,-1.1383,-1.195,-1.2397,-1.2866,-1.3189,-1.3392,-1.3574,-1.4112,-1.4405,-1.4566,-1.4949,-1.5052,-1.5226,-1.5519,-1.5703,-1.5988,-1.6252,-1.652,-1.687,-1.7131,-1.7155,-1.7299,-1.7612,-1.7826,-1.8008,-1.7956,-1.7994,-1.8259,-1.8545,-1.89,-1.9292,-1.9872,-2.0581,-2.102,-2.1545,-2.1643,-2.202,-2.2474,-2.2992,-2.3381,-2.3652,-2.3638,-2.3779,-2.3889,-2.3946,-2.3946,-2.3967,-2.4127,-2.4271,-2.4641,-2.4525,-2.4397,-2.4331,-2.4248,-2.4116,-2.4102,-2.4382,-2.4745,0.0725,0.0476,0.0037,-0.0108,-0.0106,-0.007,-0.0392,-0.0838,-0.0927,-0.1255,-0.1716,-0.2005,-0.2152,-0.2367,-0.2593,-0.2764,-0.3002,-0.302,-0.3074,-0.322,-0.3423,-0.3557,-0.3653,-0.3788,-0.3956,-0.3885,-0.3788,-0.3873,-0.4121,-0.4425,-0.4755,-0.5054,-0.509,-0.5326,-0.5513,-0.5654,-0.5747,-0.6095,-0.6083,-0.6293,-0.667,-0.6871,-0.7002,-0.7171,-0.7431,-0.7621,-0.7438,-0.7745,-0.7996,-0.8015,-0.8436,-0.885,-0.9155,-0.9636,-1.0117,-1.0547,-1.1001,-1.1412,-1.1861,-1.2287,-1.2753,-1.2954,-1.3045,-1.3088,-1.3603,-1.3568,-1.3779,-1.4243,-1.4447,-1.4734,-1.5033,-1.5325,-1.5575,-1.5989,-1.6237,-1.6525,-1.6771,-1.6968,-1.7172,-1.757,-1.7747,-1.7777,-1.8089,-1.8092,-1.8428,-1.8773,-1.9516,-1.9954,-2.0267,-2.0839,-2.1124,-2.1403,-2.1271,-2.146,-2.1844,-2.2221,-2.2552,-2.2794,-2.2909,-2.3185,-2.3464,-2.3484,-2.3589,-2.4034,-2.4242,-2.4221,-2.42,-2.4309,-2.4383,-2.4398,-2.4342,-2.4237,-2.4378,-2.4707,-2.5013,0.1481,0.1156,0.0808,0.0427,0.0,-0.0137,-0.0313,-0.0531,-0.0668,-0.095,-0.1386,-0.1574,-0.1831,-0.2167,-0.2342,-0.2567,-0.2773,-0.2808,-0.2882,-0.3039,-0.3198,-0.3303,-0.3369,-0.3445,-0.3543,-0.3505,-0.3483,-0.3644,-0.3899,-0.4125,-0.4392,-0.4658,-0.4858,-0.5161,-0.5372,-0.5504,-0.5665,-0.5719,-0.575,-0.5882,-0.6063,-0.6357,-0.6509,-0.6506,-0.6702,-0.6833,-0.6835,-0.7253,-0.7462,-0.7789,-0.8326,-0.8785,-0.9183,-0.9715,-1.0185,-1.058,-1.1026,-1.1408,-1.1736,-1.2123,-1.2369,-1.2619,-1.2705,-1.2839,-1.3094,-1.327,-1.3525,-1.3773,-1.3906,-1.4195,-1.4566,-1.4776,-1.4985,-1.5484,-1.5865,-1.6154,-1.6402,-1.6599,-1.6894,-1.7253,-1.7302,-1.7318,-1.7732,-1.8126,-1.8589,-1.907,-1.9895,-2.0566,-2.072,-2.1026,-2.1271,-2.1496,-2.1428,-2.1643,-2.2042,-2.1961,-2.1787,-2.2047,-2.2297,-2.2683,-2.3069,-2.3203,-2.3399,-2.3929,-2.4356,-2.4347,-2.4301,-2.4328,-2.4368,-2.442,-2.4457,-2.447,-2.4696,-2.4969,-2.523,0.1886,0.1533,0.1249,0.0786,0.0276,0.0068,0.0,-0.007,-0.0312,-0.0692,-0.1106,-0.1254,-0.1547,-0.1918,-0.2021,-0.2224,-0.2432,-0.2496,-0.2594,-0.2681,-0.2773,-0.2868,-0.2963,-0.3003,-0.302,-0.3066,-0.3159,-0.336,-0.3792,-0.3825,-0.4128,-0.4428,-0.4634,-0.4858,-0.5154,-0.53,-0.5326,-0.5326,-0.5357,-0.5417,-0.551,-0.5863,-0.6147,-0.619,-0.6473,-0.6604,-0.6805,-0.716,-0.7433,-0.7775,-0.8209,-0.8789,-0.9197,-0.9636,-1.0149,-1.0511,-1.0852,-1.1198,-1.1602,-1.1952,-1.2037,-1.2203,-1.2155,-1.2412,-1.2717,-1.293,-1.2973,-1.3349,-1.3476,-1.3773,-1.4188,-1.4356,-1.465,-1.5151,-1.5526,-1.5816,-1.6023,-1.6263,-1.6599,-1.6935,-1.6976,-1.7139,-1.7505,-1.7959,-1.8567,-1.9022,-1.958,-2.0186,-2.0518,-2.0875,-2.1354,-2.1576,-2.1708,-2.2056,-2.2416,-2.2068,-2.1807,-2.2104,-2.2354,-2.2451,-2.2753,-2.2906,-2.3361,-2.4026,-2.4351,-2.4408,-2.4402,-2.4382,-2.4424,-2.4454,-2.4527,-2.4647,-2.4671,-2.4873,-2.5206,0.1832,0.1718,0.117,0.0912,0.0832,0.0778,0.063,0.0383,0.0068,-0.0405,-0.0981,-0.1177,-0.1378,-0.158,-0.1648,-0.1883,-0.2119,-0.2084,-0.2119,-0.2326,-0.24,-0.236,-0.2427,-0.2499,-0.2708,-0.293,-0.3058,-0.3293,-0.3792,-0.3894,-0.4095,-0.4231,-0.4367,-0.4509,-0.4776,-0.4806,-0.4809,-0.4861,-0.5015,-0.5107,-0.5257,-0.5635,-0.5928,-0.6226,-0.6469,-0.6593,-0.6898,-0.7239,-0.7488,-0.7758,-0.8467,-0.8944,-0.92,-0.9673,-1.0038,-1.0212,-1.0303,-1.0577,-1.0982,-1.1602,-1.178,-1.178,-1.1774,-1.186,-1.2037,-1.2172,-1.2381,-1.2924,-1.3094,-1.3434,-1.3773,-1.4062,-1.4356,-1.4817,-1.5193,-1.5526,-1.5775,-1.5974,-1.6312,-1.6566,-1.6902,-1.7188,-1.7432,-1.7838,-1.8434,-1.8984,-1.9399,-1.9833,-2.0264,-2.0809,-2.131,-2.1528,-2.1723,-2.1964,-2.2168,-2.1974,-2.1849,-2.2171,-2.2319,-2.2382,-2.2559,-2.2802,-2.3363,-2.4134,-2.4209,-2.4158,-2.4266,-2.4397,-2.4515,-2.4641,-2.4741,-2.4814,-2.4778,-2.4813,-2.5111,0.2103,0.1761,0.1485,0.1253,0.1044,0.0655,0.0389,0.0205,0.0034,-0.0202,-0.0539,-0.0707,-0.0976,-0.1211,-0.1378,-0.1547,-0.1782,-0.1951,-0.2018,-0.2188,-0.215,-0.2388,-0.2455,-0.2456,-0.2591,-0.2958,-0.3092,-0.3326,-0.3928,-0.3894,-0.3961,-0.4064,-0.4131,-0.4328,-0.4531,-0.4595,-0.4534,-0.4637,-0.4738,-0.4813,-0.4947,-0.5357,-0.5741,-0.6017,-0.6241,-0.6551,-0.6889,-0.7285,-0.755,-0.7823,-0.8516,-0.8875,-0.9052,-0.9411,-0.9662,-0.9738,-0.9823,-1.0104,-1.0365,-1.0771,-1.116,-1.1295,-1.1472,-1.1688,-1.216,-1.208,-1.2289,-1.254,-1.2747,-1.3094,-1.3434,-1.3603,-1.3942,-1.4608,-1.5068,-1.5367,-1.5616,-1.5775,-1.5982,-1.6162,-1.6458,-1.6911,-1.7261,-1.7624,-1.8178,-1.8785,-1.925,-1.9636,-2.002,-2.0731,-2.131,-2.1425,-2.1568,-2.1791,-2.1883,-2.1865,-2.1925,-2.2103,-2.2199,-2.2221,-2.2432,-2.2744,-2.3414,-2.4168,-2.4015,-2.3897,-2.4184,-2.4496,-2.4703,-2.4865,-2.4871,-2.4907,-2.4904,-2.4858,-2.4861,0.2266,0.1935,0.1756,0.1519,0.1232,0.0661,0.0248,0.0034,0.0067,-0.0067,-0.0371,-0.0539,-0.0808,-0.1076,-0.121,-0.1311,-0.1511,-0.1628,-0.1709,-0.1909,-0.1961,-0.2167,-0.2345,-0.2453,-0.269,-0.2989,-0.3157,-0.3391,-0.3861,-0.3761,-0.3794,-0.3894,-0.3961,-0.4095,-0.4261,-0.4295,-0.4431,-0.4564,-0.4672,-0.4622,-0.4762,-0.506,-0.5445,-0.572,-0.602,-0.6345,-0.6817,-0.7178,-0.7439,-0.7846,-0.817,-0.8515,-0.8679,-0.8869,-0.9071,-0.915,-0.9358,-0.9596,-0.9803,-1.0164,-1.0554,-1.0771,-1.1165,-1.1553,-1.1892,-1.1768,-1.2069,-1.232,-1.2491,-1.279,-1.3179,-1.327,-1.3773,-1.4489,-1.4824,-1.5117,-1.5458,-1.5616,-1.5948,-1.6079,-1.6234,-1.666,-1.7073,-1.746,-1.7906,-1.8497,-1.91,-1.9439,-1.9814,-2.0498,-2.1128,-2.1324,-2.1546,-2.1823,-2.1993,-2.2033,-2.2042,-2.213,-2.2155,-2.2202,-2.241,-2.2758,-2.3494,-2.4018,-2.3802,-2.3775,-2.4209,-2.4535,-2.4647,-2.4783,-2.4871,-2.4917,-2.503,-2.5034,-2.4991,0.2385,0.2186,0.1918,0.1679,0.1452,0.0898,0.0421,0.0034,0.0236,0.0,-0.0472,-0.0605,-0.0807,-0.1009,-0.1076,-0.114,-0.1267,-0.1305,-0.1343,-0.1419,-0.1567,-0.1845,-0.2094,-0.2271,-0.2563,-0.2871,-0.3127,-0.332,-0.3735,-0.3633,-0.3638,-0.3773,-0.386,-0.3939,-0.3982,-0.4128,-0.4328,-0.4392,-0.4442,-0.4431,-0.4511,-0.4833,-0.5214,-0.5522,-0.5898,-0.6269,-0.6681,-0.7028,-0.72,-0.7458,-0.7644,-0.7794,-0.7954,-0.8176,-0.8336,-0.8515,-0.8811,-0.8973,-0.9213,-0.9641,-0.9907,-1.012,-1.0472,-1.0852,-1.1241,-1.1462,-1.1806,-1.2235,-1.2454,-1.2753,-1.3052,-1.3355,-1.3695,-1.4153,-1.4531,-1.4873,-1.5257,-1.5624,-1.6031,-1.6216,-1.629,-1.6533,-1.6788,-1.7169,-1.7587,-1.8083,-1.8633,-1.9128,-1.9562,-2.0186,-2.078,-2.1205,-2.1489,-2.189,-2.2012,-2.2041,-2.2195,-2.2254,-2.2299,-2.2364,-2.2595,-2.2728,-2.3121,-2.3418,-2.3442,-2.3605,-2.3897,-2.4192,-2.4486,-2.4607,-2.4916,-2.5012,-2.5138,-2.5346,-2.542,0.2526,0.2197,0.2073,0.1906,0.1676,0.1344,0.0864,0.0413,0.0408,0.0236,-0.0135,-0.0202,-0.0435,-0.064,-0.0674,-0.0798,-0.0918,-0.1036,-0.1086,-0.118,-0.131,-0.1551,-0.1757,-0.1957,-0.2314,-0.2686,-0.3015,-0.3244,-0.3573,-0.3515,-0.3508,-0.3637,-0.3596,-0.3659,-0.3832,-0.4028,-0.4028,-0.4095,-0.4192,-0.4259,-0.4348,-0.4656,-0.5004,-0.5334,-0.5592,-0.6011,-0.6421,-0.6716,-0.6888,-0.7114,-0.7345,-0.7488,-0.7533,-0.7801,-0.8023,-0.809,-0.8143,-0.8173,-0.8522,-0.8951,-0.9345,-0.9602,-0.9994,-1.0598,-1.1025,-1.1332,-1.1585,-1.1943,-1.2188,-1.2347,-1.285,-1.3279,-1.3698,-1.4153,-1.4531,-1.495,-1.5333,-1.5665,-1.6064,-1.6154,-1.6227,-1.6389,-1.6619,-1.6824,-1.724,-1.7699,-1.8162,-1.8728,-1.9328,-1.9913,-2.0498,-2.0925,-2.1244,-2.1578,-2.1873,-2.1947,-2.2188,-2.2408,-2.2327,-2.2365,-2.2446,-2.2617,-2.2767,-2.3014,-2.3242,-2.3368,-2.3431,-2.3799,-2.4235,-2.4738,-2.5059,-2.5148,-2.5248,-2.5418,-2.5576,0.2639,0.2319,0.2312,0.2169,0.2013,0.1921,0.1614,0.1128,0.0787,0.0522,0.0293,0.0195,0.0,-0.0195,-0.0227,-0.0322,-0.0476,-0.0686,-0.0805,-0.0844,-0.1088,-0.1409,-0.1606,-0.1836,-0.2247,-0.2636,-0.2898,-0.3131,-0.3404,-0.3416,-0.3372,-0.3195,-0.3192,-0.3344,-0.3458,-0.3531,-0.3558,-0.3758,-0.3976,-0.4133,-0.4295,-0.4484,-0.4784,-0.5007,-0.5195,-0.5604,-0.5988,-0.6236,-0.6447,-0.6586,-0.6783,-0.6847,-0.7008,-0.7348,-0.7873,-0.8014,-0.8116,-0.8219,-0.8464,-0.8775,-0.9043,-0.9349,-0.9781,-1.0381,-1.0727,-1.0944,-1.1262,-1.1586,-1.1666,-1.1872,-1.2512,-1.3161,-1.3694,-1.4188,-1.465,-1.5075,-1.5409,-1.5741,-1.5913,-1.6026,-1.6129,-1.6292,-1.6469,-1.6651,-1.6992,-1.761,-1.8009,-1.8403,-1.9037,-1.9648,-2.0216,-2.0683,-2.0964,-2.1233,-2.1492,-2.1797,-2.1959,-2.2111,-2.2073,-2.2138,-2.2289,-2.2488,-2.2671,-2.2922,-2.3224,-2.3298,-2.3335,-2.3677,-2.4086,-2.4542,-2.4865,-2.4923,-2.5071,-2.5394,-2.554,0.2855,0.2519,0.2615,0.255,0.2413,0.2507,0.2374,0.2054,0.1287,0.0862,0.0711,0.0526,0.0342,0.0156,0.0125,0.0062,-0.0123,-0.0362,-0.0511,-0.0491,-0.0904,-0.1238,-0.159,-0.1965,-0.215,-0.2548,-0.2863,-0.2998,-0.3127,-0.3179,-0.3052,-0.2707,-0.2904,-0.3025,-0.3046,-0.323,-0.3368,-0.3531,-0.3905,-0.4206,-0.4181,-0.4341,-0.4493,-0.4517,-0.4807,-0.5168,-0.5388,-0.5609,-0.5814,-0.5808,-0.5939,-0.6084,-0.6527,-0.6946,-0.7544,-0.7892,-0.7966,-0.8154,-0.8321,-0.8644,-0.8955,-0.9345,-0.9868,-1.025,-1.0467,-1.0651,-1.099,-1.1237,-1.1383,-1.1602,-1.2123,-1.2624,-1.3127,-1.3692,-1.4166,-1.4696,-1.5151,-1.5573,-1.5977,-1.6098,-1.6166,-1.6275,-1.6198,-1.6381,-1.6761,-1.7445,-1.7797,-1.8083,-1.868,-1.9335,-1.9875,-2.0382,-2.0722,-2.1002,-2.131,-2.1578,-2.1655,-2.1769,-2.1825,-2.1921,-2.2101,-2.2327,-2.2553,-2.2804,-2.3102,-2.3224,-2.3372,-2.3641,-2.3872,-2.416,-2.4422,-2.456,-2.481,-2.5119,-2.5396,0.3549,0.3225,0.3059,0.2919,0.2789,0.2452,0.2402,0.2352,0.1723,0.1331,0.1074,0.0863,0.0646,0.0429,0.0398,0.0334,0.0119,-0.0059,-0.0233,-0.041,-0.0698,-0.1057,-0.1308,-0.1579,-0.1906,-0.2302,-0.2627,-0.2832,-0.2929,-0.2956,-0.2859,-0.2563,-0.2707,-0.2851,-0.2852,-0.307,-0.3316,-0.3404,-0.3637,-0.3866,-0.3795,-0.3876,-0.401,-0.4143,-0.4392,-0.455,-0.4751,-0.5046,-0.5168,-0.5227,-0.5688,-0.6083,-0.6503,-0.6784,-0.7178,-0.7533,-0.7646,-0.781,-0.8071,-0.8424,-0.8674,-0.9104,-0.955,-0.9903,-1.0207,-1.0469,-1.0705,-1.0908,-1.1164,-1.1379,-1.1676,-1.2128,-1.259,-1.3163,-1.3689,-1.4239,-1.4839,-1.5394,-1.5954,-1.6119,-1.6195,-1.6152,-1.6069,-1.6254,-1.658,-1.6921,-1.7206,-1.7617,-1.8303,-1.8919,-1.9375,-1.9869,-2.045,-2.0799,-2.1078,-2.1296,-2.1359,-2.1542,-2.1694,-2.1811,-2.1949,-2.2327,-2.2665,-2.274,-2.2927,-2.3113,-2.3335,-2.3519,-2.3751,-2.397,-2.4116,-2.4298,-2.437,-2.4618,-2.4955,0.4037,0.3753,0.3487,0.336,0.3302,0.2952,0.2856,0.28,0.238,0.2029,0.1682,0.1244,0.0889,0.077,0.074,0.0561,0.0375,0.0202,-0.0057,-0.0256,-0.057,-0.0918,-0.1125,-0.1329,-0.1787,-0.2202,-0.2524,-0.2727,-0.2719,-0.2613,-0.2452,-0.2351,-0.2583,-0.2726,-0.2769,-0.3111,-0.3305,-0.3313,-0.3395,-0.3384,-0.3393,-0.357,-0.3659,-0.3792,-0.3975,-0.4139,-0.4423,-0.4696,-0.4854,-0.5112,-0.5571,-0.6139,-0.6575,-0.6925,-0.7226,-0.7501,-0.7582,-0.7468,-0.7743,-0.8006,-0.8338,-0.8798,-0.9169,-0.9524,-1.0168,-1.0361,-1.0358,-1.0616,-1.0939,-1.1205,-1.1491,-1.1894,-1.2329,-1.2846,-1.3273,-1.3729,-1.4351,-1.5002,-1.5602,-1.6098,-1.6191,-1.6193,-1.6199,-1.6394,-1.6661,-1.6727,-1.6954,-1.7221,-1.7878,-1.8544,-1.8953,-1.9399,-1.9975,-2.0342,-2.0596,-2.0813,-2.1011,-2.1261,-2.1535,-2.1803,-2.2054,-2.2446,-2.274,-2.2815,-2.2927,-2.315,-2.3335,-2.3482,-2.3677,-2.3934,-2.4007,-2.4068,-2.4093,-2.4166,-2.4429,0.4431,0.4167,0.3938,0.383,0.3833,0.3657,0.3524,0.3385,0.2993,0.2715,0.2366,0.1524,0.129,0.1234,0.115,0.0895,0.0616,0.0282,0.0056,-0.0223,-0.0589,-0.0848,-0.1102,-0.1379,-0.1721,-0.2087,-0.2413,-0.2493,-0.2465,-0.241,-0.2336,-0.2217,-0.2274,-0.2382,-0.2645,-0.2835,-0.2961,-0.2977,-0.3024,-0.3074,-0.3196,-0.3417,-0.3481,-0.3606,-0.3789,-0.4148,-0.4348,-0.4506,-0.4704,-0.5079,-0.5444,-0.5971,-0.6379,-0.6747,-0.7007,-0.7229,-0.7318,-0.7296,-0.7395,-0.7525,-0.7968,-0.8379,-0.8742,-0.9273,-0.99,-1.0156,-1.0159,-1.0381,-1.0747,-1.104,-1.1329,-1.1651,-1.2086,-1.2559,-1.2922,-1.3273,-1.3916,-1.4553,-1.5153,-1.5834,-1.595,-1.5983,-1.6296,-1.6494,-1.6629,-1.665,-1.6854,-1.706,-1.7452,-1.8094,-1.8665,-1.9034,-1.9475,-1.9812,-2.0159,-2.0384,-2.0669,-2.1148,-2.1508,-2.1772,-2.2104,-2.2424,-2.2665,-2.2889,-2.3001,-2.315,-2.3346,-2.3494,-2.3677,-2.3824,-2.3849,-2.3849,-2.3886,-2.3922,-2.4007,0.5031,0.4719,0.4559,0.4434,0.43,0.382,0.3658,0.3577,0.2905,0.2605,0.2452,0.1903,0.1459,0.1261,0.1038,0.0806,0.0545,0.0275,0.0027,-0.0243,-0.0384,-0.0694,-0.1036,-0.1286,-0.1568,-0.19,-0.2176,-0.2238,-0.2143,-0.2259,-0.2298,-0.2054,-0.2448,-0.2521,-0.2436,-0.2581,-0.2676,-0.2656,-0.2614,-0.2624,-0.2764,-0.3021,-0.3489,-0.363,-0.3752,-0.3865,-0.396,-0.4118,-0.4311,-0.467,-0.5207,-0.5695,-0.605,-0.6347,-0.6576,-0.6753,-0.6844,-0.6891,-0.6947,-0.7244,-0.7716,-0.7966,-0.8358,-0.8917,-0.9484,-0.9924,-1.0023,-1.0247,-1.0549,-1.0876,-1.1168,-1.1531,-1.1928,-1.2372,-1.2783,-1.3061,-1.3532,-1.3952,-1.4417,-1.4863,-1.5125,-1.5481,-1.6085,-1.6318,-1.6516,-1.6676,-1.703,-1.7246,-1.7493,-1.7947,-1.836,-1.8661,-1.9008,-1.9497,-1.9932,-2.0078,-2.0372,-2.0926,-2.1463,-2.1807,-2.2065,-2.2295,-2.2515,-2.2777,-2.2964,-2.3075,-2.3272,-2.3494,-2.353,-2.3677,-2.3629,-2.3666,-2.3677,-2.3677,-2.3751]}]]